<?xml version="1.0" encoding="UTF-8" standalone="no" ?>
<gpx xmlns="http://www.topografix.com/GPX/1/1" xmlns:xsi="http://www.w3.org/2001/XMLSchema-instance" xsi:schemaLocation="http://www.topografix.com/GPX/1/1 http://www.topografix.com/GPX/1/1/gpx.xsd" version="1.1" creator="VisuGPX - https://www.visugpx.com">
  <metadata>
    <name>boucle Puy Chavaroche</name>
    <desc><![CDATA[boucle Puy Chavaroche]]></desc>
  </metadata>
  <trk>
    <name><![CDATA[20-OCT-14 17:50:53]]></name>
    <trkseg>
      <trkpt lat="45.06964" lon="2.65757">
        <ele>927.81</ele>
        <time>2014-10-20T07:45:16Z</time>
      </trkpt>
      <trkpt lat="45.06964" lon="2.65757">
        <ele>928.29</ele>
        <time>2014-10-20T07:45:23Z</time>
      </trkpt>
      <trkpt lat="45.06964" lon="2.65757">
        <ele>926.85</ele>
        <time>2014-10-20T07:45:27Z</time>
      </trkpt>
      <trkpt lat="45.06965" lon="2.65756">
        <ele>928.29</ele>
        <time>2014-10-20T07:45:58Z</time>
      </trkpt>
      <trkpt lat="45.06964" lon="2.65757">
        <ele>928.29</ele>
        <time>2014-10-20T07:46:36Z</time>
      </trkpt>
      <trkpt lat="45.06965" lon="2.65756">
        <ele>928.29</ele>
        <time>2014-10-20T07:47:04Z</time>
      </trkpt>
      <trkpt lat="45.06963" lon="2.65755">
        <ele>928.29</ele>
        <time>2014-10-20T07:47:30Z</time>
      </trkpt>
      <trkpt lat="45.06965" lon="2.65753">
        <ele>928.77</ele>
        <time>2014-10-20T07:47:47Z</time>
      </trkpt>
      <trkpt lat="45.06966" lon="2.65753">
        <ele>928.77</ele>
        <time>2014-10-20T07:47:50Z</time>
      </trkpt>
      <trkpt lat="45.06972" lon="2.65752">
        <ele>928.77</ele>
        <time>2014-10-20T07:47:56Z</time>
      </trkpt>
      <trkpt lat="45.06975" lon="2.6575">
        <ele>929.25</ele>
        <time>2014-10-20T07:48:00Z</time>
      </trkpt>
      <trkpt lat="45.06992" lon="2.65733">
        <ele>929.25</ele>
        <time>2014-10-20T07:48:19Z</time>
      </trkpt>
      <trkpt lat="45.06997" lon="2.65727">
        <ele>928.77</ele>
        <time>2014-10-20T07:48:24Z</time>
      </trkpt>
      <trkpt lat="45.06995" lon="2.65711">
        <ele>928.29</ele>
        <time>2014-10-20T07:48:35Z</time>
      </trkpt>
      <trkpt lat="45.07004" lon="2.65694">
        <ele>929.73</ele>
        <time>2014-10-20T07:48:51Z</time>
      </trkpt>
      <trkpt lat="45.07007" lon="2.65689">
        <ele>929.73</ele>
        <time>2014-10-20T07:48:55Z</time>
      </trkpt>
      <trkpt lat="45.07025" lon="2.65669">
        <ele>931.65</ele>
        <time>2014-10-20T07:49:17Z</time>
      </trkpt>
      <trkpt lat="45.07033" lon="2.65653">
        <ele>934.54</ele>
        <time>2014-10-20T07:49:34Z</time>
      </trkpt>
      <trkpt lat="45.07035" lon="2.65649">
        <ele>935.5</ele>
        <time>2014-10-20T07:49:43Z</time>
      </trkpt>
      <trkpt lat="45.07034" lon="2.65637">
        <ele>936.46</ele>
        <time>2014-10-20T07:49:56Z</time>
      </trkpt>
      <trkpt lat="45.07034" lon="2.65636">
        <ele>936.94</ele>
        <time>2014-10-20T07:49:59Z</time>
      </trkpt>
      <trkpt lat="45.07028" lon="2.65632">
        <ele>938.38</ele>
        <time>2014-10-20T07:50:08Z</time>
      </trkpt>
      <trkpt lat="45.07027" lon="2.65632">
        <ele>938.86</ele>
        <time>2014-10-20T07:50:10Z</time>
      </trkpt>
      <trkpt lat="45.07019" lon="2.65624">
        <ele>940.79</ele>
        <time>2014-10-20T07:50:21Z</time>
      </trkpt>
      <trkpt lat="45.07013" lon="2.6561">
        <ele>943.19</ele>
        <time>2014-10-20T07:50:34Z</time>
      </trkpt>
      <trkpt lat="45.07007" lon="2.65598">
        <ele>945.11</ele>
        <time>2014-10-20T07:50:46Z</time>
      </trkpt>
      <trkpt lat="45.07006" lon="2.65581">
        <ele>947.52</ele>
        <time>2014-10-20T07:51:01Z</time>
      </trkpt>
      <trkpt lat="45.07016" lon="2.65566">
        <ele>950.88</ele>
        <time>2014-10-20T07:51:18Z</time>
      </trkpt>
      <trkpt lat="45.0702" lon="2.65563">
        <ele>952.32</ele>
        <time>2014-10-20T07:51:27Z</time>
      </trkpt>
      <trkpt lat="45.07018" lon="2.65565">
        <ele>951.84</ele>
        <time>2014-10-20T07:51:29Z</time>
      </trkpt>
      <trkpt lat="45.07016" lon="2.65569">
        <ele>952.32</ele>
        <time>2014-10-20T07:51:31Z</time>
      </trkpt>
      <trkpt lat="45.07035" lon="2.65578">
        <ele>953.28</ele>
        <time>2014-10-20T07:51:47Z</time>
      </trkpt>
      <trkpt lat="45.07067" lon="2.65584">
        <ele>954.25</ele>
        <time>2014-10-20T07:52:08Z</time>
      </trkpt>
      <trkpt lat="45.07081" lon="2.65586">
        <ele>955.21</ele>
        <time>2014-10-20T07:52:23Z</time>
      </trkpt>
      <trkpt lat="45.07091" lon="2.65607">
        <ele>957.61</ele>
        <time>2014-10-20T07:52:41Z</time>
      </trkpt>
      <trkpt lat="45.07093" lon="2.65628">
        <ele>960.98</ele>
        <time>2014-10-20T07:52:58Z</time>
      </trkpt>
      <trkpt lat="45.07101" lon="2.65643">
        <ele>962.9</ele>
        <time>2014-10-20T07:53:14Z</time>
      </trkpt>
      <trkpt lat="45.07114" lon="2.65652">
        <ele>966.26</ele>
        <time>2014-10-20T07:53:34Z</time>
      </trkpt>
      <trkpt lat="45.07128" lon="2.65658">
        <ele>969.15</ele>
        <time>2014-10-20T07:53:53Z</time>
      </trkpt>
      <trkpt lat="45.0713" lon="2.65658">
        <ele>969.15</ele>
        <time>2014-10-20T07:53:55Z</time>
      </trkpt>
      <trkpt lat="45.07144" lon="2.65656">
        <ele>971.55</ele>
        <time>2014-10-20T07:54:10Z</time>
      </trkpt>
      <trkpt lat="45.07157" lon="2.65663">
        <ele>974.43</ele>
        <time>2014-10-20T07:54:30Z</time>
      </trkpt>
      <trkpt lat="45.07167" lon="2.65674">
        <ele>977.32</ele>
        <time>2014-10-20T07:54:46Z</time>
      </trkpt>
      <trkpt lat="45.07181" lon="2.65681">
        <ele>979.72</ele>
        <time>2014-10-20T07:55:02Z</time>
      </trkpt>
      <trkpt lat="45.07191" lon="2.65689">
        <ele>983.09</ele>
        <time>2014-10-20T07:55:16Z</time>
      </trkpt>
      <trkpt lat="45.07206" lon="2.65695">
        <ele>985.01</ele>
        <time>2014-10-20T07:55:33Z</time>
      </trkpt>
      <trkpt lat="45.07211" lon="2.65696">
        <ele>985.01</ele>
        <time>2014-10-20T07:55:37Z</time>
      </trkpt>
      <trkpt lat="45.07226" lon="2.657">
        <ele>988.37</ele>
        <time>2014-10-20T07:55:56Z</time>
      </trkpt>
      <trkpt lat="45.07244" lon="2.6569">
        <ele>990.78</ele>
        <time>2014-10-20T07:56:16Z</time>
      </trkpt>
      <trkpt lat="45.07263" lon="2.6568">
        <ele>993.66</ele>
        <time>2014-10-20T07:56:36Z</time>
      </trkpt>
      <trkpt lat="45.07267" lon="2.65679">
        <ele>994.62</ele>
        <time>2014-10-20T07:56:44Z</time>
      </trkpt>
      <trkpt lat="45.07274" lon="2.65673">
        <ele>996.06</ele>
        <time>2014-10-20T07:57:06Z</time>
      </trkpt>
      <trkpt lat="45.07278" lon="2.65668">
        <ele>995.58</ele>
        <time>2014-10-20T07:57:20Z</time>
      </trkpt>
      <trkpt lat="45.07279" lon="2.65669">
        <ele>993.66</ele>
        <time>2014-10-20T07:57:47Z</time>
      </trkpt>
      <trkpt lat="45.0728" lon="2.65668">
        <ele>996.54</ele>
        <time>2014-10-20T07:58:06Z</time>
      </trkpt>
      <trkpt lat="45.07279" lon="2.65668">
        <ele>996.54</ele>
        <time>2014-10-20T07:58:32Z</time>
      </trkpt>
      <trkpt lat="45.07281" lon="2.65666">
        <ele>996.54</ele>
        <time>2014-10-20T07:59:07Z</time>
      </trkpt>
      <trkpt lat="45.07284" lon="2.65664">
        <ele>997.02</ele>
        <time>2014-10-20T07:59:26Z</time>
      </trkpt>
      <trkpt lat="45.07282" lon="2.65666">
        <ele>997.51</ele>
        <time>2014-10-20T08:00:02Z</time>
      </trkpt>
      <trkpt lat="45.07286" lon="2.65664">
        <ele>999.43</ele>
        <time>2014-10-20T08:00:16Z</time>
      </trkpt>
      <trkpt lat="45.07295" lon="2.6566">
        <ele>1000.87</ele>
        <time>2014-10-20T08:00:31Z</time>
      </trkpt>
      <trkpt lat="45.07298" lon="2.65652">
        <ele>1003.75</ele>
        <time>2014-10-20T08:00:51Z</time>
      </trkpt>
      <trkpt lat="45.07299" lon="2.65638">
        <ele>1005.68</ele>
        <time>2014-10-20T08:01:10Z</time>
      </trkpt>
      <trkpt lat="45.07295" lon="2.65624">
        <ele>1007.6</ele>
        <time>2014-10-20T08:01:26Z</time>
      </trkpt>
      <trkpt lat="45.07288" lon="2.65617">
        <ele>1010.48</ele>
        <time>2014-10-20T08:01:42Z</time>
      </trkpt>
      <trkpt lat="45.07275" lon="2.65604">
        <ele>1013.85</ele>
        <time>2014-10-20T08:02:01Z</time>
      </trkpt>
      <trkpt lat="45.07266" lon="2.65594">
        <ele>1016.25</ele>
        <time>2014-10-20T08:02:17Z</time>
      </trkpt>
      <trkpt lat="45.07255" lon="2.65586">
        <ele>1019.62</ele>
        <time>2014-10-20T08:02:34Z</time>
      </trkpt>
      <trkpt lat="45.07256" lon="2.65582">
        <ele>1022.5</ele>
        <time>2014-10-20T08:02:53Z</time>
      </trkpt>
      <trkpt lat="45.0726" lon="2.65581">
        <ele>1023.46</ele>
        <time>2014-10-20T08:02:58Z</time>
      </trkpt>
      <trkpt lat="45.07263" lon="2.65574">
        <ele>1026.34</ele>
        <time>2014-10-20T08:03:15Z</time>
      </trkpt>
      <trkpt lat="45.07271" lon="2.65568">
        <ele>1029.23</ele>
        <time>2014-10-20T08:03:30Z</time>
      </trkpt>
      <trkpt lat="45.07276" lon="2.65561">
        <ele>1031.63</ele>
        <time>2014-10-20T08:03:43Z</time>
      </trkpt>
      <trkpt lat="45.07281" lon="2.65554">
        <ele>1035</ele>
        <time>2014-10-20T08:03:59Z</time>
      </trkpt>
      <trkpt lat="45.07285" lon="2.65548">
        <ele>1037.88</ele>
        <time>2014-10-20T08:04:15Z</time>
      </trkpt>
      <trkpt lat="45.0729" lon="2.6554">
        <ele>1040.28</ele>
        <time>2014-10-20T08:04:29Z</time>
      </trkpt>
      <trkpt lat="45.07295" lon="2.65531">
        <ele>1043.65</ele>
        <time>2014-10-20T08:04:48Z</time>
      </trkpt>
      <trkpt lat="45.07303" lon="2.65521">
        <ele>1046.53</ele>
        <time>2014-10-20T08:05:05Z</time>
      </trkpt>
      <trkpt lat="45.07311" lon="2.65511">
        <ele>1049.42</ele>
        <time>2014-10-20T08:05:21Z</time>
      </trkpt>
      <trkpt lat="45.07313" lon="2.65502">
        <ele>1051.34</ele>
        <time>2014-10-20T08:05:43Z</time>
      </trkpt>
      <trkpt lat="45.0731" lon="2.65485">
        <ele>1052.78</ele>
        <time>2014-10-20T08:06:02Z</time>
      </trkpt>
      <trkpt lat="45.07307" lon="2.65475">
        <ele>1054.7</ele>
        <time>2014-10-20T08:06:20Z</time>
      </trkpt>
      <trkpt lat="45.07302" lon="2.65459">
        <ele>1055.18</ele>
        <time>2014-10-20T08:06:34Z</time>
      </trkpt>
      <trkpt lat="45.07296" lon="2.65449">
        <ele>1055.18</ele>
        <time>2014-10-20T08:06:42Z</time>
      </trkpt>
      <trkpt lat="45.07292" lon="2.65436">
        <ele>1058.55</ele>
        <time>2014-10-20T08:07:00Z</time>
      </trkpt>
      <trkpt lat="45.07291" lon="2.65417">
        <ele>1061.43</ele>
        <time>2014-10-20T08:07:16Z</time>
      </trkpt>
      <trkpt lat="45.07294" lon="2.6539">
        <ele>1062.87</ele>
        <time>2014-10-20T08:07:29Z</time>
      </trkpt>
      <trkpt lat="45.0729" lon="2.65374">
        <ele>1066.24</ele>
        <time>2014-10-20T08:07:46Z</time>
      </trkpt>
      <trkpt lat="45.07285" lon="2.65361">
        <ele>1069.6</ele>
        <time>2014-10-20T08:08:02Z</time>
      </trkpt>
      <trkpt lat="45.0728" lon="2.65354">
        <ele>1072.49</ele>
        <time>2014-10-20T08:08:19Z</time>
      </trkpt>
      <trkpt lat="45.0727" lon="2.65344">
        <ele>1075.37</ele>
        <time>2014-10-20T08:08:37Z</time>
      </trkpt>
      <trkpt lat="45.07264" lon="2.65335">
        <ele>1078.74</ele>
        <time>2014-10-20T08:08:55Z</time>
      </trkpt>
      <trkpt lat="45.07263" lon="2.65332">
        <ele>1078.74</ele>
        <time>2014-10-20T08:08:58Z</time>
      </trkpt>
      <trkpt lat="45.07259" lon="2.6532">
        <ele>1082.1</ele>
        <time>2014-10-20T08:09:14Z</time>
      </trkpt>
      <trkpt lat="45.07257" lon="2.65317">
        <ele>1081.62</ele>
        <time>2014-10-20T08:09:33Z</time>
      </trkpt>
      <trkpt lat="45.07257" lon="2.65316">
        <ele>1081.14</ele>
        <time>2014-10-20T08:10:24Z</time>
      </trkpt>
      <trkpt lat="45.07257" lon="2.65316">
        <ele>1070.57</ele>
        <time>2014-10-20T08:10:39Z</time>
      </trkpt>
      <trkpt lat="45.07257" lon="2.65316">
        <ele>1082.58</ele>
        <time>2014-10-20T08:10:40Z</time>
      </trkpt>
      <trkpt lat="45.07257" lon="2.65316">
        <ele>1077.29</ele>
        <time>2014-10-20T08:10:42Z</time>
      </trkpt>
      <trkpt lat="45.07256" lon="2.65316">
        <ele>1082.1</ele>
        <time>2014-10-20T08:10:43Z</time>
      </trkpt>
      <trkpt lat="45.07256" lon="2.65316">
        <ele>1078.74</ele>
        <time>2014-10-20T08:10:45Z</time>
      </trkpt>
      <trkpt lat="45.07256" lon="2.65316">
        <ele>1082.1</ele>
        <time>2014-10-20T08:10:46Z</time>
      </trkpt>
      <trkpt lat="45.07256" lon="2.65316">
        <ele>1074.41</ele>
        <time>2014-10-20T08:10:47Z</time>
      </trkpt>
      <trkpt lat="45.07256" lon="2.65316">
        <ele>1082.58</ele>
        <time>2014-10-20T08:10:48Z</time>
      </trkpt>
      <trkpt lat="45.07256" lon="2.65316">
        <ele>1086.43</ele>
        <time>2014-10-20T08:10:49Z</time>
      </trkpt>
      <trkpt lat="45.07256" lon="2.65316">
        <ele>1092.68</ele>
        <time>2014-10-20T08:10:50Z</time>
      </trkpt>
      <trkpt lat="45.07256" lon="2.65316">
        <ele>1082.1</ele>
        <time>2014-10-20T08:10:51Z</time>
      </trkpt>
      <trkpt lat="45.07256" lon="2.65316">
        <ele>1082.1</ele>
        <time>2014-10-20T08:10:52Z</time>
      </trkpt>
      <trkpt lat="45.07256" lon="2.65316">
        <ele>1089.31</ele>
        <time>2014-10-20T08:10:53Z</time>
      </trkpt>
      <trkpt lat="45.07256" lon="2.65316">
        <ele>1082.1</ele>
        <time>2014-10-20T08:10:54Z</time>
      </trkpt>
      <trkpt lat="45.07256" lon="2.65316">
        <ele>1079.22</ele>
        <time>2014-10-20T08:10:59Z</time>
      </trkpt>
      <trkpt lat="45.07256" lon="2.65316">
        <ele>1082.58</ele>
        <time>2014-10-20T08:11:00Z</time>
      </trkpt>
      <trkpt lat="45.07256" lon="2.65316">
        <ele>1072.01</ele>
        <time>2014-10-20T08:11:02Z</time>
      </trkpt>
      <trkpt lat="45.07256" lon="2.65316">
        <ele>1073.93</ele>
        <time>2014-10-20T08:11:03Z</time>
      </trkpt>
      <trkpt lat="45.07256" lon="2.65316">
        <ele>1082.58</ele>
        <time>2014-10-20T08:11:04Z</time>
      </trkpt>
      <trkpt lat="45.07256" lon="2.65316">
        <ele>1081.62</ele>
        <time>2014-10-20T08:11:05Z</time>
      </trkpt>
      <trkpt lat="45.07256" lon="2.65316">
        <ele>1073.93</ele>
        <time>2014-10-20T08:11:07Z</time>
      </trkpt>
      <trkpt lat="45.07256" lon="2.65316">
        <ele>1084.99</ele>
        <time>2014-10-20T08:11:08Z</time>
      </trkpt>
      <trkpt lat="45.07256" lon="2.65316">
        <ele>1081.62</ele>
        <time>2014-10-20T08:11:10Z</time>
      </trkpt>
      <trkpt lat="45.07255" lon="2.65316">
        <ele>1085.47</ele>
        <time>2014-10-20T08:11:19Z</time>
      </trkpt>
      <trkpt lat="45.07255" lon="2.65316">
        <ele>1077.29</ele>
        <time>2014-10-20T08:11:20Z</time>
      </trkpt>
      <trkpt lat="45.07255" lon="2.65316">
        <ele>1082.1</ele>
        <time>2014-10-20T08:11:21Z</time>
      </trkpt>
      <trkpt lat="45.07255" lon="2.65315">
        <ele>1080.18</ele>
        <time>2014-10-20T08:11:42Z</time>
      </trkpt>
      <trkpt lat="45.07255" lon="2.65315">
        <ele>1082.58</ele>
        <time>2014-10-20T08:11:49Z</time>
      </trkpt>
      <trkpt lat="45.07256" lon="2.65315">
        <ele>1081.14</ele>
        <time>2014-10-20T08:12:25Z</time>
      </trkpt>
      <trkpt lat="45.07256" lon="2.65316">
        <ele>1081.14</ele>
        <time>2014-10-20T08:13:05Z</time>
      </trkpt>
      <trkpt lat="45.07257" lon="2.65316">
        <ele>1081.14</ele>
        <time>2014-10-20T08:13:51Z</time>
      </trkpt>
      <trkpt lat="45.07257" lon="2.65315">
        <ele>1081.14</ele>
        <time>2014-10-20T08:14:32Z</time>
      </trkpt>
      <trkpt lat="45.07256" lon="2.65316">
        <ele>1079.7</ele>
        <time>2014-10-20T08:15:15Z</time>
      </trkpt>
      <trkpt lat="45.07256" lon="2.65317">
        <ele>1081.14</ele>
        <time>2014-10-20T08:15:37Z</time>
      </trkpt>
      <trkpt lat="45.07256" lon="2.65316">
        <ele>1080.66</ele>
        <time>2014-10-20T08:16:08Z</time>
      </trkpt>
      <trkpt lat="45.07256" lon="2.65316">
        <ele>1081.14</ele>
        <time>2014-10-20T08:16:18Z</time>
      </trkpt>
      <trkpt lat="45.07257" lon="2.65313">
        <ele>1082.1</ele>
        <time>2014-10-20T08:16:34Z</time>
      </trkpt>
      <trkpt lat="45.07257" lon="2.65311">
        <ele>1082.58</ele>
        <time>2014-10-20T08:16:36Z</time>
      </trkpt>
      <trkpt lat="45.07259" lon="2.65301">
        <ele>1083.54</ele>
        <time>2014-10-20T08:16:44Z</time>
      </trkpt>
      <trkpt lat="45.07263" lon="2.65292">
        <ele>1085.47</ele>
        <time>2014-10-20T08:17:02Z</time>
      </trkpt>
      <trkpt lat="45.07263" lon="2.65292">
        <ele>1084.99</ele>
        <time>2014-10-20T08:17:05Z</time>
      </trkpt>
      <trkpt lat="45.07265" lon="2.65289">
        <ele>1085.47</ele>
        <time>2014-10-20T08:17:07Z</time>
      </trkpt>
      <trkpt lat="45.0727" lon="2.65277">
        <ele>1086.43</ele>
        <time>2014-10-20T08:17:17Z</time>
      </trkpt>
      <trkpt lat="45.07273" lon="2.65273">
        <ele>1086.43</ele>
        <time>2014-10-20T08:17:22Z</time>
      </trkpt>
      <trkpt lat="45.07291" lon="2.65253">
        <ele>1088.35</ele>
        <time>2014-10-20T08:17:42Z</time>
      </trkpt>
      <trkpt lat="45.07304" lon="2.65238">
        <ele>1089.79</ele>
        <time>2014-10-20T08:17:58Z</time>
      </trkpt>
      <trkpt lat="45.07325" lon="2.65231">
        <ele>1092.68</ele>
        <time>2014-10-20T08:18:21Z</time>
      </trkpt>
      <trkpt lat="45.07329" lon="2.65233">
        <ele>1092.68</ele>
        <time>2014-10-20T08:18:43Z</time>
      </trkpt>
      <trkpt lat="45.07331" lon="2.65234">
        <ele>1092.68</ele>
        <time>2014-10-20T08:18:45Z</time>
      </trkpt>
      <trkpt lat="45.07355" lon="2.65249">
        <ele>1093.64</ele>
        <time>2014-10-20T08:19:07Z</time>
      </trkpt>
      <trkpt lat="45.0737" lon="2.65268">
        <ele>1096.52</ele>
        <time>2014-10-20T08:19:27Z</time>
      </trkpt>
      <trkpt lat="45.07374" lon="2.65274">
        <ele>1098.92</ele>
        <time>2014-10-20T08:19:34Z</time>
      </trkpt>
      <trkpt lat="45.07383" lon="2.65283">
        <ele>1101.81</ele>
        <time>2014-10-20T08:19:49Z</time>
      </trkpt>
      <trkpt lat="45.07394" lon="2.6529">
        <ele>1103.73</ele>
        <time>2014-10-20T08:20:02Z</time>
      </trkpt>
      <trkpt lat="45.07402" lon="2.65299">
        <ele>1105.65</ele>
        <time>2014-10-20T08:20:14Z</time>
      </trkpt>
      <trkpt lat="45.07409" lon="2.6531">
        <ele>1107.1</ele>
        <time>2014-10-20T08:20:21Z</time>
      </trkpt>
      <trkpt lat="45.07423" lon="2.65339">
        <ele>1108.54</ele>
        <time>2014-10-20T08:20:43Z</time>
      </trkpt>
      <trkpt lat="45.07444" lon="2.6535">
        <ele>1109.5</ele>
        <time>2014-10-20T08:21:03Z</time>
      </trkpt>
      <trkpt lat="45.07466" lon="2.65366">
        <ele>1111.9</ele>
        <time>2014-10-20T08:21:24Z</time>
      </trkpt>
      <trkpt lat="45.07474" lon="2.65368">
        <ele>1112.38</ele>
        <time>2014-10-20T08:21:31Z</time>
      </trkpt>
      <trkpt lat="45.07496" lon="2.65377">
        <ele>1115.27</ele>
        <time>2014-10-20T08:21:53Z</time>
      </trkpt>
      <trkpt lat="45.07506" lon="2.65388">
        <ele>1116.71</ele>
        <time>2014-10-20T08:22:04Z</time>
      </trkpt>
      <trkpt lat="45.07512" lon="2.65394">
        <ele>1117.67</ele>
        <time>2014-10-20T08:22:12Z</time>
      </trkpt>
      <trkpt lat="45.07523" lon="2.65407">
        <ele>1121.52</ele>
        <time>2014-10-20T08:22:29Z</time>
      </trkpt>
      <trkpt lat="45.07532" lon="2.65413">
        <ele>1123.92</ele>
        <time>2014-10-20T08:22:46Z</time>
      </trkpt>
      <trkpt lat="45.07541" lon="2.65419">
        <ele>1126.8</ele>
        <time>2014-10-20T08:23:03Z</time>
      </trkpt>
      <trkpt lat="45.07549" lon="2.65426">
        <ele>1129.69</ele>
        <time>2014-10-20T08:23:21Z</time>
      </trkpt>
      <trkpt lat="45.07553" lon="2.65429">
        <ele>1132.09</ele>
        <time>2014-10-20T08:23:34Z</time>
      </trkpt>
      <trkpt lat="45.07568" lon="2.65431">
        <ele>1135.45</ele>
        <time>2014-10-20T08:23:54Z</time>
      </trkpt>
      <trkpt lat="45.07578" lon="2.65429">
        <ele>1137.86</ele>
        <time>2014-10-20T08:24:10Z</time>
      </trkpt>
      <trkpt lat="45.07588" lon="2.65423">
        <ele>1140.74</ele>
        <time>2014-10-20T08:24:27Z</time>
      </trkpt>
      <trkpt lat="45.076" lon="2.65423">
        <ele>1143.63</ele>
        <time>2014-10-20T08:24:45Z</time>
      </trkpt>
      <trkpt lat="45.07613" lon="2.65426">
        <ele>1146.51</ele>
        <time>2014-10-20T08:25:03Z</time>
      </trkpt>
      <trkpt lat="45.07623" lon="2.65434">
        <ele>1149.87</ele>
        <time>2014-10-20T08:25:21Z</time>
      </trkpt>
      <trkpt lat="45.07625" lon="2.65435">
        <ele>1149.39</ele>
        <time>2014-10-20T08:25:23Z</time>
      </trkpt>
      <trkpt lat="45.07631" lon="2.65436">
        <ele>1151.32</ele>
        <time>2014-10-20T08:25:31Z</time>
      </trkpt>
      <trkpt lat="45.07648" lon="2.6544">
        <ele>1153.72</ele>
        <time>2014-10-20T08:25:49Z</time>
      </trkpt>
      <trkpt lat="45.07669" lon="2.65436">
        <ele>1155.16</ele>
        <time>2014-10-20T08:26:10Z</time>
      </trkpt>
      <trkpt lat="45.07689" lon="2.6543">
        <ele>1158.05</ele>
        <time>2014-10-20T08:26:31Z</time>
      </trkpt>
      <trkpt lat="45.07707" lon="2.65427">
        <ele>1160.93</ele>
        <time>2014-10-20T08:26:51Z</time>
      </trkpt>
      <trkpt lat="45.07721" lon="2.65422">
        <ele>1164.29</ele>
        <time>2014-10-20T08:27:08Z</time>
      </trkpt>
      <trkpt lat="45.07726" lon="2.6542">
        <ele>1164.77</ele>
        <time>2014-10-20T08:27:14Z</time>
      </trkpt>
      <trkpt lat="45.0774" lon="2.65418">
        <ele>1168.14</ele>
        <time>2014-10-20T08:27:34Z</time>
      </trkpt>
      <trkpt lat="45.07752" lon="2.65417">
        <ele>1170.54</ele>
        <time>2014-10-20T08:27:50Z</time>
      </trkpt>
      <trkpt lat="45.07759" lon="2.65414">
        <ele>1171.98</ele>
        <time>2014-10-20T08:27:58Z</time>
      </trkpt>
      <trkpt lat="45.07766" lon="2.65413">
        <ele>1172.95</ele>
        <time>2014-10-20T08:28:07Z</time>
      </trkpt>
      <trkpt lat="45.07783" lon="2.6541">
        <ele>1173.91</ele>
        <time>2014-10-20T08:28:25Z</time>
      </trkpt>
      <trkpt lat="45.07804" lon="2.65404">
        <ele>1175.83</ele>
        <time>2014-10-20T08:28:47Z</time>
      </trkpt>
      <trkpt lat="45.07819" lon="2.65403">
        <ele>1177.27</ele>
        <time>2014-10-20T08:29:07Z</time>
      </trkpt>
      <trkpt lat="45.07838" lon="2.65417">
        <ele>1179.67</ele>
        <time>2014-10-20T08:29:28Z</time>
      </trkpt>
      <trkpt lat="45.07844" lon="2.65422">
        <ele>1180.64</ele>
        <time>2014-10-20T08:29:36Z</time>
      </trkpt>
      <trkpt lat="45.0786" lon="2.65435">
        <ele>1182.08</ele>
        <time>2014-10-20T08:29:56Z</time>
      </trkpt>
      <trkpt lat="45.07867" lon="2.65438">
        <ele>1183.52</ele>
        <time>2014-10-20T08:30:02Z</time>
      </trkpt>
      <trkpt lat="45.07884" lon="2.65449">
        <ele>1185.92</ele>
        <time>2014-10-20T08:30:23Z</time>
      </trkpt>
      <trkpt lat="45.07885" lon="2.65449">
        <ele>1185.92</ele>
        <time>2014-10-20T08:30:25Z</time>
      </trkpt>
      <trkpt lat="45.0789" lon="2.6545">
        <ele>1186.4</ele>
        <time>2014-10-20T08:30:30Z</time>
      </trkpt>
      <trkpt lat="45.07902" lon="2.65454">
        <ele>1188.33</ele>
        <time>2014-10-20T08:30:47Z</time>
      </trkpt>
      <trkpt lat="45.0792" lon="2.65455">
        <ele>1188.81</ele>
        <time>2014-10-20T08:31:07Z</time>
      </trkpt>
      <trkpt lat="45.07938" lon="2.65456">
        <ele>1187.37</ele>
        <time>2014-10-20T08:31:26Z</time>
      </trkpt>
      <trkpt lat="45.07953" lon="2.65458">
        <ele>1186.4</ele>
        <time>2014-10-20T08:31:37Z</time>
      </trkpt>
      <trkpt lat="45.07972" lon="2.65453">
        <ele>1183.52</ele>
        <time>2014-10-20T08:31:53Z</time>
      </trkpt>
      <trkpt lat="45.07984" lon="2.65449">
        <ele>1181.6</ele>
        <time>2014-10-20T08:32:08Z</time>
      </trkpt>
      <trkpt lat="45.07991" lon="2.65444">
        <ele>1180.64</ele>
        <time>2014-10-20T08:32:16Z</time>
      </trkpt>
      <trkpt lat="45.08003" lon="2.65434">
        <ele>1179.67</ele>
        <time>2014-10-20T08:32:32Z</time>
      </trkpt>
      <trkpt lat="45.08017" lon="2.65426">
        <ele>1177.27</ele>
        <time>2014-10-20T08:32:52Z</time>
      </trkpt>
      <trkpt lat="45.08031" lon="2.65419">
        <ele>1175.35</ele>
        <time>2014-10-20T08:33:07Z</time>
      </trkpt>
      <trkpt lat="45.0804" lon="2.65412">
        <ele>1174.87</ele>
        <time>2014-10-20T08:33:14Z</time>
      </trkpt>
      <trkpt lat="45.08055" lon="2.65398">
        <ele>1175.35</ele>
        <time>2014-10-20T08:33:31Z</time>
      </trkpt>
      <trkpt lat="45.08066" lon="2.65393">
        <ele>1175.83</ele>
        <time>2014-10-20T08:33:51Z</time>
      </trkpt>
      <trkpt lat="45.08077" lon="2.65391">
        <ele>1175.83</ele>
        <time>2014-10-20T08:33:59Z</time>
      </trkpt>
      <trkpt lat="45.08084" lon="2.6539">
        <ele>1176.31</ele>
        <time>2014-10-20T08:34:04Z</time>
      </trkpt>
      <trkpt lat="45.08089" lon="2.65389">
        <ele>1176.31</ele>
        <time>2014-10-20T08:34:07Z</time>
      </trkpt>
      <trkpt lat="45.08098" lon="2.65387">
        <ele>1175.83</ele>
        <time>2014-10-20T08:34:17Z</time>
      </trkpt>
      <trkpt lat="45.08109" lon="2.65384">
        <ele>1175.35</ele>
        <time>2014-10-20T08:34:25Z</time>
      </trkpt>
      <trkpt lat="45.08126" lon="2.65376">
        <ele>1175.35</ele>
        <time>2014-10-20T08:34:41Z</time>
      </trkpt>
      <trkpt lat="45.0813" lon="2.65372">
        <ele>1178.71</ele>
        <time>2014-10-20T08:35:01Z</time>
      </trkpt>
      <trkpt lat="45.08157" lon="2.65376">
        <ele>1181.6</ele>
        <time>2014-10-20T08:35:22Z</time>
      </trkpt>
      <trkpt lat="45.0816" lon="2.65378">
        <ele>1181.6</ele>
        <time>2014-10-20T08:35:25Z</time>
      </trkpt>
      <trkpt lat="45.08164" lon="2.6538">
        <ele>1181.6</ele>
        <time>2014-10-20T08:35:30Z</time>
      </trkpt>
      <trkpt lat="45.08171" lon="2.65383">
        <ele>1175.35</ele>
        <time>2014-10-20T08:35:48Z</time>
      </trkpt>
      <trkpt lat="45.08171" lon="2.65383">
        <ele>1178.71</ele>
        <time>2014-10-20T08:35:49Z</time>
      </trkpt>
      <trkpt lat="45.08171" lon="2.65383">
        <ele>1182.08</ele>
        <time>2014-10-20T08:35:50Z</time>
      </trkpt>
      <trkpt lat="45.08171" lon="2.65383">
        <ele>1185.92</ele>
        <time>2014-10-20T08:35:51Z</time>
      </trkpt>
      <trkpt lat="45.08171" lon="2.65384">
        <ele>1177.75</ele>
        <time>2014-10-20T08:35:53Z</time>
      </trkpt>
      <trkpt lat="45.08171" lon="2.65384">
        <ele>1185.44</ele>
        <time>2014-10-20T08:35:54Z</time>
      </trkpt>
      <trkpt lat="45.08171" lon="2.65384">
        <ele>1185.92</ele>
        <time>2014-10-20T08:35:55Z</time>
      </trkpt>
      <trkpt lat="45.08171" lon="2.65384">
        <ele>1181.6</ele>
        <time>2014-10-20T08:35:56Z</time>
      </trkpt>
      <trkpt lat="45.08171" lon="2.65385">
        <ele>1183.52</ele>
        <time>2014-10-20T08:35:57Z</time>
      </trkpt>
      <trkpt lat="45.08171" lon="2.65385">
        <ele>1181.6</ele>
        <time>2014-10-20T08:35:59Z</time>
      </trkpt>
      <trkpt lat="45.08171" lon="2.65386">
        <ele>1190.73</ele>
        <time>2014-10-20T08:36:13Z</time>
      </trkpt>
      <trkpt lat="45.08171" lon="2.65386">
        <ele>1181.12</ele>
        <time>2014-10-20T08:36:14Z</time>
      </trkpt>
      <trkpt lat="45.08171" lon="2.65386">
        <ele>1186.4</ele>
        <time>2014-10-20T08:36:16Z</time>
      </trkpt>
      <trkpt lat="45.08171" lon="2.65386">
        <ele>1183.04</ele>
        <time>2014-10-20T08:36:17Z</time>
      </trkpt>
      <trkpt lat="45.0817" lon="2.65387">
        <ele>1174.87</ele>
        <time>2014-10-20T08:36:20Z</time>
      </trkpt>
      <trkpt lat="45.0817" lon="2.65387">
        <ele>1182.08</ele>
        <time>2014-10-20T08:36:21Z</time>
      </trkpt>
      <trkpt lat="45.0817" lon="2.65387">
        <ele>1177.75</ele>
        <time>2014-10-20T08:36:26Z</time>
      </trkpt>
      <trkpt lat="45.0817" lon="2.65387">
        <ele>1182.56</ele>
        <time>2014-10-20T08:36:27Z</time>
      </trkpt>
      <trkpt lat="45.0817" lon="2.65387">
        <ele>1189.77</ele>
        <time>2014-10-20T08:36:29Z</time>
      </trkpt>
      <trkpt lat="45.0817" lon="2.65387">
        <ele>1188.81</ele>
        <time>2014-10-20T08:36:30Z</time>
      </trkpt>
      <trkpt lat="45.0817" lon="2.65386">
        <ele>1178.71</ele>
        <time>2014-10-20T08:36:31Z</time>
      </trkpt>
      <trkpt lat="45.0817" lon="2.65386">
        <ele>1175.35</ele>
        <time>2014-10-20T08:36:32Z</time>
      </trkpt>
      <trkpt lat="45.0817" lon="2.65386">
        <ele>1182.08</ele>
        <time>2014-10-20T08:36:33Z</time>
      </trkpt>
      <trkpt lat="45.0817" lon="2.65386">
        <ele>1181.6</ele>
        <time>2014-10-20T08:36:34Z</time>
      </trkpt>
      <trkpt lat="45.0817" lon="2.65386">
        <ele>1186.88</ele>
        <time>2014-10-20T08:36:35Z</time>
      </trkpt>
      <trkpt lat="45.0817" lon="2.65386">
        <ele>1182.08</ele>
        <time>2014-10-20T08:36:36Z</time>
      </trkpt>
      <trkpt lat="45.08171" lon="2.65389">
        <ele>1182.08</ele>
        <time>2014-10-20T08:36:56Z</time>
      </trkpt>
      <trkpt lat="45.08169" lon="2.65389">
        <ele>1182.08</ele>
        <time>2014-10-20T08:36:59Z</time>
      </trkpt>
      <trkpt lat="45.08166" lon="2.6539">
        <ele>1181.6</ele>
        <time>2014-10-20T08:37:04Z</time>
      </trkpt>
      <trkpt lat="45.08162" lon="2.65388">
        <ele>1181.6</ele>
        <time>2014-10-20T08:37:10Z</time>
      </trkpt>
      <trkpt lat="45.08145" lon="2.6538">
        <ele>1178.23</ele>
        <time>2014-10-20T08:37:30Z</time>
      </trkpt>
      <trkpt lat="45.08136" lon="2.65376">
        <ele>1175.83</ele>
        <time>2014-10-20T08:37:52Z</time>
      </trkpt>
      <trkpt lat="45.08134" lon="2.65379">
        <ele>1175.83</ele>
        <time>2014-10-20T08:38:29Z</time>
      </trkpt>
      <trkpt lat="45.08134" lon="2.65379">
        <ele>1177.27</ele>
        <time>2014-10-20T08:38:43Z</time>
      </trkpt>
      <trkpt lat="45.08134" lon="2.65379">
        <ele>1174.87</ele>
        <time>2014-10-20T08:38:44Z</time>
      </trkpt>
      <trkpt lat="45.08133" lon="2.65379">
        <ele>1176.31</ele>
        <time>2014-10-20T08:38:45Z</time>
      </trkpt>
      <trkpt lat="45.08134" lon="2.65379">
        <ele>1172.47</ele>
        <time>2014-10-20T08:38:46Z</time>
      </trkpt>
      <trkpt lat="45.08133" lon="2.65379">
        <ele>1175.83</ele>
        <time>2014-10-20T08:38:47Z</time>
      </trkpt>
      <trkpt lat="45.08134" lon="2.65379">
        <ele>1180.16</ele>
        <time>2014-10-20T08:38:49Z</time>
      </trkpt>
      <trkpt lat="45.08134" lon="2.65379">
        <ele>1171.5</ele>
        <time>2014-10-20T08:38:50Z</time>
      </trkpt>
      <trkpt lat="45.08133" lon="2.65379">
        <ele>1176.31</ele>
        <time>2014-10-20T08:38:51Z</time>
      </trkpt>
      <trkpt lat="45.08133" lon="2.65379">
        <ele>1171.02</ele>
        <time>2014-10-20T08:38:52Z</time>
      </trkpt>
      <trkpt lat="45.08133" lon="2.65379">
        <ele>1179.19</ele>
        <time>2014-10-20T08:38:53Z</time>
      </trkpt>
      <trkpt lat="45.08133" lon="2.6538">
        <ele>1169.58</ele>
        <time>2014-10-20T08:38:56Z</time>
      </trkpt>
      <trkpt lat="45.08133" lon="2.6538">
        <ele>1165.74</ele>
        <time>2014-10-20T08:38:57Z</time>
      </trkpt>
      <trkpt lat="45.08133" lon="2.6538">
        <ele>1176.31</ele>
        <time>2014-10-20T08:38:58Z</time>
      </trkpt>
      <trkpt lat="45.08133" lon="2.6538">
        <ele>1171.02</ele>
        <time>2014-10-20T08:38:59Z</time>
      </trkpt>
      <trkpt lat="45.08133" lon="2.6538">
        <ele>1180.64</ele>
        <time>2014-10-20T08:39:00Z</time>
      </trkpt>
      <trkpt lat="45.08133" lon="2.6538">
        <ele>1176.79</ele>
        <time>2014-10-20T08:39:01Z</time>
      </trkpt>
      <trkpt lat="45.08133" lon="2.6538">
        <ele>1174.39</ele>
        <time>2014-10-20T08:39:02Z</time>
      </trkpt>
      <trkpt lat="45.08133" lon="2.6538">
        <ele>1176.79</ele>
        <time>2014-10-20T08:39:03Z</time>
      </trkpt>
      <trkpt lat="45.08133" lon="2.6538">
        <ele>1172.95</ele>
        <time>2014-10-20T08:39:05Z</time>
      </trkpt>
      <trkpt lat="45.08133" lon="2.6538">
        <ele>1178.71</ele>
        <time>2014-10-20T08:39:06Z</time>
      </trkpt>
      <trkpt lat="45.08133" lon="2.6538">
        <ele>1174.87</ele>
        <time>2014-10-20T08:39:07Z</time>
      </trkpt>
      <trkpt lat="45.08133" lon="2.6538">
        <ele>1169.58</ele>
        <time>2014-10-20T08:39:08Z</time>
      </trkpt>
      <trkpt lat="45.08133" lon="2.6538">
        <ele>1177.27</ele>
        <time>2014-10-20T08:39:09Z</time>
      </trkpt>
      <trkpt lat="45.08133" lon="2.6538">
        <ele>1175.35</ele>
        <time>2014-10-20T08:39:10Z</time>
      </trkpt>
      <trkpt lat="45.08133" lon="2.65378">
        <ele>1181.12</ele>
        <time>2014-10-20T08:39:52Z</time>
      </trkpt>
      <trkpt lat="45.08133" lon="2.65378">
        <ele>1175.83</ele>
        <time>2014-10-20T08:39:53Z</time>
      </trkpt>
      <trkpt lat="45.08133" lon="2.65378">
        <ele>1184.48</ele>
        <time>2014-10-20T08:39:55Z</time>
      </trkpt>
      <trkpt lat="45.08133" lon="2.65378">
        <ele>1159.01</ele>
        <time>2014-10-20T08:39:56Z</time>
      </trkpt>
      <trkpt lat="45.08133" lon="2.65378">
        <ele>1164.29</ele>
        <time>2014-10-20T08:39:57Z</time>
      </trkpt>
      <trkpt lat="45.08133" lon="2.65378">
        <ele>1177.27</ele>
        <time>2014-10-20T08:39:58Z</time>
      </trkpt>
      <trkpt lat="45.08133" lon="2.65378">
        <ele>1168.62</ele>
        <time>2014-10-20T08:39:59Z</time>
      </trkpt>
      <trkpt lat="45.08133" lon="2.65378">
        <ele>1182.08</ele>
        <time>2014-10-20T08:40:00Z</time>
      </trkpt>
      <trkpt lat="45.08133" lon="2.65378">
        <ele>1171.5</ele>
        <time>2014-10-20T08:40:01Z</time>
      </trkpt>
      <trkpt lat="45.08133" lon="2.65378">
        <ele>1176.31</ele>
        <time>2014-10-20T08:40:02Z</time>
      </trkpt>
      <trkpt lat="45.08133" lon="2.65378">
        <ele>1171.5</ele>
        <time>2014-10-20T08:40:04Z</time>
      </trkpt>
      <trkpt lat="45.08133" lon="2.65378">
        <ele>1176.79</ele>
        <time>2014-10-20T08:40:05Z</time>
      </trkpt>
      <trkpt lat="45.08133" lon="2.65378">
        <ele>1183.52</ele>
        <time>2014-10-20T08:40:08Z</time>
      </trkpt>
      <trkpt lat="45.08133" lon="2.65378">
        <ele>1176.31</ele>
        <time>2014-10-20T08:40:09Z</time>
      </trkpt>
      <trkpt lat="45.08133" lon="2.65377">
        <ele>1181.12</ele>
        <time>2014-10-20T08:40:15Z</time>
      </trkpt>
      <trkpt lat="45.08133" lon="2.65377">
        <ele>1171.98</ele>
        <time>2014-10-20T08:40:20Z</time>
      </trkpt>
      <trkpt lat="45.08133" lon="2.65377">
        <ele>1176.79</ele>
        <time>2014-10-20T08:40:21Z</time>
      </trkpt>
      <trkpt lat="45.08133" lon="2.65377">
        <ele>1170.06</ele>
        <time>2014-10-20T08:40:25Z</time>
      </trkpt>
      <trkpt lat="45.08133" lon="2.65377">
        <ele>1176.79</ele>
        <time>2014-10-20T08:40:26Z</time>
      </trkpt>
      <trkpt lat="45.08133" lon="2.65377">
        <ele>1179.67</ele>
        <time>2014-10-20T08:40:30Z</time>
      </trkpt>
      <trkpt lat="45.08133" lon="2.65377">
        <ele>1175.83</ele>
        <time>2014-10-20T08:40:31Z</time>
      </trkpt>
      <trkpt lat="45.08133" lon="2.65377">
        <ele>1175.83</ele>
        <time>2014-10-20T08:40:32Z</time>
      </trkpt>
      <trkpt lat="45.0812" lon="2.65384">
        <ele>1175.83</ele>
        <time>2014-10-20T08:41:04Z</time>
      </trkpt>
      <trkpt lat="45.08103" lon="2.65386">
        <ele>1177.27</ele>
        <time>2014-10-20T08:41:16Z</time>
      </trkpt>
      <trkpt lat="45.08076" lon="2.65392">
        <ele>1176.31</ele>
        <time>2014-10-20T08:41:38Z</time>
      </trkpt>
      <trkpt lat="45.08069" lon="2.65391">
        <ele>1176.31</ele>
        <time>2014-10-20T08:41:57Z</time>
      </trkpt>
      <trkpt lat="45.08066" lon="2.65394">
        <ele>1176.31</ele>
        <time>2014-10-20T08:42:00Z</time>
      </trkpt>
      <trkpt lat="45.08046" lon="2.65416">
        <ele>1178.23</ele>
        <time>2014-10-20T08:42:24Z</time>
      </trkpt>
      <trkpt lat="45.08019" lon="2.65426">
        <ele>1181.6</ele>
        <time>2014-10-20T08:42:42Z</time>
      </trkpt>
      <trkpt lat="45.08001" lon="2.65445">
        <ele>1183.52</ele>
        <time>2014-10-20T08:43:06Z</time>
      </trkpt>
      <trkpt lat="45.07983" lon="2.65449">
        <ele>1186.4</ele>
        <time>2014-10-20T08:43:26Z</time>
      </trkpt>
      <trkpt lat="45.07964" lon="2.65456">
        <ele>1189.77</ele>
        <time>2014-10-20T08:43:41Z</time>
      </trkpt>
      <trkpt lat="45.07954" lon="2.65457">
        <ele>1190.25</ele>
        <time>2014-10-20T08:43:51Z</time>
      </trkpt>
      <trkpt lat="45.0795" lon="2.65458">
        <ele>1202.27</ele>
        <time>2014-10-20T08:43:54Z</time>
      </trkpt>
      <trkpt lat="45.07949" lon="2.65458">
        <ele>1190.73</ele>
        <time>2014-10-20T08:43:55Z</time>
      </trkpt>
      <trkpt lat="45.07948" lon="2.65458">
        <ele>1185.92</ele>
        <time>2014-10-20T08:43:56Z</time>
      </trkpt>
      <trkpt lat="45.07946" lon="2.65457">
        <ele>1189.77</ele>
        <time>2014-10-20T08:43:57Z</time>
      </trkpt>
      <trkpt lat="45.07944" lon="2.65457">
        <ele>1185.44</ele>
        <time>2014-10-20T08:43:59Z</time>
      </trkpt>
      <trkpt lat="45.07943" lon="2.65458">
        <ele>1191.21</ele>
        <time>2014-10-20T08:44:00Z</time>
      </trkpt>
      <trkpt lat="45.07942" lon="2.65458">
        <ele>1183.04</ele>
        <time>2014-10-20T08:44:01Z</time>
      </trkpt>
      <trkpt lat="45.07942" lon="2.65458">
        <ele>1191.69</ele>
        <time>2014-10-20T08:44:02Z</time>
      </trkpt>
      <trkpt lat="45.07922" lon="2.65458">
        <ele>1192.17</ele>
        <time>2014-10-20T08:44:20Z</time>
      </trkpt>
      <trkpt lat="45.07921" lon="2.65458">
        <ele>1195.54</ele>
        <time>2014-10-20T08:44:21Z</time>
      </trkpt>
      <trkpt lat="45.0792" lon="2.65458">
        <ele>1191.21</ele>
        <time>2014-10-20T08:44:22Z</time>
      </trkpt>
      <trkpt lat="45.07909" lon="2.65452">
        <ele>1184.48</ele>
        <time>2014-10-20T08:44:31Z</time>
      </trkpt>
      <trkpt lat="45.07908" lon="2.65452">
        <ele>1191.21</ele>
        <time>2014-10-20T08:44:32Z</time>
      </trkpt>
      <trkpt lat="45.07904" lon="2.65451">
        <ele>1191.21</ele>
        <time>2014-10-20T08:44:35Z</time>
      </trkpt>
      <trkpt lat="45.07898" lon="2.65449">
        <ele>1190.25</ele>
        <time>2014-10-20T08:44:41Z</time>
      </trkpt>
      <trkpt lat="45.0789" lon="2.65448">
        <ele>1189.77</ele>
        <time>2014-10-20T08:44:48Z</time>
      </trkpt>
      <trkpt lat="45.07884" lon="2.65446">
        <ele>1188.81</ele>
        <time>2014-10-20T08:44:53Z</time>
      </trkpt>
      <trkpt lat="45.07881" lon="2.65445">
        <ele>1187.85</ele>
        <time>2014-10-20T08:45:03Z</time>
      </trkpt>
      <trkpt lat="45.0786" lon="2.65425">
        <ele>1184.48</ele>
        <time>2014-10-20T08:45:24Z</time>
      </trkpt>
      <trkpt lat="45.07859" lon="2.65418">
        <ele>1185.44</ele>
        <time>2014-10-20T08:45:34Z</time>
      </trkpt>
      <trkpt lat="45.07867" lon="2.65416">
        <ele>1187.85</ele>
        <time>2014-10-20T08:45:44Z</time>
      </trkpt>
      <trkpt lat="45.07876" lon="2.65414">
        <ele>1191.21</ele>
        <time>2014-10-20T08:46:00Z</time>
      </trkpt>
      <trkpt lat="45.07871" lon="2.65392">
        <ele>1194.58</ele>
        <time>2014-10-20T08:46:18Z</time>
      </trkpt>
      <trkpt lat="45.07863" lon="2.65376">
        <ele>1197.94</ele>
        <time>2014-10-20T08:46:35Z</time>
      </trkpt>
      <trkpt lat="45.0786" lon="2.65373">
        <ele>1200.34</ele>
        <time>2014-10-20T08:46:41Z</time>
      </trkpt>
      <trkpt lat="45.07861" lon="2.65372">
        <ele>1196.02</ele>
        <time>2014-10-20T08:46:44Z</time>
      </trkpt>
      <trkpt lat="45.07861" lon="2.65371">
        <ele>1199.86</ele>
        <time>2014-10-20T08:47:00Z</time>
      </trkpt>
      <trkpt lat="45.0786" lon="2.6537">
        <ele>1198.42</ele>
        <time>2014-10-20T08:47:03Z</time>
      </trkpt>
      <trkpt lat="45.07861" lon="2.65367">
        <ele>1199.38</ele>
        <time>2014-10-20T08:47:07Z</time>
      </trkpt>
      <trkpt lat="45.0786" lon="2.65351">
        <ele>1202.27</ele>
        <time>2014-10-20T08:47:23Z</time>
      </trkpt>
      <trkpt lat="45.0786" lon="2.65341">
        <ele>1204.67</ele>
        <time>2014-10-20T08:47:33Z</time>
      </trkpt>
      <trkpt lat="45.07864" lon="2.65327">
        <ele>1208.03</ele>
        <time>2014-10-20T08:47:53Z</time>
      </trkpt>
      <trkpt lat="45.07871" lon="2.65325">
        <ele>1210.92</ele>
        <time>2014-10-20T08:48:12Z</time>
      </trkpt>
      <trkpt lat="45.07871" lon="2.65329">
        <ele>1212.36</ele>
        <time>2014-10-20T08:48:20Z</time>
      </trkpt>
      <trkpt lat="45.07877" lon="2.65338">
        <ele>1214.28</ele>
        <time>2014-10-20T08:48:32Z</time>
      </trkpt>
      <trkpt lat="45.0789" lon="2.65351">
        <ele>1217.17</ele>
        <time>2014-10-20T08:48:49Z</time>
      </trkpt>
      <trkpt lat="45.079" lon="2.65357">
        <ele>1220.05</ele>
        <time>2014-10-20T08:49:06Z</time>
      </trkpt>
      <trkpt lat="45.07911" lon="2.6537">
        <ele>1223.42</ele>
        <time>2014-10-20T08:49:27Z</time>
      </trkpt>
      <trkpt lat="45.0792" lon="2.65373">
        <ele>1225.82</ele>
        <time>2014-10-20T08:49:43Z</time>
      </trkpt>
      <trkpt lat="45.07932" lon="2.65369">
        <ele>1229.18</ele>
        <time>2014-10-20T08:50:01Z</time>
      </trkpt>
      <trkpt lat="45.07934" lon="2.65365">
        <ele>1230.14</ele>
        <time>2014-10-20T08:50:05Z</time>
      </trkpt>
      <trkpt lat="45.07938" lon="2.65348">
        <ele>1232.55</ele>
        <time>2014-10-20T08:50:22Z</time>
      </trkpt>
      <trkpt lat="45.07942" lon="2.65331">
        <ele>1235.91</ele>
        <time>2014-10-20T08:50:42Z</time>
      </trkpt>
      <trkpt lat="45.07943" lon="2.65317">
        <ele>1238.8</ele>
        <time>2014-10-20T08:50:59Z</time>
      </trkpt>
      <trkpt lat="45.07945" lon="2.65295">
        <ele>1241.68</ele>
        <time>2014-10-20T08:51:20Z</time>
      </trkpt>
      <trkpt lat="45.07949" lon="2.65282">
        <ele>1244.56</ele>
        <time>2014-10-20T08:51:39Z</time>
      </trkpt>
      <trkpt lat="45.07951" lon="2.65271">
        <ele>1247.93</ele>
        <time>2014-10-20T08:51:54Z</time>
      </trkpt>
      <trkpt lat="45.07954" lon="2.65253">
        <ele>1250.81</ele>
        <time>2014-10-20T08:52:12Z</time>
      </trkpt>
      <trkpt lat="45.07966" lon="2.6523">
        <ele>1253.7</ele>
        <time>2014-10-20T08:52:33Z</time>
      </trkpt>
      <trkpt lat="45.07975" lon="2.65206">
        <ele>1256.1</ele>
        <time>2014-10-20T08:52:55Z</time>
      </trkpt>
      <trkpt lat="45.07976" lon="2.65203">
        <ele>1256.58</ele>
        <time>2014-10-20T08:52:58Z</time>
      </trkpt>
      <trkpt lat="45.07981" lon="2.65189">
        <ele>1258.5</ele>
        <time>2014-10-20T08:53:13Z</time>
      </trkpt>
      <trkpt lat="45.0799" lon="2.65172">
        <ele>1261.87</ele>
        <time>2014-10-20T08:53:34Z</time>
      </trkpt>
      <trkpt lat="45.07993" lon="2.65168">
        <ele>1262.83</ele>
        <time>2014-10-20T08:53:57Z</time>
      </trkpt>
      <trkpt lat="45.08002" lon="2.6516">
        <ele>1265.71</ele>
        <time>2014-10-20T08:54:11Z</time>
      </trkpt>
      <trkpt lat="45.08014" lon="2.65145">
        <ele>1268.12</ele>
        <time>2014-10-20T08:54:32Z</time>
      </trkpt>
      <trkpt lat="45.08023" lon="2.65134">
        <ele>1271.48</ele>
        <time>2014-10-20T08:54:52Z</time>
      </trkpt>
      <trkpt lat="45.0803" lon="2.65123">
        <ele>1274.85</ele>
        <time>2014-10-20T08:55:13Z</time>
      </trkpt>
      <trkpt lat="45.08034" lon="2.65113">
        <ele>1277.73</ele>
        <time>2014-10-20T08:55:32Z</time>
      </trkpt>
      <trkpt lat="45.08042" lon="2.65103">
        <ele>1280.61</ele>
        <time>2014-10-20T08:55:51Z</time>
      </trkpt>
      <trkpt lat="45.08046" lon="2.65094">
        <ele>1283.5</ele>
        <time>2014-10-20T08:56:06Z</time>
      </trkpt>
      <trkpt lat="45.08047" lon="2.65094">
        <ele>1283.98</ele>
        <time>2014-10-20T08:56:07Z</time>
      </trkpt>
      <trkpt lat="45.08055" lon="2.65087">
        <ele>1287.34</ele>
        <time>2014-10-20T08:56:26Z</time>
      </trkpt>
      <trkpt lat="45.08062" lon="2.65082">
        <ele>1290.23</ele>
        <time>2014-10-20T08:56:42Z</time>
      </trkpt>
      <trkpt lat="45.0807" lon="2.65077">
        <ele>1293.59</ele>
        <time>2014-10-20T08:57:00Z</time>
      </trkpt>
      <trkpt lat="45.08077" lon="2.65077">
        <ele>1295.51</ele>
        <time>2014-10-20T08:57:20Z</time>
      </trkpt>
      <trkpt lat="45.0808" lon="2.65076">
        <ele>1295.99</ele>
        <time>2014-10-20T08:57:56Z</time>
      </trkpt>
      <trkpt lat="45.08086" lon="2.65061">
        <ele>1299.36</ele>
        <time>2014-10-20T08:58:12Z</time>
      </trkpt>
      <trkpt lat="45.08092" lon="2.65048">
        <ele>1302.72</ele>
        <time>2014-10-20T08:58:32Z</time>
      </trkpt>
      <trkpt lat="45.0809" lon="2.65038">
        <ele>1304.65</ele>
        <time>2014-10-20T08:58:57Z</time>
      </trkpt>
      <trkpt lat="45.0809" lon="2.65037">
        <ele>1310.41</ele>
        <time>2014-10-20T08:59:13Z</time>
      </trkpt>
      <trkpt lat="45.08089" lon="2.65037">
        <ele>1304.65</ele>
        <time>2014-10-20T08:59:14Z</time>
      </trkpt>
      <trkpt lat="45.0809" lon="2.65036">
        <ele>1299.84</ele>
        <time>2014-10-20T08:59:27Z</time>
      </trkpt>
      <trkpt lat="45.0809" lon="2.65035">
        <ele>1302.72</ele>
        <time>2014-10-20T08:59:28Z</time>
      </trkpt>
      <trkpt lat="45.0809" lon="2.65035">
        <ele>1304.65</ele>
        <time>2014-10-20T08:59:30Z</time>
      </trkpt>
      <trkpt lat="45.08089" lon="2.65035">
        <ele>1309.45</ele>
        <time>2014-10-20T08:59:39Z</time>
      </trkpt>
      <trkpt lat="45.08089" lon="2.65035">
        <ele>1307.53</ele>
        <time>2014-10-20T08:59:40Z</time>
      </trkpt>
      <trkpt lat="45.08089" lon="2.65035">
        <ele>1303.69</ele>
        <time>2014-10-20T08:59:41Z</time>
      </trkpt>
      <trkpt lat="45.08089" lon="2.65035">
        <ele>1312.82</ele>
        <time>2014-10-20T08:59:42Z</time>
      </trkpt>
      <trkpt lat="45.08089" lon="2.65035">
        <ele>1307.05</ele>
        <time>2014-10-20T08:59:43Z</time>
      </trkpt>
      <trkpt lat="45.08089" lon="2.65035">
        <ele>1311.38</ele>
        <time>2014-10-20T08:59:44Z</time>
      </trkpt>
      <trkpt lat="45.08089" lon="2.65035">
        <ele>1304.65</ele>
        <time>2014-10-20T08:59:45Z</time>
      </trkpt>
      <trkpt lat="45.08089" lon="2.65034">
        <ele>1302.72</ele>
        <time>2014-10-20T08:59:48Z</time>
      </trkpt>
      <trkpt lat="45.08089" lon="2.65034">
        <ele>1312.82</ele>
        <time>2014-10-20T08:59:50Z</time>
      </trkpt>
      <trkpt lat="45.08089" lon="2.65034">
        <ele>1311.38</ele>
        <time>2014-10-20T08:59:51Z</time>
      </trkpt>
      <trkpt lat="45.08089" lon="2.65034">
        <ele>1307.53</ele>
        <time>2014-10-20T08:59:52Z</time>
      </trkpt>
      <trkpt lat="45.08089" lon="2.65034">
        <ele>1308.49</ele>
        <time>2014-10-20T08:59:53Z</time>
      </trkpt>
      <trkpt lat="45.08089" lon="2.65034">
        <ele>1304.17</ele>
        <time>2014-10-20T08:59:54Z</time>
      </trkpt>
      <trkpt lat="45.08089" lon="2.65034">
        <ele>1304.65</ele>
        <time>2014-10-20T08:59:55Z</time>
      </trkpt>
      <trkpt lat="45.08088" lon="2.65033">
        <ele>1305.61</ele>
        <time>2014-10-20T09:00:03Z</time>
      </trkpt>
      <trkpt lat="45.08088" lon="2.65033">
        <ele>1304.65</ele>
        <time>2014-10-20T09:00:20Z</time>
      </trkpt>
      <trkpt lat="45.08086" lon="2.65031">
        <ele>1304.17</ele>
        <time>2014-10-20T09:00:51Z</time>
      </trkpt>
      <trkpt lat="45.08087" lon="2.6503">
        <ele>1303.69</ele>
        <time>2014-10-20T09:01:33Z</time>
      </trkpt>
      <trkpt lat="45.08088" lon="2.65031">
        <ele>1304.17</ele>
        <time>2014-10-20T09:02:20Z</time>
      </trkpt>
      <trkpt lat="45.08089" lon="2.65032">
        <ele>1305.61</ele>
        <time>2014-10-20T09:02:48Z</time>
      </trkpt>
      <trkpt lat="45.08092" lon="2.65033">
        <ele>1305.61</ele>
        <time>2014-10-20T09:02:59Z</time>
      </trkpt>
      <trkpt lat="45.08095" lon="2.65024">
        <ele>1309.45</ele>
        <time>2014-10-20T09:03:13Z</time>
      </trkpt>
      <trkpt lat="45.08092" lon="2.65011">
        <ele>1312.34</ele>
        <time>2014-10-20T09:03:32Z</time>
      </trkpt>
      <trkpt lat="45.08089" lon="2.65001">
        <ele>1315.7</ele>
        <time>2014-10-20T09:03:49Z</time>
      </trkpt>
      <trkpt lat="45.08091" lon="2.64989">
        <ele>1318.59</ele>
        <time>2014-10-20T09:04:06Z</time>
      </trkpt>
      <trkpt lat="45.08089" lon="2.64974">
        <ele>1321.95</ele>
        <time>2014-10-20T09:04:25Z</time>
      </trkpt>
      <trkpt lat="45.08085" lon="2.64964">
        <ele>1324.83</ele>
        <time>2014-10-20T09:04:41Z</time>
      </trkpt>
      <trkpt lat="45.08078" lon="2.64957">
        <ele>1327.72</ele>
        <time>2014-10-20T09:04:55Z</time>
      </trkpt>
      <trkpt lat="45.08072" lon="2.64943">
        <ele>1330.6</ele>
        <time>2014-10-20T09:05:12Z</time>
      </trkpt>
      <trkpt lat="45.08066" lon="2.64933">
        <ele>1333.01</ele>
        <time>2014-10-20T09:05:27Z</time>
      </trkpt>
      <trkpt lat="45.08062" lon="2.6491">
        <ele>1336.37</ele>
        <time>2014-10-20T09:05:44Z</time>
      </trkpt>
      <trkpt lat="45.0806" lon="2.6489">
        <ele>1339.73</ele>
        <time>2014-10-20T09:06:02Z</time>
      </trkpt>
      <trkpt lat="45.08063" lon="2.64877">
        <ele>1342.62</ele>
        <time>2014-10-20T09:06:20Z</time>
      </trkpt>
      <trkpt lat="45.08067" lon="2.64876">
        <ele>1345.98</ele>
        <time>2014-10-20T09:06:39Z</time>
      </trkpt>
      <trkpt lat="45.08073" lon="2.6488">
        <ele>1349.35</ele>
        <time>2014-10-20T09:06:57Z</time>
      </trkpt>
      <trkpt lat="45.08081" lon="2.64879">
        <ele>1352.23</ele>
        <time>2014-10-20T09:07:14Z</time>
      </trkpt>
      <trkpt lat="45.08083" lon="2.64877">
        <ele>1355.12</ele>
        <time>2014-10-20T09:07:31Z</time>
      </trkpt>
      <trkpt lat="45.08086" lon="2.64866">
        <ele>1357.52</ele>
        <time>2014-10-20T09:07:52Z</time>
      </trkpt>
      <trkpt lat="45.08089" lon="2.64861">
        <ele>1360.88</ele>
        <time>2014-10-20T09:08:09Z</time>
      </trkpt>
      <trkpt lat="45.08097" lon="2.64859">
        <ele>1364.25</ele>
        <time>2014-10-20T09:08:27Z</time>
      </trkpt>
      <trkpt lat="45.08098" lon="2.64849">
        <ele>1367.13</ele>
        <time>2014-10-20T09:08:46Z</time>
      </trkpt>
      <trkpt lat="45.08102" lon="2.64844">
        <ele>1369.05</ele>
        <time>2014-10-20T09:09:03Z</time>
      </trkpt>
      <trkpt lat="45.08104" lon="2.6484">
        <ele>1370.5</ele>
        <time>2014-10-20T09:09:29Z</time>
      </trkpt>
      <trkpt lat="45.08107" lon="2.64829">
        <ele>1373.38</ele>
        <time>2014-10-20T09:09:46Z</time>
      </trkpt>
      <trkpt lat="45.0811" lon="2.64821">
        <ele>1376.26</ele>
        <time>2014-10-20T09:10:01Z</time>
      </trkpt>
      <trkpt lat="45.08114" lon="2.64807">
        <ele>1378.19</ele>
        <time>2014-10-20T09:10:24Z</time>
      </trkpt>
      <trkpt lat="45.08116" lon="2.64798">
        <ele>1381.07</ele>
        <time>2014-10-20T09:10:42Z</time>
      </trkpt>
      <trkpt lat="45.08124" lon="2.64784">
        <ele>1384.44</ele>
        <time>2014-10-20T09:10:57Z</time>
      </trkpt>
      <trkpt lat="45.08125" lon="2.64779">
        <ele>1385.4</ele>
        <time>2014-10-20T09:11:06Z</time>
      </trkpt>
      <trkpt lat="45.08129" lon="2.64766">
        <ele>1389.24</ele>
        <time>2014-10-20T09:11:23Z</time>
      </trkpt>
      <trkpt lat="45.08132" lon="2.64761">
        <ele>1391.65</ele>
        <time>2014-10-20T09:11:41Z</time>
      </trkpt>
      <trkpt lat="45.08135" lon="2.64753">
        <ele>1395.01</ele>
        <time>2014-10-20T09:11:54Z</time>
      </trkpt>
      <trkpt lat="45.08137" lon="2.64746">
        <ele>1397.89</ele>
        <time>2014-10-20T09:12:13Z</time>
      </trkpt>
      <trkpt lat="45.08141" lon="2.64734">
        <ele>1400.78</ele>
        <time>2014-10-20T09:12:29Z</time>
      </trkpt>
      <trkpt lat="45.08148" lon="2.6473">
        <ele>1403.18</ele>
        <time>2014-10-20T09:12:43Z</time>
      </trkpt>
      <trkpt lat="45.08148" lon="2.6473">
        <ele>1403.66</ele>
        <time>2014-10-20T09:12:44Z</time>
      </trkpt>
      <trkpt lat="45.08152" lon="2.64742">
        <ele>1406.07</ele>
        <time>2014-10-20T09:13:00Z</time>
      </trkpt>
      <trkpt lat="45.08159" lon="2.64755">
        <ele>1407.99</ele>
        <time>2014-10-20T09:13:13Z</time>
      </trkpt>
      <trkpt lat="45.08162" lon="2.64763">
        <ele>1409.91</ele>
        <time>2014-10-20T09:13:21Z</time>
      </trkpt>
      <trkpt lat="45.08169" lon="2.64778">
        <ele>1412.79</ele>
        <time>2014-10-20T09:13:37Z</time>
      </trkpt>
      <trkpt lat="45.08176" lon="2.64788">
        <ele>1415.2</ele>
        <time>2014-10-20T09:13:53Z</time>
      </trkpt>
      <trkpt lat="45.08189" lon="2.64796">
        <ele>1416.64</ele>
        <time>2014-10-20T09:14:11Z</time>
      </trkpt>
      <trkpt lat="45.08205" lon="2.64804">
        <ele>1419.52</ele>
        <time>2014-10-20T09:14:30Z</time>
      </trkpt>
      <trkpt lat="45.08215" lon="2.64805">
        <ele>1422.89</ele>
        <time>2014-10-20T09:14:50Z</time>
      </trkpt>
      <trkpt lat="45.08228" lon="2.64807">
        <ele>1425.29</ele>
        <time>2014-10-20T09:15:09Z</time>
      </trkpt>
      <trkpt lat="45.08235" lon="2.648">
        <ele>1427.21</ele>
        <time>2014-10-20T09:15:27Z</time>
      </trkpt>
      <trkpt lat="45.08244" lon="2.64796">
        <ele>1430.1</ele>
        <time>2014-10-20T09:15:40Z</time>
      </trkpt>
      <trkpt lat="45.08262" lon="2.64791">
        <ele>1432.5</ele>
        <time>2014-10-20T09:15:57Z</time>
      </trkpt>
      <trkpt lat="45.08278" lon="2.64785">
        <ele>1434.42</ele>
        <time>2014-10-20T09:16:15Z</time>
      </trkpt>
      <trkpt lat="45.08291" lon="2.64772">
        <ele>1436.83</ele>
        <time>2014-10-20T09:16:33Z</time>
      </trkpt>
      <trkpt lat="45.08298" lon="2.6476">
        <ele>1438.75</ele>
        <time>2014-10-20T09:16:51Z</time>
      </trkpt>
      <trkpt lat="45.08303" lon="2.64747">
        <ele>1441.15</ele>
        <time>2014-10-20T09:17:15Z</time>
      </trkpt>
      <trkpt lat="45.08315" lon="2.64734">
        <ele>1442.6</ele>
        <time>2014-10-20T09:17:35Z</time>
      </trkpt>
      <trkpt lat="45.08319" lon="2.64725">
        <ele>1443.56</ele>
        <time>2014-10-20T09:17:54Z</time>
      </trkpt>
      <trkpt lat="45.08319" lon="2.64722">
        <ele>1443.08</ele>
        <time>2014-10-20T09:18:31Z</time>
      </trkpt>
      <trkpt lat="45.08319" lon="2.6472">
        <ele>1443.08</ele>
        <time>2014-10-20T09:18:54Z</time>
      </trkpt>
      <trkpt lat="45.08319" lon="2.6472">
        <ele>1435.87</ele>
        <time>2014-10-20T09:18:59Z</time>
      </trkpt>
      <trkpt lat="45.08319" lon="2.6472">
        <ele>1444.04</ele>
        <time>2014-10-20T09:19:00Z</time>
      </trkpt>
      <trkpt lat="45.08319" lon="2.6472">
        <ele>1448.36</ele>
        <time>2014-10-20T09:19:02Z</time>
      </trkpt>
      <trkpt lat="45.08319" lon="2.6472">
        <ele>1443.08</ele>
        <time>2014-10-20T09:19:03Z</time>
      </trkpt>
      <trkpt lat="45.08319" lon="2.64719">
        <ele>1448.84</ele>
        <time>2014-10-20T09:19:36Z</time>
      </trkpt>
      <trkpt lat="45.08319" lon="2.6472">
        <ele>1443.56</ele>
        <time>2014-10-20T09:19:37Z</time>
      </trkpt>
      <trkpt lat="45.08319" lon="2.64719">
        <ele>1438.27</ele>
        <time>2014-10-20T09:19:48Z</time>
      </trkpt>
      <trkpt lat="45.08319" lon="2.64719">
        <ele>1444.04</ele>
        <time>2014-10-20T09:19:49Z</time>
      </trkpt>
      <trkpt lat="45.0832" lon="2.6472">
        <ele>1440.19</ele>
        <time>2014-10-20T09:20:05Z</time>
      </trkpt>
      <trkpt lat="45.0832" lon="2.6472">
        <ele>1443.56</ele>
        <time>2014-10-20T09:20:06Z</time>
      </trkpt>
      <trkpt lat="45.0832" lon="2.6472">
        <ele>1438.27</ele>
        <time>2014-10-20T09:20:15Z</time>
      </trkpt>
      <trkpt lat="45.0832" lon="2.6472">
        <ele>1442.11</ele>
        <time>2014-10-20T09:20:16Z</time>
      </trkpt>
      <trkpt lat="45.0832" lon="2.64719">
        <ele>1446.44</ele>
        <time>2014-10-20T09:20:17Z</time>
      </trkpt>
      <trkpt lat="45.08319" lon="2.64719">
        <ele>1444.04</ele>
        <time>2014-10-20T09:20:18Z</time>
      </trkpt>
      <trkpt lat="45.08319" lon="2.64719">
        <ele>1449.32</ele>
        <time>2014-10-20T09:20:20Z</time>
      </trkpt>
      <trkpt lat="45.08319" lon="2.64719">
        <ele>1443.08</ele>
        <time>2014-10-20T09:20:21Z</time>
      </trkpt>
      <trkpt lat="45.08319" lon="2.64719">
        <ele>1443.08</ele>
        <time>2014-10-20T09:20:22Z</time>
      </trkpt>
      <trkpt lat="45.08319" lon="2.64719">
        <ele>1443.08</ele>
        <time>2014-10-20T09:20:53Z</time>
      </trkpt>
      <trkpt lat="45.0832" lon="2.64719">
        <ele>1441.63</ele>
        <time>2014-10-20T09:21:17Z</time>
      </trkpt>
      <trkpt lat="45.0832" lon="2.64719">
        <ele>1444.04</ele>
        <time>2014-10-20T09:21:27Z</time>
      </trkpt>
      <trkpt lat="45.08323" lon="2.64715">
        <ele>1443.56</ele>
        <time>2014-10-20T09:21:32Z</time>
      </trkpt>
      <trkpt lat="45.08324" lon="2.64704">
        <ele>1445.48</ele>
        <time>2014-10-20T09:21:44Z</time>
      </trkpt>
      <trkpt lat="45.08331" lon="2.6469">
        <ele>1447.4</ele>
        <time>2014-10-20T09:21:59Z</time>
      </trkpt>
      <trkpt lat="45.08335" lon="2.64686">
        <ele>1447.4</ele>
        <time>2014-10-20T09:22:24Z</time>
      </trkpt>
      <trkpt lat="45.08336" lon="2.64686">
        <ele>1447.4</ele>
        <time>2014-10-20T09:22:36Z</time>
      </trkpt>
      <trkpt lat="45.08337" lon="2.64685">
        <ele>1447.4</ele>
        <time>2014-10-20T09:22:38Z</time>
      </trkpt>
      <trkpt lat="45.08343" lon="2.64683">
        <ele>1448.84</ele>
        <time>2014-10-20T09:22:44Z</time>
      </trkpt>
      <trkpt lat="45.08346" lon="2.64681">
        <ele>1448.84</ele>
        <time>2014-10-20T09:22:48Z</time>
      </trkpt>
      <trkpt lat="45.08354" lon="2.64677">
        <ele>1450.29</ele>
        <time>2014-10-20T09:22:57Z</time>
      </trkpt>
      <trkpt lat="45.08356" lon="2.64675">
        <ele>1450.29</ele>
        <time>2014-10-20T09:23:00Z</time>
      </trkpt>
      <trkpt lat="45.08362" lon="2.64673">
        <ele>1451.73</ele>
        <time>2014-10-20T09:23:06Z</time>
      </trkpt>
      <trkpt lat="45.08386" lon="2.64687">
        <ele>1452.21</ele>
        <time>2014-10-20T09:23:28Z</time>
      </trkpt>
      <trkpt lat="45.08391" lon="2.64689">
        <ele>1452.69</ele>
        <time>2014-10-20T09:23:37Z</time>
      </trkpt>
      <trkpt lat="45.08389" lon="2.64682">
        <ele>1454.13</ele>
        <time>2014-10-20T09:23:48Z</time>
      </trkpt>
      <trkpt lat="45.08385" lon="2.64678">
        <ele>1455.09</ele>
        <time>2014-10-20T09:24:02Z</time>
      </trkpt>
      <trkpt lat="45.08372" lon="2.64663">
        <ele>1456.53</ele>
        <time>2014-10-20T09:24:21Z</time>
      </trkpt>
      <trkpt lat="45.08368" lon="2.64662">
        <ele>1457.02</ele>
        <time>2014-10-20T09:24:25Z</time>
      </trkpt>
      <trkpt lat="45.0836" lon="2.64657">
        <ele>1459.42</ele>
        <time>2014-10-20T09:24:39Z</time>
      </trkpt>
      <trkpt lat="45.08356" lon="2.64657">
        <ele>1459.9</ele>
        <time>2014-10-20T09:24:43Z</time>
      </trkpt>
      <trkpt lat="45.08348" lon="2.64657">
        <ele>1461.82</ele>
        <time>2014-10-20T09:24:54Z</time>
      </trkpt>
      <trkpt lat="45.08346" lon="2.64657">
        <ele>1461.82</ele>
        <time>2014-10-20T09:24:56Z</time>
      </trkpt>
      <trkpt lat="45.08332" lon="2.64656">
        <ele>1464.71</ele>
        <time>2014-10-20T09:25:15Z</time>
      </trkpt>
      <trkpt lat="45.08331" lon="2.64654">
        <ele>1465.19</ele>
        <time>2014-10-20T09:25:23Z</time>
      </trkpt>
      <trkpt lat="45.08339" lon="2.6465">
        <ele>1465.67</ele>
        <time>2014-10-20T09:25:31Z</time>
      </trkpt>
      <trkpt lat="45.08351" lon="2.64642">
        <ele>1467.59</ele>
        <time>2014-10-20T09:25:45Z</time>
      </trkpt>
      <trkpt lat="45.08361" lon="2.64634">
        <ele>1469.99</ele>
        <time>2014-10-20T09:26:04Z</time>
      </trkpt>
      <trkpt lat="45.08362" lon="2.64634">
        <ele>1469.99</ele>
        <time>2014-10-20T09:26:07Z</time>
      </trkpt>
      <trkpt lat="45.08373" lon="2.64631">
        <ele>1472.4</ele>
        <time>2014-10-20T09:26:20Z</time>
      </trkpt>
      <trkpt lat="45.08383" lon="2.64629">
        <ele>1475.28</ele>
        <time>2014-10-20T09:26:34Z</time>
      </trkpt>
      <trkpt lat="45.08387" lon="2.6463">
        <ele>1475.28</ele>
        <time>2014-10-20T09:26:38Z</time>
      </trkpt>
      <trkpt lat="45.08392" lon="2.64633">
        <ele>1475.76</ele>
        <time>2014-10-20T09:26:45Z</time>
      </trkpt>
      <trkpt lat="45.084" lon="2.64634">
        <ele>1479.61</ele>
        <time>2014-10-20T09:27:01Z</time>
      </trkpt>
      <trkpt lat="45.08408" lon="2.64634">
        <ele>1481.53</ele>
        <time>2014-10-20T09:27:15Z</time>
      </trkpt>
      <trkpt lat="45.08414" lon="2.64629">
        <ele>1483.93</ele>
        <time>2014-10-20T09:27:27Z</time>
      </trkpt>
      <trkpt lat="45.0842" lon="2.64622">
        <ele>1485.37</ele>
        <time>2014-10-20T09:27:40Z</time>
      </trkpt>
      <trkpt lat="45.08432" lon="2.646">
        <ele>1488.26</ele>
        <time>2014-10-20T09:28:01Z</time>
      </trkpt>
      <trkpt lat="45.08436" lon="2.64595">
        <ele>1487.78</ele>
        <time>2014-10-20T09:28:06Z</time>
      </trkpt>
      <trkpt lat="45.08445" lon="2.64576">
        <ele>1491.62</ele>
        <time>2014-10-20T09:28:26Z</time>
      </trkpt>
      <trkpt lat="45.0845" lon="2.64562">
        <ele>1492.1</ele>
        <time>2014-10-20T09:28:43Z</time>
      </trkpt>
      <trkpt lat="45.08454" lon="2.64557">
        <ele>1492.1</ele>
        <time>2014-10-20T09:28:48Z</time>
      </trkpt>
      <trkpt lat="45.08454" lon="2.64555">
        <ele>1493.06</ele>
        <time>2014-10-20T09:28:50Z</time>
      </trkpt>
      <trkpt lat="45.08458" lon="2.64542">
        <ele>1495.95</ele>
        <time>2014-10-20T09:29:07Z</time>
      </trkpt>
      <trkpt lat="45.08463" lon="2.64533">
        <ele>1498.83</ele>
        <time>2014-10-20T09:29:23Z</time>
      </trkpt>
      <trkpt lat="45.08469" lon="2.64525">
        <ele>1502.2</ele>
        <time>2014-10-20T09:29:41Z</time>
      </trkpt>
      <trkpt lat="45.08474" lon="2.64516">
        <ele>1504.12</ele>
        <time>2014-10-20T09:29:59Z</time>
      </trkpt>
      <trkpt lat="45.0848" lon="2.64505">
        <ele>1506.04</ele>
        <time>2014-10-20T09:30:17Z</time>
      </trkpt>
      <trkpt lat="45.08482" lon="2.64498">
        <ele>1507.97</ele>
        <time>2014-10-20T09:30:43Z</time>
      </trkpt>
      <trkpt lat="45.08485" lon="2.64496">
        <ele>1509.41</ele>
        <time>2014-10-20T09:30:49Z</time>
      </trkpt>
      <trkpt lat="45.0849" lon="2.64484">
        <ele>1511.81</ele>
        <time>2014-10-20T09:31:06Z</time>
      </trkpt>
      <trkpt lat="45.08497" lon="2.64472">
        <ele>1515.18</ele>
        <time>2014-10-20T09:31:24Z</time>
      </trkpt>
      <trkpt lat="45.08502" lon="2.64463">
        <ele>1518.54</ele>
        <time>2014-10-20T09:31:40Z</time>
      </trkpt>
      <trkpt lat="45.08509" lon="2.64457">
        <ele>1520.46</ele>
        <time>2014-10-20T09:31:59Z</time>
      </trkpt>
      <trkpt lat="45.08515" lon="2.6445">
        <ele>1523.35</ele>
        <time>2014-10-20T09:32:16Z</time>
      </trkpt>
      <trkpt lat="45.08523" lon="2.64441">
        <ele>1526.71</ele>
        <time>2014-10-20T09:32:35Z</time>
      </trkpt>
      <trkpt lat="45.08531" lon="2.64431">
        <ele>1529.59</ele>
        <time>2014-10-20T09:32:55Z</time>
      </trkpt>
      <trkpt lat="45.08538" lon="2.64422">
        <ele>1532</ele>
        <time>2014-10-20T09:33:12Z</time>
      </trkpt>
      <trkpt lat="45.08542" lon="2.64417">
        <ele>1533.92</ele>
        <time>2014-10-20T09:33:25Z</time>
      </trkpt>
      <trkpt lat="45.08546" lon="2.64413">
        <ele>1536.8</ele>
        <time>2014-10-20T09:33:41Z</time>
      </trkpt>
      <trkpt lat="45.08556" lon="2.64411">
        <ele>1539.69</ele>
        <time>2014-10-20T09:33:59Z</time>
      </trkpt>
      <trkpt lat="45.0856" lon="2.6441">
        <ele>1539.69</ele>
        <time>2014-10-20T09:34:20Z</time>
      </trkpt>
      <trkpt lat="45.08558" lon="2.64408">
        <ele>1540.17</ele>
        <time>2014-10-20T09:34:28Z</time>
      </trkpt>
      <trkpt lat="45.08561" lon="2.64409">
        <ele>1539.21</ele>
        <time>2014-10-20T09:34:44Z</time>
      </trkpt>
      <trkpt lat="45.08561" lon="2.6441">
        <ele>1543.53</ele>
        <time>2014-10-20T09:35:14Z</time>
      </trkpt>
      <trkpt lat="45.08561" lon="2.6441">
        <ele>1539.21</ele>
        <time>2014-10-20T09:35:15Z</time>
      </trkpt>
      <trkpt lat="45.08561" lon="2.6441">
        <ele>1544.01</ele>
        <time>2014-10-20T09:35:45Z</time>
      </trkpt>
      <trkpt lat="45.08561" lon="2.6441">
        <ele>1537.77</ele>
        <time>2014-10-20T09:35:46Z</time>
      </trkpt>
      <trkpt lat="45.08561" lon="2.6441">
        <ele>1542.09</ele>
        <time>2014-10-20T09:35:48Z</time>
      </trkpt>
      <trkpt lat="45.08561" lon="2.6441">
        <ele>1538.73</ele>
        <time>2014-10-20T09:35:50Z</time>
      </trkpt>
      <trkpt lat="45.08561" lon="2.6441">
        <ele>1535.36</ele>
        <time>2014-10-20T09:36:00Z</time>
      </trkpt>
      <trkpt lat="45.08561" lon="2.6441">
        <ele>1540.17</ele>
        <time>2014-10-20T09:36:01Z</time>
      </trkpt>
      <trkpt lat="45.08561" lon="2.6441">
        <ele>1538.73</ele>
        <time>2014-10-20T09:36:33Z</time>
      </trkpt>
      <trkpt lat="45.0856" lon="2.64409">
        <ele>1539.21</ele>
        <time>2014-10-20T09:37:36Z</time>
      </trkpt>
      <trkpt lat="45.0856" lon="2.6441">
        <ele>1538.73</ele>
        <time>2014-10-20T09:38:21Z</time>
      </trkpt>
      <trkpt lat="45.0856" lon="2.6441">
        <ele>1539.69</ele>
        <time>2014-10-20T09:38:57Z</time>
      </trkpt>
      <trkpt lat="45.08561" lon="2.6441">
        <ele>1539.21</ele>
        <time>2014-10-20T09:39:43Z</time>
      </trkpt>
      <trkpt lat="45.08561" lon="2.64409">
        <ele>1539.21</ele>
        <time>2014-10-20T09:40:24Z</time>
      </trkpt>
      <trkpt lat="45.0856" lon="2.64409">
        <ele>1538.73</ele>
        <time>2014-10-20T09:41:09Z</time>
      </trkpt>
      <trkpt lat="45.0856" lon="2.64408">
        <ele>1540.17</ele>
        <time>2014-10-20T09:41:39Z</time>
      </trkpt>
      <trkpt lat="45.0856" lon="2.64407">
        <ele>1539.69</ele>
        <time>2014-10-20T09:42:05Z</time>
      </trkpt>
      <trkpt lat="45.08559" lon="2.6441">
        <ele>1540.65</ele>
        <time>2014-10-20T09:42:25Z</time>
      </trkpt>
      <trkpt lat="45.0856" lon="2.64412">
        <ele>1540.17</ele>
        <time>2014-10-20T09:42:27Z</time>
      </trkpt>
      <trkpt lat="45.08581" lon="2.64428">
        <ele>1536.8</ele>
        <time>2014-10-20T09:42:49Z</time>
      </trkpt>
      <trkpt lat="45.08589" lon="2.64436">
        <ele>1536.32</ele>
        <time>2014-10-20T09:42:57Z</time>
      </trkpt>
      <trkpt lat="45.08593" lon="2.64437">
        <ele>1536.32</ele>
        <time>2014-10-20T09:43:00Z</time>
      </trkpt>
      <trkpt lat="45.08615" lon="2.64448">
        <ele>1534.88</ele>
        <time>2014-10-20T09:43:19Z</time>
      </trkpt>
      <trkpt lat="45.08618" lon="2.6445">
        <ele>1534.88</ele>
        <time>2014-10-20T09:43:22Z</time>
      </trkpt>
      <trkpt lat="45.08626" lon="2.64452">
        <ele>1533.92</ele>
        <time>2014-10-20T09:43:29Z</time>
      </trkpt>
      <trkpt lat="45.08649" lon="2.64454">
        <ele>1532.96</ele>
        <time>2014-10-20T09:43:47Z</time>
      </trkpt>
      <trkpt lat="45.08656" lon="2.64453">
        <ele>1532.96</ele>
        <time>2014-10-20T09:43:53Z</time>
      </trkpt>
      <trkpt lat="45.08684" lon="2.64443">
        <ele>1533.44</ele>
        <time>2014-10-20T09:44:16Z</time>
      </trkpt>
      <trkpt lat="45.08697" lon="2.64436">
        <ele>1533.92</ele>
        <time>2014-10-20T09:44:31Z</time>
      </trkpt>
      <trkpt lat="45.087" lon="2.64435">
        <ele>1533.92</ele>
        <time>2014-10-20T09:44:34Z</time>
      </trkpt>
      <trkpt lat="45.08703" lon="2.64435">
        <ele>1533.92</ele>
        <time>2014-10-20T09:44:37Z</time>
      </trkpt>
      <trkpt lat="45.08712" lon="2.6443">
        <ele>1534.4</ele>
        <time>2014-10-20T09:44:46Z</time>
      </trkpt>
      <trkpt lat="45.08717" lon="2.64427">
        <ele>1534.88</ele>
        <time>2014-10-20T09:44:51Z</time>
      </trkpt>
      <trkpt lat="45.08722" lon="2.64424">
        <ele>1535.36</ele>
        <time>2014-10-20T09:44:56Z</time>
      </trkpt>
      <trkpt lat="45.08741" lon="2.64415">
        <ele>1538.25</ele>
        <time>2014-10-20T09:45:16Z</time>
      </trkpt>
      <trkpt lat="45.08748" lon="2.64411">
        <ele>1539.69</ele>
        <time>2014-10-20T09:45:25Z</time>
      </trkpt>
      <trkpt lat="45.08761" lon="2.64402">
        <ele>1542.09</ele>
        <time>2014-10-20T09:45:43Z</time>
      </trkpt>
      <trkpt lat="45.08768" lon="2.64398">
        <ele>1543.05</ele>
        <time>2014-10-20T09:45:51Z</time>
      </trkpt>
      <trkpt lat="45.08775" lon="2.64396">
        <ele>1545.46</ele>
        <time>2014-10-20T09:46:11Z</time>
      </trkpt>
      <trkpt lat="45.08786" lon="2.64394">
        <ele>1547.86</ele>
        <time>2014-10-20T09:46:28Z</time>
      </trkpt>
      <trkpt lat="45.08793" lon="2.64392">
        <ele>1550.74</ele>
        <time>2014-10-20T09:46:41Z</time>
      </trkpt>
      <trkpt lat="45.08804" lon="2.64392">
        <ele>1553.15</ele>
        <time>2014-10-20T09:47:00Z</time>
      </trkpt>
      <trkpt lat="45.0881" lon="2.64391">
        <ele>1555.55</ele>
        <time>2014-10-20T09:47:17Z</time>
      </trkpt>
      <trkpt lat="45.08816" lon="2.64392">
        <ele>1558.92</ele>
        <time>2014-10-20T09:47:37Z</time>
      </trkpt>
      <trkpt lat="45.08822" lon="2.6439">
        <ele>1561.8</ele>
        <time>2014-10-20T09:47:53Z</time>
      </trkpt>
      <trkpt lat="45.08831" lon="2.64387">
        <ele>1564.68</ele>
        <time>2014-10-20T09:48:11Z</time>
      </trkpt>
      <trkpt lat="45.08842" lon="2.64382">
        <ele>1568.05</ele>
        <time>2014-10-20T09:48:31Z</time>
      </trkpt>
      <trkpt lat="45.08845" lon="2.64382">
        <ele>1569.49</ele>
        <time>2014-10-20T09:48:38Z</time>
      </trkpt>
      <trkpt lat="45.08852" lon="2.64378">
        <ele>1572.37</ele>
        <time>2014-10-20T09:48:55Z</time>
      </trkpt>
      <trkpt lat="45.0886" lon="2.64374">
        <ele>1575.26</ele>
        <time>2014-10-20T09:49:15Z</time>
      </trkpt>
      <trkpt lat="45.08867" lon="2.64366">
        <ele>1578.14</ele>
        <time>2014-10-20T09:49:33Z</time>
      </trkpt>
      <trkpt lat="45.08872" lon="2.64361">
        <ele>1580.06</ele>
        <time>2014-10-20T09:49:49Z</time>
      </trkpt>
      <trkpt lat="45.08876" lon="2.64356">
        <ele>1579.58</ele>
        <time>2014-10-20T09:50:09Z</time>
      </trkpt>
      <trkpt lat="45.08876" lon="2.64356">
        <ele>1581.03</ele>
        <time>2014-10-20T09:50:46Z</time>
      </trkpt>
      <trkpt lat="45.08876" lon="2.64355">
        <ele>1576.22</ele>
        <time>2014-10-20T09:51:16Z</time>
      </trkpt>
      <trkpt lat="45.08876" lon="2.64355">
        <ele>1582.47</ele>
        <time>2014-10-20T09:51:17Z</time>
      </trkpt>
      <trkpt lat="45.08876" lon="2.64355">
        <ele>1576.7</ele>
        <time>2014-10-20T09:51:21Z</time>
      </trkpt>
      <trkpt lat="45.08876" lon="2.64355">
        <ele>1582.95</ele>
        <time>2014-10-20T09:51:22Z</time>
      </trkpt>
      <trkpt lat="45.08876" lon="2.64355">
        <ele>1581.99</ele>
        <time>2014-10-20T09:51:23Z</time>
      </trkpt>
      <trkpt lat="45.08877" lon="2.64355">
        <ele>1581.99</ele>
        <time>2014-10-20T09:51:27Z</time>
      </trkpt>
      <trkpt lat="45.08877" lon="2.64356">
        <ele>1585.35</ele>
        <time>2014-10-20T09:51:35Z</time>
      </trkpt>
      <trkpt lat="45.08877" lon="2.64356">
        <ele>1582.95</ele>
        <time>2014-10-20T09:51:36Z</time>
      </trkpt>
      <trkpt lat="45.08877" lon="2.64356">
        <ele>1581.99</ele>
        <time>2014-10-20T09:51:39Z</time>
      </trkpt>
      <trkpt lat="45.08877" lon="2.64356">
        <ele>1587.27</ele>
        <time>2014-10-20T09:52:10Z</time>
      </trkpt>
      <trkpt lat="45.08877" lon="2.64356">
        <ele>1581.99</ele>
        <time>2014-10-20T09:52:11Z</time>
      </trkpt>
      <trkpt lat="45.08877" lon="2.64356">
        <ele>1581.51</ele>
        <time>2014-10-20T09:52:43Z</time>
      </trkpt>
      <trkpt lat="45.08876" lon="2.64355">
        <ele>1581.51</ele>
        <time>2014-10-20T09:53:24Z</time>
      </trkpt>
      <trkpt lat="45.08876" lon="2.64355">
        <ele>1580.06</ele>
        <time>2014-10-20T09:54:06Z</time>
      </trkpt>
      <trkpt lat="45.08876" lon="2.64355">
        <ele>1580.54</ele>
        <time>2014-10-20T09:54:07Z</time>
      </trkpt>
      <trkpt lat="45.08876" lon="2.64355">
        <ele>1582.95</ele>
        <time>2014-10-20T09:54:09Z</time>
      </trkpt>
      <trkpt lat="45.08875" lon="2.64355">
        <ele>1582.95</ele>
        <time>2014-10-20T09:54:46Z</time>
      </trkpt>
      <trkpt lat="45.08879" lon="2.64356">
        <ele>1583.91</ele>
        <time>2014-10-20T09:55:20Z</time>
      </trkpt>
      <trkpt lat="45.08883" lon="2.64364">
        <ele>1586.79</ele>
        <time>2014-10-20T09:55:33Z</time>
      </trkpt>
      <trkpt lat="45.08884" lon="2.64376">
        <ele>1590.16</ele>
        <time>2014-10-20T09:55:49Z</time>
      </trkpt>
      <trkpt lat="45.08886" lon="2.64384">
        <ele>1593.04</ele>
        <time>2014-10-20T09:56:06Z</time>
      </trkpt>
      <trkpt lat="45.08886" lon="2.64394">
        <ele>1595.93</ele>
        <time>2014-10-20T09:56:25Z</time>
      </trkpt>
      <trkpt lat="45.08892" lon="2.64396">
        <ele>1599.29</ele>
        <time>2014-10-20T09:56:43Z</time>
      </trkpt>
      <trkpt lat="45.08899" lon="2.64397">
        <ele>1601.69</ele>
        <time>2014-10-20T09:57:00Z</time>
      </trkpt>
      <trkpt lat="45.08901" lon="2.64394">
        <ele>1602.66</ele>
        <time>2014-10-20T09:57:06Z</time>
      </trkpt>
      <trkpt lat="45.08907" lon="2.64398">
        <ele>1605.54</ele>
        <time>2014-10-20T09:57:19Z</time>
      </trkpt>
      <trkpt lat="45.08909" lon="2.64409">
        <ele>1608.42</ele>
        <time>2014-10-20T09:57:37Z</time>
      </trkpt>
      <trkpt lat="45.08916" lon="2.64411">
        <ele>1610.83</ele>
        <time>2014-10-20T09:57:55Z</time>
      </trkpt>
      <trkpt lat="45.08922" lon="2.64414">
        <ele>1611.79</ele>
        <time>2014-10-20T09:58:10Z</time>
      </trkpt>
      <trkpt lat="45.08934" lon="2.64413">
        <ele>1613.23</ele>
        <time>2014-10-20T09:58:23Z</time>
      </trkpt>
      <trkpt lat="45.08936" lon="2.64412">
        <ele>1614.19</ele>
        <time>2014-10-20T09:58:25Z</time>
      </trkpt>
      <trkpt lat="45.0895" lon="2.64412">
        <ele>1615.63</ele>
        <time>2014-10-20T09:58:44Z</time>
      </trkpt>
      <trkpt lat="45.08975" lon="2.64407">
        <ele>1614.67</ele>
        <time>2014-10-20T09:59:05Z</time>
      </trkpt>
      <trkpt lat="45.08997" lon="2.64397">
        <ele>1615.63</ele>
        <time>2014-10-20T09:59:25Z</time>
      </trkpt>
      <trkpt lat="45.09012" lon="2.64387">
        <ele>1619</ele>
        <time>2014-10-20T09:59:44Z</time>
      </trkpt>
      <trkpt lat="45.09022" lon="2.64378">
        <ele>1621.4</ele>
        <time>2014-10-20T09:59:57Z</time>
      </trkpt>
      <trkpt lat="45.09026" lon="2.64375">
        <ele>1622.36</ele>
        <time>2014-10-20T10:00:03Z</time>
      </trkpt>
      <trkpt lat="45.09036" lon="2.6436">
        <ele>1625.73</ele>
        <time>2014-10-20T10:00:23Z</time>
      </trkpt>
      <trkpt lat="45.09044" lon="2.6435">
        <ele>1628.61</ele>
        <time>2014-10-20T10:00:42Z</time>
      </trkpt>
      <trkpt lat="45.09052" lon="2.64345">
        <ele>1631.98</ele>
        <time>2014-10-20T10:00:59Z</time>
      </trkpt>
      <trkpt lat="45.09063" lon="2.64339">
        <ele>1634.38</ele>
        <time>2014-10-20T10:01:18Z</time>
      </trkpt>
      <trkpt lat="45.09066" lon="2.64337">
        <ele>1635.82</ele>
        <time>2014-10-20T10:01:27Z</time>
      </trkpt>
      <trkpt lat="45.09078" lon="2.64331">
        <ele>1638.22</ele>
        <time>2014-10-20T10:01:45Z</time>
      </trkpt>
      <trkpt lat="45.09086" lon="2.64324">
        <ele>1641.59</ele>
        <time>2014-10-20T10:02:04Z</time>
      </trkpt>
      <trkpt lat="45.0909" lon="2.64318">
        <ele>1644.95</ele>
        <time>2014-10-20T10:02:23Z</time>
      </trkpt>
      <trkpt lat="45.09095" lon="2.64313">
        <ele>1648.32</ele>
        <time>2014-10-20T10:02:44Z</time>
      </trkpt>
      <trkpt lat="45.091" lon="2.64309">
        <ele>1651.2</ele>
        <time>2014-10-20T10:03:04Z</time>
      </trkpt>
      <trkpt lat="45.09105" lon="2.643">
        <ele>1654.57</ele>
        <time>2014-10-20T10:03:24Z</time>
      </trkpt>
      <trkpt lat="45.09124" lon="2.64289">
        <ele>1657.93</ele>
        <time>2014-10-20T10:03:45Z</time>
      </trkpt>
      <trkpt lat="45.09135" lon="2.64285">
        <ele>1660.81</ele>
        <time>2014-10-20T10:04:04Z</time>
      </trkpt>
      <trkpt lat="45.0914" lon="2.64279">
        <ele>1664.18</ele>
        <time>2014-10-20T10:04:22Z</time>
      </trkpt>
      <trkpt lat="45.09145" lon="2.64277">
        <ele>1666.58</ele>
        <time>2014-10-20T10:04:38Z</time>
      </trkpt>
      <trkpt lat="45.09146" lon="2.64277">
        <ele>1667.06</ele>
        <time>2014-10-20T10:05:01Z</time>
      </trkpt>
      <trkpt lat="45.09157" lon="2.64272">
        <ele>1670.43</ele>
        <time>2014-10-20T10:05:19Z</time>
      </trkpt>
      <trkpt lat="45.09166" lon="2.6427">
        <ele>1673.79</ele>
        <time>2014-10-20T10:05:36Z</time>
      </trkpt>
      <trkpt lat="45.09175" lon="2.6427">
        <ele>1676.68</ele>
        <time>2014-10-20T10:05:53Z</time>
      </trkpt>
      <trkpt lat="45.09185" lon="2.64265">
        <ele>1680.04</ele>
        <time>2014-10-20T10:06:14Z</time>
      </trkpt>
      <trkpt lat="45.09195" lon="2.64261">
        <ele>1682.93</ele>
        <time>2014-10-20T10:06:34Z</time>
      </trkpt>
      <trkpt lat="45.09198" lon="2.6426">
        <ele>1682.93</ele>
        <time>2014-10-20T10:06:38Z</time>
      </trkpt>
      <trkpt lat="45.09205" lon="2.6426">
        <ele>1684.37</ele>
        <time>2014-10-20T10:06:47Z</time>
      </trkpt>
      <trkpt lat="45.09216" lon="2.64262">
        <ele>1685.81</ele>
        <time>2014-10-20T10:07:02Z</time>
      </trkpt>
      <trkpt lat="45.09237" lon="2.64263">
        <ele>1687.73</ele>
        <time>2014-10-20T10:07:24Z</time>
      </trkpt>
      <trkpt lat="45.09239" lon="2.64262">
        <ele>1688.21</ele>
        <time>2014-10-20T10:07:27Z</time>
      </trkpt>
      <trkpt lat="45.09263" lon="2.64265">
        <ele>1689.17</ele>
        <time>2014-10-20T10:07:50Z</time>
      </trkpt>
      <trkpt lat="45.09267" lon="2.64266">
        <ele>1690.14</ele>
        <time>2014-10-20T10:08:11Z</time>
      </trkpt>
      <trkpt lat="45.09268" lon="2.64267">
        <ele>1690.14</ele>
        <time>2014-10-20T10:08:20Z</time>
      </trkpt>
      <trkpt lat="45.09272" lon="2.64269">
        <ele>1691.1</ele>
        <time>2014-10-20T10:08:24Z</time>
      </trkpt>
      <trkpt lat="45.09293" lon="2.64283">
        <ele>1693.02</ele>
        <time>2014-10-20T10:08:46Z</time>
      </trkpt>
      <trkpt lat="45.09305" lon="2.64291">
        <ele>1693.98</ele>
        <time>2014-10-20T10:08:57Z</time>
      </trkpt>
      <trkpt lat="45.09307" lon="2.64292">
        <ele>1693.98</ele>
        <time>2014-10-20T10:09:00Z</time>
      </trkpt>
      <trkpt lat="45.09332" lon="2.64301">
        <ele>1695.9</ele>
        <time>2014-10-20T10:09:22Z</time>
      </trkpt>
      <trkpt lat="45.09358" lon="2.64317">
        <ele>1696.86</ele>
        <time>2014-10-20T10:09:45Z</time>
      </trkpt>
      <trkpt lat="45.09378" lon="2.64334">
        <ele>1697.83</ele>
        <time>2014-10-20T10:10:06Z</time>
      </trkpt>
      <trkpt lat="45.09389" lon="2.64332">
        <ele>1697.34</ele>
        <time>2014-10-20T10:10:17Z</time>
      </trkpt>
      <trkpt lat="45.09415" lon="2.64345">
        <ele>1698.31</ele>
        <time>2014-10-20T10:10:39Z</time>
      </trkpt>
      <trkpt lat="45.09437" lon="2.64355">
        <ele>1701.19</ele>
        <time>2014-10-20T10:11:02Z</time>
      </trkpt>
      <trkpt lat="45.09446" lon="2.64358">
        <ele>1702.63</ele>
        <time>2014-10-20T10:11:12Z</time>
      </trkpt>
      <trkpt lat="45.09458" lon="2.64365">
        <ele>1704.55</ele>
        <time>2014-10-20T10:11:27Z</time>
      </trkpt>
      <trkpt lat="45.09467" lon="2.64377">
        <ele>1707.44</ele>
        <time>2014-10-20T10:11:44Z</time>
      </trkpt>
      <trkpt lat="45.09475" lon="2.64392">
        <ele>1709.84</ele>
        <time>2014-10-20T10:12:04Z</time>
      </trkpt>
      <trkpt lat="45.09482" lon="2.64404">
        <ele>1712.73</ele>
        <time>2014-10-20T10:12:22Z</time>
      </trkpt>
      <trkpt lat="45.09493" lon="2.64414">
        <ele>1715.13</ele>
        <time>2014-10-20T10:12:43Z</time>
      </trkpt>
      <trkpt lat="45.09503" lon="2.64426">
        <ele>1718.49</ele>
        <time>2014-10-20T10:13:01Z</time>
      </trkpt>
      <trkpt lat="45.09515" lon="2.64434">
        <ele>1720.9</ele>
        <time>2014-10-20T10:13:19Z</time>
      </trkpt>
      <trkpt lat="45.09516" lon="2.64436">
        <ele>1721.38</ele>
        <time>2014-10-20T10:13:22Z</time>
      </trkpt>
      <trkpt lat="45.09535" lon="2.64447">
        <ele>1723.78</ele>
        <time>2014-10-20T10:13:42Z</time>
      </trkpt>
      <trkpt lat="45.09554" lon="2.64457">
        <ele>1723.78</ele>
        <time>2014-10-20T10:14:02Z</time>
      </trkpt>
      <trkpt lat="45.09567" lon="2.64463">
        <ele>1726.18</ele>
        <time>2014-10-20T10:14:18Z</time>
      </trkpt>
      <trkpt lat="45.09586" lon="2.64468">
        <ele>1729.07</ele>
        <time>2014-10-20T10:14:40Z</time>
      </trkpt>
      <trkpt lat="45.09589" lon="2.64469">
        <ele>1729.55</ele>
        <time>2014-10-20T10:15:07Z</time>
      </trkpt>
      <trkpt lat="45.09607" lon="2.64468">
        <ele>1730.99</ele>
        <time>2014-10-20T10:15:30Z</time>
      </trkpt>
      <trkpt lat="45.09629" lon="2.64472">
        <ele>1732.91</ele>
        <time>2014-10-20T10:15:52Z</time>
      </trkpt>
      <trkpt lat="45.09633" lon="2.64483">
        <ele>1732.91</ele>
        <time>2014-10-20T10:16:06Z</time>
      </trkpt>
      <trkpt lat="45.09639" lon="2.64488">
        <ele>1733.39</ele>
        <time>2014-10-20T10:16:23Z</time>
      </trkpt>
      <trkpt lat="45.0964" lon="2.64488">
        <ele>1733.39</ele>
        <time>2014-10-20T10:17:05Z</time>
      </trkpt>
      <trkpt lat="45.0964" lon="2.64488">
        <ele>1733.88</ele>
        <time>2014-10-20T10:17:26Z</time>
      </trkpt>
      <trkpt lat="45.09641" lon="2.6449">
        <ele>1733.39</ele>
        <time>2014-10-20T10:17:45Z</time>
      </trkpt>
      <trkpt lat="45.09641" lon="2.6449">
        <ele>1733.39</ele>
        <time>2014-10-20T10:18:04Z</time>
      </trkpt>
      <trkpt lat="45.09642" lon="2.6449">
        <ele>1732.91</ele>
        <time>2014-10-20T10:18:29Z</time>
      </trkpt>
      <trkpt lat="45.09639" lon="2.64489">
        <ele>1733.88</ele>
        <time>2014-10-20T10:18:45Z</time>
      </trkpt>
      <trkpt lat="45.09639" lon="2.64489">
        <ele>1734.36</ele>
        <time>2014-10-20T10:19:11Z</time>
      </trkpt>
      <trkpt lat="45.09644" lon="2.64494">
        <ele>1733.39</ele>
        <time>2014-10-20T10:19:30Z</time>
      </trkpt>
      <trkpt lat="45.09643" lon="2.64492">
        <ele>1733.39</ele>
        <time>2014-10-20T10:20:00Z</time>
      </trkpt>
      <trkpt lat="45.09645" lon="2.64493">
        <ele>1731.47</ele>
        <time>2014-10-20T10:20:25Z</time>
      </trkpt>
      <trkpt lat="45.09651" lon="2.64498">
        <ele>1729.07</ele>
        <time>2014-10-20T10:20:41Z</time>
      </trkpt>
      <trkpt lat="45.09655" lon="2.64502">
        <ele>1725.7</ele>
        <time>2014-10-20T10:20:58Z</time>
      </trkpt>
      <trkpt lat="45.09661" lon="2.64503">
        <ele>1723.78</ele>
        <time>2014-10-20T10:21:15Z</time>
      </trkpt>
      <trkpt lat="45.09665" lon="2.64507">
        <ele>1722.34</ele>
        <time>2014-10-20T10:21:31Z</time>
      </trkpt>
      <trkpt lat="45.09675" lon="2.64513">
        <ele>1719.46</ele>
        <time>2014-10-20T10:21:49Z</time>
      </trkpt>
      <trkpt lat="45.09681" lon="2.64523">
        <ele>1715.61</ele>
        <time>2014-10-20T10:22:04Z</time>
      </trkpt>
      <trkpt lat="45.09688" lon="2.64532">
        <ele>1712.73</ele>
        <time>2014-10-20T10:22:19Z</time>
      </trkpt>
      <trkpt lat="45.09697" lon="2.64541">
        <ele>1709.84</ele>
        <time>2014-10-20T10:22:31Z</time>
      </trkpt>
      <trkpt lat="45.09698" lon="2.64542">
        <ele>1709.84</ele>
        <time>2014-10-20T10:22:46Z</time>
      </trkpt>
      <trkpt lat="45.09701" lon="2.64546">
        <ele>1707.92</ele>
        <time>2014-10-20T10:22:51Z</time>
      </trkpt>
      <trkpt lat="45.09703" lon="2.64549">
        <ele>1706.96</ele>
        <time>2014-10-20T10:22:54Z</time>
      </trkpt>
      <trkpt lat="45.09719" lon="2.64564">
        <ele>1705.04</ele>
        <time>2014-10-20T10:23:12Z</time>
      </trkpt>
      <trkpt lat="45.09734" lon="2.64578">
        <ele>1701.67</ele>
        <time>2014-10-20T10:23:28Z</time>
      </trkpt>
      <trkpt lat="45.09748" lon="2.64585">
        <ele>1701.19</ele>
        <time>2014-10-20T10:23:46Z</time>
      </trkpt>
      <trkpt lat="45.09749" lon="2.64585">
        <ele>1700.23</ele>
        <time>2014-10-20T10:24:09Z</time>
      </trkpt>
      <trkpt lat="45.09751" lon="2.64584">
        <ele>1698.79</ele>
        <time>2014-10-20T10:24:30Z</time>
      </trkpt>
      <trkpt lat="45.09754" lon="2.64577">
        <ele>1696.38</ele>
        <time>2014-10-20T10:24:52Z</time>
      </trkpt>
      <trkpt lat="45.09758" lon="2.64572">
        <ele>1693.5</ele>
        <time>2014-10-20T10:25:10Z</time>
      </trkpt>
      <trkpt lat="45.09759" lon="2.64573">
        <ele>1693.02</ele>
        <time>2014-10-20T10:25:12Z</time>
      </trkpt>
      <trkpt lat="45.09762" lon="2.64585">
        <ele>1691.58</ele>
        <time>2014-10-20T10:25:25Z</time>
      </trkpt>
      <trkpt lat="45.09762" lon="2.64588">
        <ele>1692.06</ele>
        <time>2014-10-20T10:25:27Z</time>
      </trkpt>
      <trkpt lat="45.09766" lon="2.64606">
        <ele>1692.06</ele>
        <time>2014-10-20T10:25:38Z</time>
      </trkpt>
      <trkpt lat="45.09777" lon="2.64626">
        <ele>1689.17</ele>
        <time>2014-10-20T10:25:53Z</time>
      </trkpt>
      <trkpt lat="45.09787" lon="2.64648">
        <ele>1686.77</ele>
        <time>2014-10-20T10:26:09Z</time>
      </trkpt>
      <trkpt lat="45.0979" lon="2.64653">
        <ele>1686.29</ele>
        <time>2014-10-20T10:26:13Z</time>
      </trkpt>
      <trkpt lat="45.09794" lon="2.6466">
        <ele>1685.33</ele>
        <time>2014-10-20T10:26:18Z</time>
      </trkpt>
      <trkpt lat="45.09802" lon="2.64678">
        <ele>1683.89</ele>
        <time>2014-10-20T10:26:30Z</time>
      </trkpt>
      <trkpt lat="45.09804" lon="2.64685">
        <ele>1683.41</ele>
        <time>2014-10-20T10:26:34Z</time>
      </trkpt>
      <trkpt lat="45.09813" lon="2.64707">
        <ele>1681.48</ele>
        <time>2014-10-20T10:26:50Z</time>
      </trkpt>
      <trkpt lat="45.09816" lon="2.64714">
        <ele>1680.52</ele>
        <time>2014-10-20T10:26:56Z</time>
      </trkpt>
      <trkpt lat="45.09818" lon="2.64716">
        <ele>1680.52</ele>
        <time>2014-10-20T10:26:59Z</time>
      </trkpt>
      <trkpt lat="45.09821" lon="2.64721">
        <ele>1679.08</ele>
        <time>2014-10-20T10:27:06Z</time>
      </trkpt>
      <trkpt lat="45.09827" lon="2.64729">
        <ele>1677.16</ele>
        <time>2014-10-20T10:27:16Z</time>
      </trkpt>
      <trkpt lat="45.09829" lon="2.64733">
        <ele>1677.16</ele>
        <time>2014-10-20T10:27:19Z</time>
      </trkpt>
      <trkpt lat="45.0983" lon="2.64742">
        <ele>1676.68</ele>
        <time>2014-10-20T10:27:28Z</time>
      </trkpt>
      <trkpt lat="45.09832" lon="2.6475">
        <ele>1676.2</ele>
        <time>2014-10-20T10:27:33Z</time>
      </trkpt>
      <trkpt lat="45.09838" lon="2.64782">
        <ele>1677.16</ele>
        <time>2014-10-20T10:27:55Z</time>
      </trkpt>
      <trkpt lat="45.09838" lon="2.64783">
        <ele>1676.2</ele>
        <time>2014-10-20T10:28:15Z</time>
      </trkpt>
      <trkpt lat="45.09839" lon="2.64784">
        <ele>1676.68</ele>
        <time>2014-10-20T10:29:06Z</time>
      </trkpt>
      <trkpt lat="45.09839" lon="2.64784">
        <ele>1676.2</ele>
        <time>2014-10-20T10:29:16Z</time>
      </trkpt>
      <trkpt lat="45.09839" lon="2.64781">
        <ele>1676.68</ele>
        <time>2014-10-20T10:29:31Z</time>
      </trkpt>
      <trkpt lat="45.09844" lon="2.64789">
        <ele>1676.2</ele>
        <time>2014-10-20T10:29:48Z</time>
      </trkpt>
      <trkpt lat="45.09844" lon="2.6479">
        <ele>1676.68</ele>
        <time>2014-10-20T10:29:49Z</time>
      </trkpt>
      <trkpt lat="45.09845" lon="2.64796">
        <ele>1675.72</ele>
        <time>2014-10-20T10:29:53Z</time>
      </trkpt>
      <trkpt lat="45.09851" lon="2.64806">
        <ele>1674.75</ele>
        <time>2014-10-20T10:30:01Z</time>
      </trkpt>
      <trkpt lat="45.0987" lon="2.64831">
        <ele>1674.75</ele>
        <time>2014-10-20T10:30:22Z</time>
      </trkpt>
      <trkpt lat="45.09873" lon="2.64836">
        <ele>1675.23</ele>
        <time>2014-10-20T10:30:27Z</time>
      </trkpt>
      <trkpt lat="45.0988" lon="2.64847">
        <ele>1676.2</ele>
        <time>2014-10-20T10:30:38Z</time>
      </trkpt>
      <trkpt lat="45.09893" lon="2.64873">
        <ele>1675.72</ele>
        <time>2014-10-20T10:30:56Z</time>
      </trkpt>
      <trkpt lat="45.09903" lon="2.64903">
        <ele>1675.72</ele>
        <time>2014-10-20T10:31:15Z</time>
      </trkpt>
      <trkpt lat="45.09909" lon="2.6492">
        <ele>1676.2</ele>
        <time>2014-10-20T10:31:27Z</time>
      </trkpt>
      <trkpt lat="45.09909" lon="2.64923">
        <ele>1676.68</ele>
        <time>2014-10-20T10:31:29Z</time>
      </trkpt>
      <trkpt lat="45.09912" lon="2.64926">
        <ele>1676.68</ele>
        <time>2014-10-20T10:31:32Z</time>
      </trkpt>
      <trkpt lat="45.09917" lon="2.64942">
        <ele>1676.2</ele>
        <time>2014-10-20T10:31:43Z</time>
      </trkpt>
      <trkpt lat="45.09919" lon="2.64948">
        <ele>1675.72</ele>
        <time>2014-10-20T10:31:47Z</time>
      </trkpt>
      <trkpt lat="45.09924" lon="2.64957">
        <ele>1674.75</ele>
        <time>2014-10-20T10:31:59Z</time>
      </trkpt>
      <trkpt lat="45.09927" lon="2.64965">
        <ele>1673.79</ele>
        <time>2014-10-20T10:32:05Z</time>
      </trkpt>
      <trkpt lat="45.09928" lon="2.64968">
        <ele>1672.83</ele>
        <time>2014-10-20T10:32:08Z</time>
      </trkpt>
      <trkpt lat="45.0993" lon="2.64972">
        <ele>1673.31</ele>
        <time>2014-10-20T10:32:11Z</time>
      </trkpt>
      <trkpt lat="45.09934" lon="2.64994">
        <ele>1673.31</ele>
        <time>2014-10-20T10:32:23Z</time>
      </trkpt>
      <trkpt lat="45.09936" lon="2.65009">
        <ele>1673.79</ele>
        <time>2014-10-20T10:32:32Z</time>
      </trkpt>
      <trkpt lat="45.09945" lon="2.65041">
        <ele>1673.79</ele>
        <time>2014-10-20T10:32:52Z</time>
      </trkpt>
      <trkpt lat="45.09948" lon="2.65048">
        <ele>1672.83</ele>
        <time>2014-10-20T10:32:57Z</time>
      </trkpt>
      <trkpt lat="45.09957" lon="2.65066">
        <ele>1673.31</ele>
        <time>2014-10-20T10:33:11Z</time>
      </trkpt>
      <trkpt lat="45.09959" lon="2.65067">
        <ele>1673.31</ele>
        <time>2014-10-20T10:33:13Z</time>
      </trkpt>
      <trkpt lat="45.09971" lon="2.65089">
        <ele>1670.91</ele>
        <time>2014-10-20T10:33:31Z</time>
      </trkpt>
      <trkpt lat="45.09974" lon="2.65094">
        <ele>1669.95</ele>
        <time>2014-10-20T10:33:35Z</time>
      </trkpt>
      <trkpt lat="45.09976" lon="2.65096">
        <ele>1670.43</ele>
        <time>2014-10-20T10:33:37Z</time>
      </trkpt>
      <trkpt lat="45.09981" lon="2.65106">
        <ele>1668.99</ele>
        <time>2014-10-20T10:33:46Z</time>
      </trkpt>
      <trkpt lat="45.09987" lon="2.65113">
        <ele>1668.02</ele>
        <time>2014-10-20T10:33:53Z</time>
      </trkpt>
      <trkpt lat="45.09992" lon="2.65127">
        <ele>1667.54</ele>
        <time>2014-10-20T10:34:02Z</time>
      </trkpt>
      <trkpt lat="45.09999" lon="2.65148">
        <ele>1667.06</ele>
        <time>2014-10-20T10:34:14Z</time>
      </trkpt>
      <trkpt lat="45.10002" lon="2.65157">
        <ele>1666.1</ele>
        <time>2014-10-20T10:34:20Z</time>
      </trkpt>
      <trkpt lat="45.10005" lon="2.65162">
        <ele>1666.1</ele>
        <time>2014-10-20T10:34:23Z</time>
      </trkpt>
      <trkpt lat="45.10012" lon="2.65176">
        <ele>1665.14</ele>
        <time>2014-10-20T10:34:33Z</time>
      </trkpt>
      <trkpt lat="45.10023" lon="2.65199">
        <ele>1664.18</ele>
        <time>2014-10-20T10:34:49Z</time>
      </trkpt>
      <trkpt lat="45.10024" lon="2.65203">
        <ele>1663.22</ele>
        <time>2014-10-20T10:34:52Z</time>
      </trkpt>
      <trkpt lat="45.10042" lon="2.65226">
        <ele>1662.26</ele>
        <time>2014-10-20T10:35:11Z</time>
      </trkpt>
      <trkpt lat="45.1005" lon="2.65236">
        <ele>1662.26</ele>
        <time>2014-10-20T10:35:20Z</time>
      </trkpt>
      <trkpt lat="45.10058" lon="2.65245">
        <ele>1661.78</ele>
        <time>2014-10-20T10:35:29Z</time>
      </trkpt>
      <trkpt lat="45.10062" lon="2.65251">
        <ele>1661.78</ele>
        <time>2014-10-20T10:35:34Z</time>
      </trkpt>
      <trkpt lat="45.10065" lon="2.65258">
        <ele>1661.3</ele>
        <time>2014-10-20T10:35:40Z</time>
      </trkpt>
      <trkpt lat="45.10068" lon="2.65263">
        <ele>1661.3</ele>
        <time>2014-10-20T10:35:44Z</time>
      </trkpt>
      <trkpt lat="45.10072" lon="2.65267">
        <ele>1661.78</ele>
        <time>2014-10-20T10:35:49Z</time>
      </trkpt>
      <trkpt lat="45.10087" lon="2.65275">
        <ele>1659.37</ele>
        <time>2014-10-20T10:36:05Z</time>
      </trkpt>
      <trkpt lat="45.10099" lon="2.65283">
        <ele>1656.97</ele>
        <time>2014-10-20T10:36:17Z</time>
      </trkpt>
      <trkpt lat="45.10103" lon="2.65285">
        <ele>1656.49</ele>
        <time>2014-10-20T10:36:21Z</time>
      </trkpt>
      <trkpt lat="45.10109" lon="2.65291">
        <ele>1655.53</ele>
        <time>2014-10-20T10:36:29Z</time>
      </trkpt>
      <trkpt lat="45.10123" lon="2.65297">
        <ele>1654.09</ele>
        <time>2014-10-20T10:36:40Z</time>
      </trkpt>
      <trkpt lat="45.10135" lon="2.65304">
        <ele>1653.6</ele>
        <time>2014-10-20T10:37:01Z</time>
      </trkpt>
      <trkpt lat="45.10135" lon="2.65304">
        <ele>1653.12</ele>
        <time>2014-10-20T10:37:33Z</time>
      </trkpt>
      <trkpt lat="45.10136" lon="2.65304">
        <ele>1653.12</ele>
        <time>2014-10-20T10:37:37Z</time>
      </trkpt>
      <trkpt lat="45.10139" lon="2.65306">
        <ele>1652.64</ele>
        <time>2014-10-20T10:37:40Z</time>
      </trkpt>
      <trkpt lat="45.10155" lon="2.65321">
        <ele>1651.2</ele>
        <time>2014-10-20T10:38:00Z</time>
      </trkpt>
      <trkpt lat="45.10158" lon="2.6532">
        <ele>1651.2</ele>
        <time>2014-10-20T10:38:06Z</time>
      </trkpt>
      <trkpt lat="45.10165" lon="2.65331">
        <ele>1649.28</ele>
        <time>2014-10-20T10:38:22Z</time>
      </trkpt>
      <trkpt lat="45.10172" lon="2.65338">
        <ele>1647.36</ele>
        <time>2014-10-20T10:38:33Z</time>
      </trkpt>
      <trkpt lat="45.10185" lon="2.65357">
        <ele>1645.43</ele>
        <time>2014-10-20T10:38:50Z</time>
      </trkpt>
      <trkpt lat="45.10186" lon="2.6536">
        <ele>1644.47</ele>
        <time>2014-10-20T10:38:55Z</time>
      </trkpt>
      <trkpt lat="45.10189" lon="2.65362">
        <ele>1643.99</ele>
        <time>2014-10-20T10:38:59Z</time>
      </trkpt>
      <trkpt lat="45.10192" lon="2.65364">
        <ele>1643.51</ele>
        <time>2014-10-20T10:39:02Z</time>
      </trkpt>
      <trkpt lat="45.10196" lon="2.65368">
        <ele>1643.51</ele>
        <time>2014-10-20T10:39:07Z</time>
      </trkpt>
      <trkpt lat="45.10201" lon="2.65371">
        <ele>1642.55</ele>
        <time>2014-10-20T10:39:12Z</time>
      </trkpt>
      <trkpt lat="45.10202" lon="2.65373">
        <ele>1642.55</ele>
        <time>2014-10-20T10:39:14Z</time>
      </trkpt>
      <trkpt lat="45.10211" lon="2.65382">
        <ele>1642.07</ele>
        <time>2014-10-20T10:39:26Z</time>
      </trkpt>
      <trkpt lat="45.10215" lon="2.65384">
        <ele>1641.11</ele>
        <time>2014-10-20T10:39:30Z</time>
      </trkpt>
      <trkpt lat="45.10226" lon="2.65385">
        <ele>1639.67</ele>
        <time>2014-10-20T10:39:42Z</time>
      </trkpt>
      <trkpt lat="45.10236" lon="2.65385">
        <ele>1638.7</ele>
        <time>2014-10-20T10:39:58Z</time>
      </trkpt>
      <trkpt lat="45.10239" lon="2.65388">
        <ele>1638.22</ele>
        <time>2014-10-20T10:40:13Z</time>
      </trkpt>
      <trkpt lat="45.10237" lon="2.654">
        <ele>1635.82</ele>
        <time>2014-10-20T10:40:32Z</time>
      </trkpt>
      <trkpt lat="45.10235" lon="2.65405">
        <ele>1634.38</ele>
        <time>2014-10-20T10:40:45Z</time>
      </trkpt>
      <trkpt lat="45.10233" lon="2.65412">
        <ele>1632.46</ele>
        <time>2014-10-20T10:41:04Z</time>
      </trkpt>
      <trkpt lat="45.10231" lon="2.65421">
        <ele>1629.57</ele>
        <time>2014-10-20T10:41:20Z</time>
      </trkpt>
      <trkpt lat="45.10229" lon="2.65425">
        <ele>1627.65</ele>
        <time>2014-10-20T10:41:34Z</time>
      </trkpt>
      <trkpt lat="45.10232" lon="2.65428">
        <ele>1627.17</ele>
        <time>2014-10-20T10:41:40Z</time>
      </trkpt>
      <trkpt lat="45.1024" lon="2.65433">
        <ele>1623.32</ele>
        <time>2014-10-20T10:41:53Z</time>
      </trkpt>
      <trkpt lat="45.10249" lon="2.65438">
        <ele>1620.44</ele>
        <time>2014-10-20T10:42:08Z</time>
      </trkpt>
      <trkpt lat="45.10254" lon="2.65445">
        <ele>1618.04</ele>
        <time>2014-10-20T10:42:21Z</time>
      </trkpt>
      <trkpt lat="45.10253" lon="2.65457">
        <ele>1615.15</ele>
        <time>2014-10-20T10:42:35Z</time>
      </trkpt>
      <trkpt lat="45.10254" lon="2.65461">
        <ele>1612.27</ele>
        <time>2014-10-20T10:42:50Z</time>
      </trkpt>
      <trkpt lat="45.10255" lon="2.65472">
        <ele>1609.86</ele>
        <time>2014-10-20T10:43:05Z</time>
      </trkpt>
      <trkpt lat="45.10258" lon="2.65486">
        <ele>1606.02</ele>
        <time>2014-10-20T10:43:18Z</time>
      </trkpt>
      <trkpt lat="45.1026" lon="2.65499">
        <ele>1603.14</ele>
        <time>2014-10-20T10:43:32Z</time>
      </trkpt>
      <trkpt lat="45.10261" lon="2.65506">
        <ele>1601.69</ele>
        <time>2014-10-20T10:43:39Z</time>
      </trkpt>
      <trkpt lat="45.10263" lon="2.65519">
        <ele>1598.81</ele>
        <time>2014-10-20T10:43:51Z</time>
      </trkpt>
      <trkpt lat="45.10263" lon="2.6553">
        <ele>1595.93</ele>
        <time>2014-10-20T10:44:01Z</time>
      </trkpt>
      <trkpt lat="45.10268" lon="2.65545">
        <ele>1593.04</ele>
        <time>2014-10-20T10:44:17Z</time>
      </trkpt>
      <trkpt lat="45.10273" lon="2.65557">
        <ele>1590.16</ele>
        <time>2014-10-20T10:44:33Z</time>
      </trkpt>
      <trkpt lat="45.10279" lon="2.65577">
        <ele>1586.79</ele>
        <time>2014-10-20T10:44:51Z</time>
      </trkpt>
      <trkpt lat="45.10284" lon="2.65591">
        <ele>1585.35</ele>
        <time>2014-10-20T10:45:07Z</time>
      </trkpt>
      <trkpt lat="45.10283" lon="2.65601">
        <ele>1582.95</ele>
        <time>2014-10-20T10:45:21Z</time>
      </trkpt>
      <trkpt lat="45.10288" lon="2.65616">
        <ele>1582.95</ele>
        <time>2014-10-20T10:45:32Z</time>
      </trkpt>
      <trkpt lat="45.10293" lon="2.65626">
        <ele>1581.99</ele>
        <time>2014-10-20T10:45:40Z</time>
      </trkpt>
      <trkpt lat="45.10295" lon="2.65631">
        <ele>1581.51</ele>
        <time>2014-10-20T10:45:43Z</time>
      </trkpt>
      <trkpt lat="45.10298" lon="2.65643">
        <ele>1579.58</ele>
        <time>2014-10-20T10:45:53Z</time>
      </trkpt>
      <trkpt lat="45.10299" lon="2.65652">
        <ele>1578.62</ele>
        <time>2014-10-20T10:45:59Z</time>
      </trkpt>
      <trkpt lat="45.10299" lon="2.65655">
        <ele>1578.62</ele>
        <time>2014-10-20T10:46:01Z</time>
      </trkpt>
      <trkpt lat="45.10303" lon="2.6567">
        <ele>1579.1</ele>
        <time>2014-10-20T10:46:11Z</time>
      </trkpt>
      <trkpt lat="45.10302" lon="2.65678">
        <ele>1578.14</ele>
        <time>2014-10-20T10:46:17Z</time>
      </trkpt>
      <trkpt lat="45.10307" lon="2.65697">
        <ele>1578.14</ele>
        <time>2014-10-20T10:46:29Z</time>
      </trkpt>
      <trkpt lat="45.1032" lon="2.65723">
        <ele>1581.03</ele>
        <time>2014-10-20T10:46:49Z</time>
      </trkpt>
      <trkpt lat="45.10321" lon="2.65725">
        <ele>1581.51</ele>
        <time>2014-10-20T10:46:54Z</time>
      </trkpt>
      <trkpt lat="45.10324" lon="2.65729">
        <ele>1582.95</ele>
        <time>2014-10-20T10:46:59Z</time>
      </trkpt>
      <trkpt lat="45.10324" lon="2.65735">
        <ele>1581.99</ele>
        <time>2014-10-20T10:47:05Z</time>
      </trkpt>
      <trkpt lat="45.10326" lon="2.65743">
        <ele>1581.99</ele>
        <time>2014-10-20T10:47:11Z</time>
      </trkpt>
      <trkpt lat="45.1033" lon="2.6576">
        <ele>1580.06</ele>
        <time>2014-10-20T10:47:27Z</time>
      </trkpt>
      <trkpt lat="45.10335" lon="2.6578">
        <ele>1581.99</ele>
        <time>2014-10-20T10:47:47Z</time>
      </trkpt>
      <trkpt lat="45.10336" lon="2.65783">
        <ele>1581.03</ele>
        <time>2014-10-20T10:47:56Z</time>
      </trkpt>
      <trkpt lat="45.10336" lon="2.65795">
        <ele>1581.99</ele>
        <time>2014-10-20T10:48:04Z</time>
      </trkpt>
      <trkpt lat="45.10337" lon="2.65814">
        <ele>1583.91</ele>
        <time>2014-10-20T10:48:20Z</time>
      </trkpt>
      <trkpt lat="45.10337" lon="2.65833">
        <ele>1583.43</ele>
        <time>2014-10-20T10:48:38Z</time>
      </trkpt>
      <trkpt lat="45.10339" lon="2.65845">
        <ele>1580.54</ele>
        <time>2014-10-20T10:48:55Z</time>
      </trkpt>
      <trkpt lat="45.10339" lon="2.65853">
        <ele>1581.03</ele>
        <time>2014-10-20T10:49:16Z</time>
      </trkpt>
      <trkpt lat="45.1034" lon="2.65855">
        <ele>1580.54</ele>
        <time>2014-10-20T10:49:47Z</time>
      </trkpt>
      <trkpt lat="45.10341" lon="2.65856">
        <ele>1580.54</ele>
        <time>2014-10-20T10:50:11Z</time>
      </trkpt>
      <trkpt lat="45.10344" lon="2.65862">
        <ele>1579.58</ele>
        <time>2014-10-20T10:50:32Z</time>
      </trkpt>
      <trkpt lat="45.10349" lon="2.65865">
        <ele>1577.66</ele>
        <time>2014-10-20T10:50:51Z</time>
      </trkpt>
      <trkpt lat="45.10354" lon="2.65871">
        <ele>1574.78</ele>
        <time>2014-10-20T10:51:06Z</time>
      </trkpt>
      <trkpt lat="45.10359" lon="2.65878">
        <ele>1574.3</ele>
        <time>2014-10-20T10:51:17Z</time>
      </trkpt>
      <trkpt lat="45.10362" lon="2.65881">
        <ele>1573.33</ele>
        <time>2014-10-20T10:51:20Z</time>
      </trkpt>
      <trkpt lat="45.10372" lon="2.65886">
        <ele>1574.78</ele>
        <time>2014-10-20T10:51:27Z</time>
      </trkpt>
      <trkpt lat="45.10382" lon="2.65905">
        <ele>1572.37</ele>
        <time>2014-10-20T10:51:42Z</time>
      </trkpt>
      <trkpt lat="45.10384" lon="2.65915">
        <ele>1571.89</ele>
        <time>2014-10-20T10:51:50Z</time>
      </trkpt>
      <trkpt lat="45.10384" lon="2.65922">
        <ele>1569.97</ele>
        <time>2014-10-20T10:52:01Z</time>
      </trkpt>
      <trkpt lat="45.10389" lon="2.65936">
        <ele>1567.09</ele>
        <time>2014-10-20T10:52:17Z</time>
      </trkpt>
      <trkpt lat="45.10389" lon="2.65937">
        <ele>1567.09</ele>
        <time>2014-10-20T10:52:18Z</time>
      </trkpt>
      <trkpt lat="45.10396" lon="2.65954">
        <ele>1564.2</ele>
        <time>2014-10-20T10:52:32Z</time>
      </trkpt>
      <trkpt lat="45.104" lon="2.65971">
        <ele>1561.8</ele>
        <time>2014-10-20T10:52:49Z</time>
      </trkpt>
      <trkpt lat="45.10404" lon="2.65979">
        <ele>1561.32</ele>
        <time>2014-10-20T10:52:56Z</time>
      </trkpt>
      <trkpt lat="45.1041" lon="2.65999">
        <ele>1557.95</ele>
        <time>2014-10-20T10:53:12Z</time>
      </trkpt>
      <trkpt lat="45.10413" lon="2.66014">
        <ele>1555.07</ele>
        <time>2014-10-20T10:53:23Z</time>
      </trkpt>
      <trkpt lat="45.10413" lon="2.66016">
        <ele>1555.07</ele>
        <time>2014-10-20T10:53:24Z</time>
      </trkpt>
      <trkpt lat="45.10413" lon="2.66021">
        <ele>1554.59</ele>
        <time>2014-10-20T10:53:27Z</time>
      </trkpt>
      <trkpt lat="45.10412" lon="2.66025">
        <ele>1554.11</ele>
        <time>2014-10-20T10:53:29Z</time>
      </trkpt>
      <trkpt lat="45.10413" lon="2.6603">
        <ele>1553.63</ele>
        <time>2014-10-20T10:53:33Z</time>
      </trkpt>
      <trkpt lat="45.10419" lon="2.66051">
        <ele>1550.74</ele>
        <time>2014-10-20T10:53:47Z</time>
      </trkpt>
      <trkpt lat="45.10423" lon="2.66063">
        <ele>1549.3</ele>
        <time>2014-10-20T10:53:57Z</time>
      </trkpt>
      <trkpt lat="45.10425" lon="2.66079">
        <ele>1546.42</ele>
        <time>2014-10-20T10:54:08Z</time>
      </trkpt>
      <trkpt lat="45.10424" lon="2.66088">
        <ele>1545.94</ele>
        <time>2014-10-20T10:54:13Z</time>
      </trkpt>
      <trkpt lat="45.10426" lon="2.661">
        <ele>1544.98</ele>
        <time>2014-10-20T10:54:29Z</time>
      </trkpt>
      <trkpt lat="45.10429" lon="2.66105">
        <ele>1544.01</ele>
        <time>2014-10-20T10:54:37Z</time>
      </trkpt>
      <trkpt lat="45.1043" lon="2.66109">
        <ele>1544.01</ele>
        <time>2014-10-20T10:54:40Z</time>
      </trkpt>
      <trkpt lat="45.10437" lon="2.66127">
        <ele>1541.61</ele>
        <time>2014-10-20T10:54:51Z</time>
      </trkpt>
      <trkpt lat="45.10438" lon="2.66152">
        <ele>1540.17</ele>
        <time>2014-10-20T10:55:05Z</time>
      </trkpt>
      <trkpt lat="45.1044" lon="2.66167">
        <ele>1539.21</ele>
        <time>2014-10-20T10:55:25Z</time>
      </trkpt>
      <trkpt lat="45.10437" lon="2.66174">
        <ele>1539.21</ele>
        <time>2014-10-20T10:55:41Z</time>
      </trkpt>
      <trkpt lat="45.10437" lon="2.66172">
        <ele>1538.25</ele>
        <time>2014-10-20T10:56:04Z</time>
      </trkpt>
      <trkpt lat="45.10436" lon="2.66174">
        <ele>1538.25</ele>
        <time>2014-10-20T10:56:29Z</time>
      </trkpt>
      <trkpt lat="45.10437" lon="2.66174">
        <ele>1538.25</ele>
        <time>2014-10-20T10:57:14Z</time>
      </trkpt>
      <trkpt lat="45.10437" lon="2.66175">
        <ele>1538.73</ele>
        <time>2014-10-20T10:57:21Z</time>
      </trkpt>
      <trkpt lat="45.10437" lon="2.66175">
        <ele>1537.77</ele>
        <time>2014-10-20T10:57:23Z</time>
      </trkpt>
      <trkpt lat="45.10429" lon="2.66181">
        <ele>1537.77</ele>
        <time>2014-10-20T10:57:42Z</time>
      </trkpt>
      <trkpt lat="45.10433" lon="2.66175">
        <ele>1537.77</ele>
        <time>2014-10-20T10:58:01Z</time>
      </trkpt>
      <trkpt lat="45.10437" lon="2.66177">
        <ele>1536.8</ele>
        <time>2014-10-20T10:58:16Z</time>
      </trkpt>
      <trkpt lat="45.10437" lon="2.66179">
        <ele>1536.8</ele>
        <time>2014-10-20T10:58:17Z</time>
      </trkpt>
      <trkpt lat="45.10441" lon="2.66205">
        <ele>1534.88</ele>
        <time>2014-10-20T10:58:38Z</time>
      </trkpt>
      <trkpt lat="45.10441" lon="2.66205">
        <ele>1534.88</ele>
        <time>2014-10-20T10:58:52Z</time>
      </trkpt>
      <trkpt lat="45.10441" lon="2.66205">
        <ele>1539.21</ele>
        <time>2014-10-20T10:58:58Z</time>
      </trkpt>
      <trkpt lat="45.10441" lon="2.66205">
        <ele>1533.44</ele>
        <time>2014-10-20T10:58:59Z</time>
      </trkpt>
      <trkpt lat="45.10441" lon="2.66205">
        <ele>1536.8</ele>
        <time>2014-10-20T10:59:00Z</time>
      </trkpt>
      <trkpt lat="45.10441" lon="2.66205">
        <ele>1528.63</ele>
        <time>2014-10-20T10:59:01Z</time>
      </trkpt>
      <trkpt lat="45.10441" lon="2.66205">
        <ele>1532.96</ele>
        <time>2014-10-20T10:59:02Z</time>
      </trkpt>
      <trkpt lat="45.10441" lon="2.66205">
        <ele>1537.77</ele>
        <time>2014-10-20T10:59:04Z</time>
      </trkpt>
      <trkpt lat="45.10441" lon="2.66205">
        <ele>1536.32</ele>
        <time>2014-10-20T10:59:05Z</time>
      </trkpt>
      <trkpt lat="45.10441" lon="2.66205">
        <ele>1540.65</ele>
        <time>2014-10-20T10:59:07Z</time>
      </trkpt>
      <trkpt lat="45.10441" lon="2.66205">
        <ele>1534.88</ele>
        <time>2014-10-20T10:59:08Z</time>
      </trkpt>
      <trkpt lat="45.10441" lon="2.66205">
        <ele>1528.15</ele>
        <time>2014-10-20T10:59:12Z</time>
      </trkpt>
      <trkpt lat="45.10441" lon="2.66205">
        <ele>1535.84</ele>
        <time>2014-10-20T10:59:13Z</time>
      </trkpt>
      <trkpt lat="45.10442" lon="2.66205">
        <ele>1539.21</ele>
        <time>2014-10-20T10:59:28Z</time>
      </trkpt>
      <trkpt lat="45.10443" lon="2.66205">
        <ele>1534.88</ele>
        <time>2014-10-20T10:59:29Z</time>
      </trkpt>
      <trkpt lat="45.10443" lon="2.66205">
        <ele>1539.69</ele>
        <time>2014-10-20T10:59:30Z</time>
      </trkpt>
      <trkpt lat="45.10443" lon="2.66205">
        <ele>1536.8</ele>
        <time>2014-10-20T10:59:32Z</time>
      </trkpt>
      <trkpt lat="45.10443" lon="2.66206">
        <ele>1534.88</ele>
        <time>2014-10-20T10:59:34Z</time>
      </trkpt>
      <trkpt lat="45.10443" lon="2.66205">
        <ele>1534.4</ele>
        <time>2014-10-20T10:59:47Z</time>
      </trkpt>
      <trkpt lat="45.10443" lon="2.66205">
        <ele>1533.92</ele>
        <time>2014-10-20T11:00:01Z</time>
      </trkpt>
      <trkpt lat="45.10443" lon="2.6621">
        <ele>1533.44</ele>
        <time>2014-10-20T11:00:04Z</time>
      </trkpt>
      <trkpt lat="45.10437" lon="2.66229">
        <ele>1534.4</ele>
        <time>2014-10-20T11:00:20Z</time>
      </trkpt>
      <trkpt lat="45.10431" lon="2.6624">
        <ele>1537.29</ele>
        <time>2014-10-20T11:00:38Z</time>
      </trkpt>
      <trkpt lat="45.10427" lon="2.66252">
        <ele>1538.25</ele>
        <time>2014-10-20T11:00:49Z</time>
      </trkpt>
      <trkpt lat="45.10424" lon="2.66267">
        <ele>1539.69</ele>
        <time>2014-10-20T11:01:01Z</time>
      </trkpt>
      <trkpt lat="45.10422" lon="2.66268">
        <ele>1540.17</ele>
        <time>2014-10-20T11:01:03Z</time>
      </trkpt>
      <trkpt lat="45.10419" lon="2.66282">
        <ele>1541.61</ele>
        <time>2014-10-20T11:01:14Z</time>
      </trkpt>
      <trkpt lat="45.1042" lon="2.66295">
        <ele>1542.09</ele>
        <time>2014-10-20T11:01:25Z</time>
      </trkpt>
      <trkpt lat="45.1042" lon="2.66301">
        <ele>1542.57</ele>
        <time>2014-10-20T11:01:30Z</time>
      </trkpt>
      <trkpt lat="45.10419" lon="2.66307">
        <ele>1542.57</ele>
        <time>2014-10-20T11:01:35Z</time>
      </trkpt>
      <trkpt lat="45.10418" lon="2.66311">
        <ele>1543.05</ele>
        <time>2014-10-20T11:01:39Z</time>
      </trkpt>
      <trkpt lat="45.10412" lon="2.66333">
        <ele>1544.5</ele>
        <time>2014-10-20T11:02:01Z</time>
      </trkpt>
      <trkpt lat="45.10411" lon="2.66337">
        <ele>1544.98</ele>
        <time>2014-10-20T11:02:04Z</time>
      </trkpt>
      <trkpt lat="45.10409" lon="2.66344">
        <ele>1545.94</ele>
        <time>2014-10-20T11:02:11Z</time>
      </trkpt>
      <trkpt lat="45.10408" lon="2.66362">
        <ele>1547.38</ele>
        <time>2014-10-20T11:02:30Z</time>
      </trkpt>
      <trkpt lat="45.10408" lon="2.66364">
        <ele>1547.86</ele>
        <time>2014-10-20T11:02:32Z</time>
      </trkpt>
      <trkpt lat="45.1041" lon="2.66384">
        <ele>1549.78</ele>
        <time>2014-10-20T11:02:50Z</time>
      </trkpt>
      <trkpt lat="45.10405" lon="2.66397">
        <ele>1552.19</ele>
        <time>2014-10-20T11:03:07Z</time>
      </trkpt>
      <trkpt lat="45.10401" lon="2.6641">
        <ele>1554.59</ele>
        <time>2014-10-20T11:03:27Z</time>
      </trkpt>
      <trkpt lat="45.10405" lon="2.66422">
        <ele>1555.55</ele>
        <time>2014-10-20T11:03:42Z</time>
      </trkpt>
      <trkpt lat="45.10406" lon="2.66434">
        <ele>1556.99</ele>
        <time>2014-10-20T11:03:59Z</time>
      </trkpt>
      <trkpt lat="45.10406" lon="2.66446">
        <ele>1560.84</ele>
        <time>2014-10-20T11:04:13Z</time>
      </trkpt>
      <trkpt lat="45.10409" lon="2.66454">
        <ele>1562.28</ele>
        <time>2014-10-20T11:04:33Z</time>
      </trkpt>
      <trkpt lat="45.10409" lon="2.6646">
        <ele>1565.64</ele>
        <time>2014-10-20T11:04:45Z</time>
      </trkpt>
      <trkpt lat="45.10404" lon="2.66464">
        <ele>1568.05</ele>
        <time>2014-10-20T11:05:04Z</time>
      </trkpt>
      <trkpt lat="45.10406" lon="2.66473">
        <ele>1570.93</ele>
        <time>2014-10-20T11:05:19Z</time>
      </trkpt>
      <trkpt lat="45.10408" lon="2.66485">
        <ele>1571.41</ele>
        <time>2014-10-20T11:05:35Z</time>
      </trkpt>
      <trkpt lat="45.10409" lon="2.66488">
        <ele>1571.41</ele>
        <time>2014-10-20T11:05:37Z</time>
      </trkpt>
      <trkpt lat="45.10406" lon="2.66503">
        <ele>1571.41</ele>
        <time>2014-10-20T11:05:51Z</time>
      </trkpt>
      <trkpt lat="45.10405" lon="2.66508">
        <ele>1571.89</ele>
        <time>2014-10-20T11:05:55Z</time>
      </trkpt>
      <trkpt lat="45.10404" lon="2.66512">
        <ele>1571.89</ele>
        <time>2014-10-20T11:05:58Z</time>
      </trkpt>
      <trkpt lat="45.10406" lon="2.6652">
        <ele>1572.85</ele>
        <time>2014-10-20T11:06:07Z</time>
      </trkpt>
      <trkpt lat="45.10407" lon="2.66522">
        <ele>1572.37</ele>
        <time>2014-10-20T11:06:09Z</time>
      </trkpt>
      <trkpt lat="45.10408" lon="2.6653">
        <ele>1571.89</ele>
        <time>2014-10-20T11:06:14Z</time>
      </trkpt>
      <trkpt lat="45.10411" lon="2.66536">
        <ele>1571.41</ele>
        <time>2014-10-20T11:06:19Z</time>
      </trkpt>
      <trkpt lat="45.10412" lon="2.6654">
        <ele>1571.89</ele>
        <time>2014-10-20T11:06:22Z</time>
      </trkpt>
      <trkpt lat="45.10411" lon="2.66551">
        <ele>1571.89</ele>
        <time>2014-10-20T11:06:29Z</time>
      </trkpt>
      <trkpt lat="45.10418" lon="2.66576">
        <ele>1570.93</ele>
        <time>2014-10-20T11:06:49Z</time>
      </trkpt>
      <trkpt lat="45.10423" lon="2.66593">
        <ele>1570.45</ele>
        <time>2014-10-20T11:07:01Z</time>
      </trkpt>
      <trkpt lat="45.10426" lon="2.66598">
        <ele>1571.41</ele>
        <time>2014-10-20T11:07:05Z</time>
      </trkpt>
      <trkpt lat="45.10428" lon="2.66613">
        <ele>1570.93</ele>
        <time>2014-10-20T11:07:16Z</time>
      </trkpt>
      <trkpt lat="45.10437" lon="2.6663">
        <ele>1572.37</ele>
        <time>2014-10-20T11:07:33Z</time>
      </trkpt>
      <trkpt lat="45.10437" lon="2.66631">
        <ele>1572.85</ele>
        <time>2014-10-20T11:07:35Z</time>
      </trkpt>
      <trkpt lat="45.1044" lon="2.66637">
        <ele>1572.85</ele>
        <time>2014-10-20T11:07:41Z</time>
      </trkpt>
      <trkpt lat="45.1045" lon="2.66652">
        <ele>1569.49</ele>
        <time>2014-10-20T11:08:02Z</time>
      </trkpt>
      <trkpt lat="45.10455" lon="2.66655">
        <ele>1567.57</ele>
        <time>2014-10-20T11:08:26Z</time>
      </trkpt>
      <trkpt lat="45.10456" lon="2.66661">
        <ele>1565.16</ele>
        <time>2014-10-20T11:08:34Z</time>
      </trkpt>
      <trkpt lat="45.10458" lon="2.66679">
        <ele>1562.76</ele>
        <time>2014-10-20T11:08:48Z</time>
      </trkpt>
      <trkpt lat="45.10457" lon="2.66688">
        <ele>1563.24</ele>
        <time>2014-10-20T11:08:54Z</time>
      </trkpt>
      <trkpt lat="45.10463" lon="2.66708">
        <ele>1561.8</ele>
        <time>2014-10-20T11:09:12Z</time>
      </trkpt>
      <trkpt lat="45.10465" lon="2.66725">
        <ele>1558.43</ele>
        <time>2014-10-20T11:09:28Z</time>
      </trkpt>
      <trkpt lat="45.1047" lon="2.66733">
        <ele>1556.51</ele>
        <time>2014-10-20T11:09:46Z</time>
      </trkpt>
      <trkpt lat="45.10477" lon="2.66772">
        <ele>1555.07</ele>
        <time>2014-10-20T11:10:08Z</time>
      </trkpt>
      <trkpt lat="45.10484" lon="2.66805">
        <ele>1555.07</ele>
        <time>2014-10-20T11:10:29Z</time>
      </trkpt>
      <trkpt lat="45.10484" lon="2.66807">
        <ele>1555.07</ele>
        <time>2014-10-20T11:10:31Z</time>
      </trkpt>
      <trkpt lat="45.10485" lon="2.6681">
        <ele>1555.07</ele>
        <time>2014-10-20T11:10:33Z</time>
      </trkpt>
      <trkpt lat="45.10489" lon="2.66823">
        <ele>1555.55</ele>
        <time>2014-10-20T11:10:41Z</time>
      </trkpt>
      <trkpt lat="45.10491" lon="2.66831">
        <ele>1555.55</ele>
        <time>2014-10-20T11:10:46Z</time>
      </trkpt>
      <trkpt lat="45.10492" lon="2.66833">
        <ele>1555.55</ele>
        <time>2014-10-20T11:10:48Z</time>
      </trkpt>
      <trkpt lat="45.10492" lon="2.66836">
        <ele>1556.03</ele>
        <time>2014-10-20T11:11:10Z</time>
      </trkpt>
      <trkpt lat="45.10493" lon="2.66837">
        <ele>1561.8</ele>
        <time>2014-10-20T11:11:28Z</time>
      </trkpt>
      <trkpt lat="45.10493" lon="2.66837">
        <ele>1560.84</ele>
        <time>2014-10-20T11:11:29Z</time>
      </trkpt>
      <trkpt lat="45.10493" lon="2.66837">
        <ele>1556.03</ele>
        <time>2014-10-20T11:11:30Z</time>
      </trkpt>
      <trkpt lat="45.10493" lon="2.66837">
        <ele>1556.51</ele>
        <time>2014-10-20T11:11:31Z</time>
      </trkpt>
      <trkpt lat="45.10493" lon="2.66837">
        <ele>1550.74</ele>
        <time>2014-10-20T11:11:33Z</time>
      </trkpt>
      <trkpt lat="45.10493" lon="2.66837">
        <ele>1560.36</ele>
        <time>2014-10-20T11:11:34Z</time>
      </trkpt>
      <trkpt lat="45.10493" lon="2.66837">
        <ele>1554.11</ele>
        <time>2014-10-20T11:11:35Z</time>
      </trkpt>
      <trkpt lat="45.10493" lon="2.66837">
        <ele>1557.47</ele>
        <time>2014-10-20T11:11:36Z</time>
      </trkpt>
      <trkpt lat="45.10493" lon="2.66837">
        <ele>1546.42</ele>
        <time>2014-10-20T11:11:37Z</time>
      </trkpt>
      <trkpt lat="45.10493" lon="2.66837">
        <ele>1556.99</ele>
        <time>2014-10-20T11:11:38Z</time>
      </trkpt>
      <trkpt lat="45.10494" lon="2.66836">
        <ele>1561.8</ele>
        <time>2014-10-20T11:11:49Z</time>
      </trkpt>
      <trkpt lat="45.10494" lon="2.66836">
        <ele>1556.99</ele>
        <time>2014-10-20T11:11:50Z</time>
      </trkpt>
      <trkpt lat="45.10494" lon="2.66836">
        <ele>1549.78</ele>
        <time>2014-10-20T11:11:52Z</time>
      </trkpt>
      <trkpt lat="45.10494" lon="2.66836">
        <ele>1556.99</ele>
        <time>2014-10-20T11:11:53Z</time>
      </trkpt>
      <trkpt lat="45.10494" lon="2.66836">
        <ele>1555.07</ele>
        <time>2014-10-20T11:12:14Z</time>
      </trkpt>
      <trkpt lat="45.10494" lon="2.66835">
        <ele>1556.51</ele>
        <time>2014-10-20T11:12:23Z</time>
      </trkpt>
      <trkpt lat="45.10501" lon="2.6684">
        <ele>1556.03</ele>
        <time>2014-10-20T11:12:35Z</time>
      </trkpt>
      <trkpt lat="45.10505" lon="2.66846">
        <ele>1556.03</ele>
        <time>2014-10-20T11:12:42Z</time>
      </trkpt>
      <trkpt lat="45.10525" lon="2.66874">
        <ele>1556.51</ele>
        <time>2014-10-20T11:13:04Z</time>
      </trkpt>
      <trkpt lat="45.10543" lon="2.66903">
        <ele>1556.99</ele>
        <time>2014-10-20T11:13:26Z</time>
      </trkpt>
      <trkpt lat="45.10564" lon="2.6693">
        <ele>1556.99</ele>
        <time>2014-10-20T11:13:46Z</time>
      </trkpt>
      <trkpt lat="45.10585" lon="2.66948">
        <ele>1557.95</ele>
        <time>2014-10-20T11:14:06Z</time>
      </trkpt>
      <trkpt lat="45.1061" lon="2.66965">
        <ele>1557.95</ele>
        <time>2014-10-20T11:14:28Z</time>
      </trkpt>
      <trkpt lat="45.10617" lon="2.66972">
        <ele>1557.95</ele>
        <time>2014-10-20T11:14:48Z</time>
      </trkpt>
      <trkpt lat="45.10618" lon="2.66971">
        <ele>1554.11</ele>
        <time>2014-10-20T11:15:34Z</time>
      </trkpt>
      <trkpt lat="45.10618" lon="2.66971">
        <ele>1559.88</ele>
        <time>2014-10-20T11:15:35Z</time>
      </trkpt>
      <trkpt lat="45.10617" lon="2.6697">
        <ele>1555.55</ele>
        <time>2014-10-20T11:15:47Z</time>
      </trkpt>
      <trkpt lat="45.10617" lon="2.6697">
        <ele>1558.92</ele>
        <time>2014-10-20T11:15:48Z</time>
      </trkpt>
      <trkpt lat="45.10618" lon="2.66973">
        <ele>1557.95</ele>
        <time>2014-10-20T11:15:57Z</time>
      </trkpt>
      <trkpt lat="45.10637" lon="2.6702">
        <ele>1559.4</ele>
        <time>2014-10-20T11:16:27Z</time>
      </trkpt>
      <trkpt lat="45.10658" lon="2.67051">
        <ele>1560.84</ele>
        <time>2014-10-20T11:16:52Z</time>
      </trkpt>
      <trkpt lat="45.10675" lon="2.67074">
        <ele>1562.28</ele>
        <time>2014-10-20T11:17:12Z</time>
      </trkpt>
      <trkpt lat="45.107" lon="2.67094">
        <ele>1562.28</ele>
        <time>2014-10-20T11:17:37Z</time>
      </trkpt>
      <trkpt lat="45.10702" lon="2.67104">
        <ele>1564.2</ele>
        <time>2014-10-20T11:17:58Z</time>
      </trkpt>
      <trkpt lat="45.10697" lon="2.671">
        <ele>1567.57</ele>
        <time>2014-10-20T11:18:10Z</time>
      </trkpt>
      <trkpt lat="45.10694" lon="2.67106">
        <ele>1570.93</ele>
        <time>2014-10-20T11:18:26Z</time>
      </trkpt>
      <trkpt lat="45.10692" lon="2.67112">
        <ele>1573.82</ele>
        <time>2014-10-20T11:18:43Z</time>
      </trkpt>
      <trkpt lat="45.10686" lon="2.67126">
        <ele>1577.18</ele>
        <time>2014-10-20T11:19:03Z</time>
      </trkpt>
      <trkpt lat="45.1068" lon="2.67134">
        <ele>1580.06</ele>
        <time>2014-10-20T11:19:21Z</time>
      </trkpt>
      <trkpt lat="45.10674" lon="2.67143">
        <ele>1581.03</ele>
        <time>2014-10-20T11:19:42Z</time>
      </trkpt>
      <trkpt lat="45.10674" lon="2.67144">
        <ele>1581.03</ele>
        <time>2014-10-20T11:20:05Z</time>
      </trkpt>
      <trkpt lat="45.10676" lon="2.67142">
        <ele>1581.03</ele>
        <time>2014-10-20T11:20:14Z</time>
      </trkpt>
      <trkpt lat="45.10678" lon="2.6714">
        <ele>1580.06</ele>
        <time>2014-10-20T11:20:32Z</time>
      </trkpt>
      <trkpt lat="45.10678" lon="2.67141">
        <ele>1580.54</ele>
        <time>2014-10-20T11:20:39Z</time>
      </trkpt>
      <trkpt lat="45.10678" lon="2.6714">
        <ele>1580.54</ele>
        <time>2014-10-20T11:20:46Z</time>
      </trkpt>
      <trkpt lat="45.10678" lon="2.6714">
        <ele>1584.39</ele>
        <time>2014-10-20T11:20:47Z</time>
      </trkpt>
      <trkpt lat="45.10678" lon="2.6714">
        <ele>1581.03</ele>
        <time>2014-10-20T11:20:48Z</time>
      </trkpt>
      <trkpt lat="45.10678" lon="2.6714">
        <ele>1575.26</ele>
        <time>2014-10-20T11:20:52Z</time>
      </trkpt>
      <trkpt lat="45.10679" lon="2.6714">
        <ele>1581.51</ele>
        <time>2014-10-20T11:20:53Z</time>
      </trkpt>
      <trkpt lat="45.10678" lon="2.6714">
        <ele>1577.18</ele>
        <time>2014-10-20T11:21:08Z</time>
      </trkpt>
      <trkpt lat="45.10678" lon="2.6714">
        <ele>1581.03</ele>
        <time>2014-10-20T11:21:09Z</time>
      </trkpt>
      <trkpt lat="45.10679" lon="2.6714">
        <ele>1581.03</ele>
        <time>2014-10-20T11:21:46Z</time>
      </trkpt>
      <trkpt lat="45.10679" lon="2.6714">
        <ele>1581.03</ele>
        <time>2014-10-20T11:21:47Z</time>
      </trkpt>
      <trkpt lat="45.10679" lon="2.6714">
        <ele>1584.39</ele>
        <time>2014-10-20T11:21:50Z</time>
      </trkpt>
      <trkpt lat="45.10679" lon="2.6714">
        <ele>1577.18</ele>
        <time>2014-10-20T11:21:51Z</time>
      </trkpt>
      <trkpt lat="45.10679" lon="2.6714">
        <ele>1581.03</ele>
        <time>2014-10-20T11:21:52Z</time>
      </trkpt>
      <trkpt lat="45.1068" lon="2.6714">
        <ele>1581.51</ele>
        <time>2014-10-20T11:22:22Z</time>
      </trkpt>
      <trkpt lat="45.10679" lon="2.67141">
        <ele>1581.03</ele>
        <time>2014-10-20T11:22:46Z</time>
      </trkpt>
      <trkpt lat="45.10679" lon="2.67141">
        <ele>1581.03</ele>
        <time>2014-10-20T11:23:21Z</time>
      </trkpt>
      <trkpt lat="45.10679" lon="2.6714">
        <ele>1580.06</ele>
        <time>2014-10-20T11:23:57Z</time>
      </trkpt>
      <trkpt lat="45.10679" lon="2.67141">
        <ele>1580.06</ele>
        <time>2014-10-20T11:24:39Z</time>
      </trkpt>
      <trkpt lat="45.10678" lon="2.67141">
        <ele>1580.06</ele>
        <time>2014-10-20T11:25:31Z</time>
      </trkpt>
      <trkpt lat="45.10679" lon="2.67141">
        <ele>1580.54</ele>
        <time>2014-10-20T11:26:25Z</time>
      </trkpt>
      <trkpt lat="45.10679" lon="2.67141">
        <ele>1580.06</ele>
        <time>2014-10-20T11:27:09Z</time>
      </trkpt>
      <trkpt lat="45.10679" lon="2.67141">
        <ele>1580.06</ele>
        <time>2014-10-20T11:28:02Z</time>
      </trkpt>
      <trkpt lat="45.10679" lon="2.67141">
        <ele>1580.06</ele>
        <time>2014-10-20T11:28:46Z</time>
      </trkpt>
      <trkpt lat="45.10679" lon="2.67142">
        <ele>1580.54</ele>
        <time>2014-10-20T11:29:06Z</time>
      </trkpt>
      <trkpt lat="45.10679" lon="2.67141">
        <ele>1580.06</ele>
        <time>2014-10-20T11:29:39Z</time>
      </trkpt>
      <trkpt lat="45.10679" lon="2.6714">
        <ele>1579.58</ele>
        <time>2014-10-20T11:30:23Z</time>
      </trkpt>
      <trkpt lat="45.10678" lon="2.6714">
        <ele>1579.1</ele>
        <time>2014-10-20T11:31:02Z</time>
      </trkpt>
      <trkpt lat="45.10678" lon="2.6714">
        <ele>1579.1</ele>
        <time>2014-10-20T11:31:25Z</time>
      </trkpt>
      <trkpt lat="45.10679" lon="2.67141">
        <ele>1578.62</ele>
        <time>2014-10-20T11:31:50Z</time>
      </trkpt>
      <trkpt lat="45.1068" lon="2.6714">
        <ele>1579.1</ele>
        <time>2014-10-20T11:32:37Z</time>
      </trkpt>
      <trkpt lat="45.1068" lon="2.6714">
        <ele>1579.1</ele>
        <time>2014-10-20T11:33:32Z</time>
      </trkpt>
      <trkpt lat="45.10679" lon="2.67139">
        <ele>1579.1</ele>
        <time>2014-10-20T11:34:27Z</time>
      </trkpt>
      <trkpt lat="45.10679" lon="2.67139">
        <ele>1582.47</ele>
        <time>2014-10-20T11:35:08Z</time>
      </trkpt>
      <trkpt lat="45.10679" lon="2.67139">
        <ele>1579.1</ele>
        <time>2014-10-20T11:35:54Z</time>
      </trkpt>
      <trkpt lat="45.10679" lon="2.67139">
        <ele>1580.54</ele>
        <time>2014-10-20T11:36:53Z</time>
      </trkpt>
      <trkpt lat="45.1068" lon="2.67139">
        <ele>1579.1</ele>
        <time>2014-10-20T11:37:49Z</time>
      </trkpt>
      <trkpt lat="45.1068" lon="2.67139">
        <ele>1579.1</ele>
        <time>2014-10-20T11:38:51Z</time>
      </trkpt>
      <trkpt lat="45.1068" lon="2.67139">
        <ele>1578.62</ele>
        <time>2014-10-20T11:39:44Z</time>
      </trkpt>
      <trkpt lat="45.10681" lon="2.67138">
        <ele>1579.1</ele>
        <time>2014-10-20T11:40:45Z</time>
      </trkpt>
      <trkpt lat="45.10681" lon="2.67139">
        <ele>1580.06</ele>
        <time>2014-10-20T11:41:27Z</time>
      </trkpt>
      <trkpt lat="45.1068" lon="2.6714">
        <ele>1580.06</ele>
        <time>2014-10-20T11:42:21Z</time>
      </trkpt>
      <trkpt lat="45.1068" lon="2.6714">
        <ele>1580.54</ele>
        <time>2014-10-20T11:43:10Z</time>
      </trkpt>
      <trkpt lat="45.10681" lon="2.6714">
        <ele>1580.54</ele>
        <time>2014-10-20T11:43:11Z</time>
      </trkpt>
      <trkpt lat="45.10681" lon="2.67141">
        <ele>1580.06</ele>
        <time>2014-10-20T11:44:01Z</time>
      </trkpt>
      <trkpt lat="45.1068" lon="2.67141">
        <ele>1579.58</ele>
        <time>2014-10-20T11:44:56Z</time>
      </trkpt>
      <trkpt lat="45.10681" lon="2.67141">
        <ele>1579.1</ele>
        <time>2014-10-20T11:45:51Z</time>
      </trkpt>
      <trkpt lat="45.1068" lon="2.6714">
        <ele>1579.1</ele>
        <time>2014-10-20T11:46:41Z</time>
      </trkpt>
      <trkpt lat="45.1068" lon="2.67139">
        <ele>1579.58</ele>
        <time>2014-10-20T11:47:13Z</time>
      </trkpt>
      <trkpt lat="45.10679" lon="2.67139">
        <ele>1575.26</ele>
        <time>2014-10-20T11:47:31Z</time>
      </trkpt>
      <trkpt lat="45.10679" lon="2.67139">
        <ele>1579.58</ele>
        <time>2014-10-20T11:47:32Z</time>
      </trkpt>
      <trkpt lat="45.10679" lon="2.67139">
        <ele>1578.62</ele>
        <time>2014-10-20T11:48:14Z</time>
      </trkpt>
      <trkpt lat="45.10679" lon="2.67138">
        <ele>1579.1</ele>
        <time>2014-10-20T11:49:13Z</time>
      </trkpt>
      <trkpt lat="45.1068" lon="2.67138">
        <ele>1579.58</ele>
        <time>2014-10-20T11:50:11Z</time>
      </trkpt>
      <trkpt lat="45.1068" lon="2.67138">
        <ele>1578.62</ele>
        <time>2014-10-20T11:51:11Z</time>
      </trkpt>
      <trkpt lat="45.1068" lon="2.67138">
        <ele>1579.58</ele>
        <time>2014-10-20T11:52:13Z</time>
      </trkpt>
      <trkpt lat="45.1068" lon="2.67138">
        <ele>1580.54</ele>
        <time>2014-10-20T11:53:09Z</time>
      </trkpt>
      <trkpt lat="45.1068" lon="2.67138">
        <ele>1579.58</ele>
        <time>2014-10-20T11:54:05Z</time>
      </trkpt>
      <trkpt lat="45.1068" lon="2.67137">
        <ele>1579.1</ele>
        <time>2014-10-20T11:55:01Z</time>
      </trkpt>
      <trkpt lat="45.1068" lon="2.67138">
        <ele>1579.58</ele>
        <time>2014-10-20T11:55:50Z</time>
      </trkpt>
      <trkpt lat="45.10679" lon="2.67138">
        <ele>1580.54</ele>
        <time>2014-10-20T11:56:35Z</time>
      </trkpt>
      <trkpt lat="45.10679" lon="2.67138">
        <ele>1579.58</ele>
        <time>2014-10-20T11:57:15Z</time>
      </trkpt>
      <trkpt lat="45.10679" lon="2.67138">
        <ele>1581.03</ele>
        <time>2014-10-20T11:57:30Z</time>
      </trkpt>
      <trkpt lat="45.1068" lon="2.67139">
        <ele>1580.54</ele>
        <time>2014-10-20T11:58:03Z</time>
      </trkpt>
      <trkpt lat="45.1068" lon="2.67139">
        <ele>1579.58</ele>
        <time>2014-10-20T11:59:06Z</time>
      </trkpt>
      <trkpt lat="45.1068" lon="2.67139">
        <ele>1579.58</ele>
        <time>2014-10-20T11:59:32Z</time>
      </trkpt>
      <trkpt lat="45.1068" lon="2.67139">
        <ele>1584.39</ele>
        <time>2014-10-20T12:00:00Z</time>
      </trkpt>
      <trkpt lat="45.1068" lon="2.67139">
        <ele>1579.58</ele>
        <time>2014-10-20T12:00:01Z</time>
      </trkpt>
      <trkpt lat="45.1068" lon="2.67139">
        <ele>1573.82</ele>
        <time>2014-10-20T12:00:06Z</time>
      </trkpt>
      <trkpt lat="45.1068" lon="2.67139">
        <ele>1582.95</ele>
        <time>2014-10-20T12:00:07Z</time>
      </trkpt>
      <trkpt lat="45.1068" lon="2.67139">
        <ele>1577.66</ele>
        <time>2014-10-20T12:00:09Z</time>
      </trkpt>
      <trkpt lat="45.1068" lon="2.67139">
        <ele>1582.47</ele>
        <time>2014-10-20T12:00:10Z</time>
      </trkpt>
      <trkpt lat="45.1068" lon="2.67139">
        <ele>1574.78</ele>
        <time>2014-10-20T12:00:11Z</time>
      </trkpt>
      <trkpt lat="45.1068" lon="2.67139">
        <ele>1580.54</ele>
        <time>2014-10-20T12:00:12Z</time>
      </trkpt>
      <trkpt lat="45.1068" lon="2.67139">
        <ele>1584.39</ele>
        <time>2014-10-20T12:00:13Z</time>
      </trkpt>
      <trkpt lat="45.1068" lon="2.67139">
        <ele>1576.22</ele>
        <time>2014-10-20T12:00:14Z</time>
      </trkpt>
      <trkpt lat="45.1068" lon="2.67139">
        <ele>1581.99</ele>
        <time>2014-10-20T12:00:15Z</time>
      </trkpt>
      <trkpt lat="45.1068" lon="2.6714">
        <ele>1578.62</ele>
        <time>2014-10-20T12:00:21Z</time>
      </trkpt>
      <trkpt lat="45.1068" lon="2.6714">
        <ele>1573.82</ele>
        <time>2014-10-20T12:00:23Z</time>
      </trkpt>
      <trkpt lat="45.1068" lon="2.6714">
        <ele>1581.03</ele>
        <time>2014-10-20T12:00:24Z</time>
      </trkpt>
      <trkpt lat="45.1068" lon="2.6714">
        <ele>1575.74</ele>
        <time>2014-10-20T12:00:25Z</time>
      </trkpt>
      <trkpt lat="45.1068" lon="2.6714">
        <ele>1582.47</ele>
        <time>2014-10-20T12:00:26Z</time>
      </trkpt>
      <trkpt lat="45.1068" lon="2.6714">
        <ele>1579.58</ele>
        <time>2014-10-20T12:00:30Z</time>
      </trkpt>
      <trkpt lat="45.1068" lon="2.6714">
        <ele>1572.85</ele>
        <time>2014-10-20T12:00:37Z</time>
      </trkpt>
      <trkpt lat="45.1068" lon="2.6714">
        <ele>1579.58</ele>
        <time>2014-10-20T12:00:38Z</time>
      </trkpt>
      <trkpt lat="45.1068" lon="2.6714">
        <ele>1573.82</ele>
        <time>2014-10-20T12:00:40Z</time>
      </trkpt>
      <trkpt lat="45.1068" lon="2.6714">
        <ele>1580.54</ele>
        <time>2014-10-20T12:00:41Z</time>
      </trkpt>
      <trkpt lat="45.1068" lon="2.6714">
        <ele>1585.35</ele>
        <time>2014-10-20T12:00:43Z</time>
      </trkpt>
      <trkpt lat="45.1068" lon="2.6714">
        <ele>1582.47</ele>
        <time>2014-10-20T12:00:44Z</time>
      </trkpt>
      <trkpt lat="45.1068" lon="2.6714">
        <ele>1578.14</ele>
        <time>2014-10-20T12:00:45Z</time>
      </trkpt>
      <trkpt lat="45.1068" lon="2.6714">
        <ele>1579.58</ele>
        <time>2014-10-20T12:00:46Z</time>
      </trkpt>
      <trkpt lat="45.1068" lon="2.6714">
        <ele>1579.58</ele>
        <time>2014-10-20T12:01:28Z</time>
      </trkpt>
      <trkpt lat="45.1068" lon="2.6714">
        <ele>1580.06</ele>
        <time>2014-10-20T12:01:53Z</time>
      </trkpt>
      <trkpt lat="45.10679" lon="2.6714">
        <ele>1579.58</ele>
        <time>2014-10-20T12:02:13Z</time>
      </trkpt>
      <trkpt lat="45.1068" lon="2.6714">
        <ele>1581.03</ele>
        <time>2014-10-20T12:02:48Z</time>
      </trkpt>
      <trkpt lat="45.1068" lon="2.6714">
        <ele>1581.03</ele>
        <time>2014-10-20T12:03:29Z</time>
      </trkpt>
      <trkpt lat="45.10678" lon="2.67145">
        <ele>1581.03</ele>
        <time>2014-10-20T12:03:45Z</time>
      </trkpt>
      <trkpt lat="45.10679" lon="2.67149">
        <ele>1581.51</ele>
        <time>2014-10-20T12:03:48Z</time>
      </trkpt>
      <trkpt lat="45.10679" lon="2.67154">
        <ele>1581.51</ele>
        <time>2014-10-20T12:03:51Z</time>
      </trkpt>
      <trkpt lat="45.10686" lon="2.67179">
        <ele>1580.54</ele>
        <time>2014-10-20T12:04:13Z</time>
      </trkpt>
      <trkpt lat="45.10691" lon="2.67197">
        <ele>1581.99</ele>
        <time>2014-10-20T12:04:27Z</time>
      </trkpt>
      <trkpt lat="45.10697" lon="2.67219">
        <ele>1584.39</ele>
        <time>2014-10-20T12:04:47Z</time>
      </trkpt>
      <trkpt lat="45.10699" lon="2.67229">
        <ele>1585.83</ele>
        <time>2014-10-20T12:05:07Z</time>
      </trkpt>
      <trkpt lat="45.10703" lon="2.67247">
        <ele>1587.27</ele>
        <time>2014-10-20T12:05:25Z</time>
      </trkpt>
      <trkpt lat="45.10703" lon="2.67249">
        <ele>1587.75</ele>
        <time>2014-10-20T12:05:27Z</time>
      </trkpt>
      <trkpt lat="45.10711" lon="2.67269">
        <ele>1590.64</ele>
        <time>2014-10-20T12:05:45Z</time>
      </trkpt>
      <trkpt lat="45.10719" lon="2.6728">
        <ele>1592.56</ele>
        <time>2014-10-20T12:06:01Z</time>
      </trkpt>
      <trkpt lat="45.10724" lon="2.6729">
        <ele>1594.48</ele>
        <time>2014-10-20T12:06:16Z</time>
      </trkpt>
      <trkpt lat="45.10731" lon="2.67302">
        <ele>1595.93</ele>
        <time>2014-10-20T12:06:29Z</time>
      </trkpt>
      <trkpt lat="45.10733" lon="2.67305">
        <ele>1597.37</ele>
        <time>2014-10-20T12:06:34Z</time>
      </trkpt>
      <trkpt lat="45.10738" lon="2.67318">
        <ele>1598.81</ele>
        <time>2014-10-20T12:06:46Z</time>
      </trkpt>
      <trkpt lat="45.10748" lon="2.67333">
        <ele>1601.21</ele>
        <time>2014-10-20T12:07:03Z</time>
      </trkpt>
      <trkpt lat="45.10751" lon="2.67337">
        <ele>1601.69</ele>
        <time>2014-10-20T12:07:07Z</time>
      </trkpt>
      <trkpt lat="45.10756" lon="2.67346">
        <ele>1603.14</ele>
        <time>2014-10-20T12:07:18Z</time>
      </trkpt>
      <trkpt lat="45.10757" lon="2.67359">
        <ele>1602.66</ele>
        <time>2014-10-20T12:07:38Z</time>
      </trkpt>
      <trkpt lat="45.10758" lon="2.67362">
        <ele>1602.66</ele>
        <time>2014-10-20T12:07:42Z</time>
      </trkpt>
      <trkpt lat="45.10767" lon="2.67383">
        <ele>1603.14</ele>
        <time>2014-10-20T12:07:59Z</time>
      </trkpt>
      <trkpt lat="45.10768" lon="2.67386">
        <ele>1603.14</ele>
        <time>2014-10-20T12:08:02Z</time>
      </trkpt>
      <trkpt lat="45.10769" lon="2.67395">
        <ele>1603.14</ele>
        <time>2014-10-20T12:08:08Z</time>
      </trkpt>
      <trkpt lat="45.10771" lon="2.67403">
        <ele>1603.14</ele>
        <time>2014-10-20T12:08:14Z</time>
      </trkpt>
      <trkpt lat="45.10771" lon="2.67417">
        <ele>1604.1</ele>
        <time>2014-10-20T12:08:24Z</time>
      </trkpt>
      <trkpt lat="45.10771" lon="2.67425">
        <ele>1604.1</ele>
        <time>2014-10-20T12:08:29Z</time>
      </trkpt>
      <trkpt lat="45.10773" lon="2.67432">
        <ele>1604.1</ele>
        <time>2014-10-20T12:08:34Z</time>
      </trkpt>
      <trkpt lat="45.10773" lon="2.67459">
        <ele>1606.02</ele>
        <time>2014-10-20T12:08:53Z</time>
      </trkpt>
      <trkpt lat="45.10772" lon="2.67465">
        <ele>1606.5</ele>
        <time>2014-10-20T12:08:57Z</time>
      </trkpt>
      <trkpt lat="45.10767" lon="2.67491">
        <ele>1607.46</ele>
        <time>2014-10-20T12:09:15Z</time>
      </trkpt>
      <trkpt lat="45.10764" lon="2.67497">
        <ele>1607.46</ele>
        <time>2014-10-20T12:09:20Z</time>
      </trkpt>
      <trkpt lat="45.10759" lon="2.67518">
        <ele>1610.83</ele>
        <time>2014-10-20T12:09:37Z</time>
      </trkpt>
      <trkpt lat="45.10758" lon="2.67522">
        <ele>1611.31</ele>
        <time>2014-10-20T12:09:40Z</time>
      </trkpt>
      <trkpt lat="45.10755" lon="2.67531">
        <ele>1611.79</ele>
        <time>2014-10-20T12:09:47Z</time>
      </trkpt>
      <trkpt lat="45.10754" lon="2.6755">
        <ele>1612.75</ele>
        <time>2014-10-20T12:10:01Z</time>
      </trkpt>
      <trkpt lat="45.10751" lon="2.67566">
        <ele>1612.75</ele>
        <time>2014-10-20T12:10:13Z</time>
      </trkpt>
      <trkpt lat="45.1075" lon="2.67573">
        <ele>1613.71</ele>
        <time>2014-10-20T12:10:19Z</time>
      </trkpt>
      <trkpt lat="45.10748" lon="2.67598">
        <ele>1614.67</ele>
        <time>2014-10-20T12:10:36Z</time>
      </trkpt>
      <trkpt lat="45.10748" lon="2.67604">
        <ele>1615.63</ele>
        <time>2014-10-20T12:10:40Z</time>
      </trkpt>
      <trkpt lat="45.10746" lon="2.6761">
        <ele>1615.15</ele>
        <time>2014-10-20T12:10:44Z</time>
      </trkpt>
      <trkpt lat="45.10746" lon="2.67617">
        <ele>1615.15</ele>
        <time>2014-10-20T12:10:49Z</time>
      </trkpt>
      <trkpt lat="45.10745" lon="2.67621">
        <ele>1615.15</ele>
        <time>2014-10-20T12:10:52Z</time>
      </trkpt>
      <trkpt lat="45.10748" lon="2.67628">
        <ele>1614.67</ele>
        <time>2014-10-20T12:10:58Z</time>
      </trkpt>
      <trkpt lat="45.10748" lon="2.67638">
        <ele>1615.15</ele>
        <time>2014-10-20T12:11:04Z</time>
      </trkpt>
      <trkpt lat="45.10749" lon="2.67642">
        <ele>1614.67</ele>
        <time>2014-10-20T12:11:07Z</time>
      </trkpt>
      <trkpt lat="45.10749" lon="2.67646">
        <ele>1614.67</ele>
        <time>2014-10-20T12:11:10Z</time>
      </trkpt>
      <trkpt lat="45.10751" lon="2.6766">
        <ele>1614.19</ele>
        <time>2014-10-20T12:11:19Z</time>
      </trkpt>
      <trkpt lat="45.10751" lon="2.67688">
        <ele>1616.59</ele>
        <time>2014-10-20T12:11:38Z</time>
      </trkpt>
      <trkpt lat="45.1075" lon="2.67696">
        <ele>1616.59</ele>
        <time>2014-10-20T12:11:42Z</time>
      </trkpt>
      <trkpt lat="45.10749" lon="2.67699">
        <ele>1616.59</ele>
        <time>2014-10-20T12:11:44Z</time>
      </trkpt>
      <trkpt lat="45.10747" lon="2.67708">
        <ele>1616.59</ele>
        <time>2014-10-20T12:11:50Z</time>
      </trkpt>
      <trkpt lat="45.10745" lon="2.67712">
        <ele>1617.56</ele>
        <time>2014-10-20T12:11:53Z</time>
      </trkpt>
      <trkpt lat="45.10745" lon="2.67722">
        <ele>1617.56</ele>
        <time>2014-10-20T12:12:01Z</time>
      </trkpt>
      <trkpt lat="45.10742" lon="2.67729">
        <ele>1616.59</ele>
        <time>2014-10-20T12:12:06Z</time>
      </trkpt>
      <trkpt lat="45.10736" lon="2.67753">
        <ele>1619</ele>
        <time>2014-10-20T12:12:24Z</time>
      </trkpt>
      <trkpt lat="45.10733" lon="2.67768">
        <ele>1619</ele>
        <time>2014-10-20T12:12:35Z</time>
      </trkpt>
      <trkpt lat="45.10731" lon="2.67775">
        <ele>1619.48</ele>
        <time>2014-10-20T12:12:40Z</time>
      </trkpt>
      <trkpt lat="45.10729" lon="2.67781">
        <ele>1618.52</ele>
        <time>2014-10-20T12:12:44Z</time>
      </trkpt>
      <trkpt lat="45.10727" lon="2.67791">
        <ele>1619.96</ele>
        <time>2014-10-20T12:12:51Z</time>
      </trkpt>
      <trkpt lat="45.10721" lon="2.67814">
        <ele>1619.48</ele>
        <time>2014-10-20T12:13:07Z</time>
      </trkpt>
      <trkpt lat="45.10719" lon="2.67821">
        <ele>1619.48</ele>
        <time>2014-10-20T12:13:12Z</time>
      </trkpt>
      <trkpt lat="45.10714" lon="2.67832">
        <ele>1618.52</ele>
        <time>2014-10-20T12:13:21Z</time>
      </trkpt>
      <trkpt lat="45.10712" lon="2.67839">
        <ele>1619.48</ele>
        <time>2014-10-20T12:13:26Z</time>
      </trkpt>
      <trkpt lat="45.10712" lon="2.67842">
        <ele>1619.48</ele>
        <time>2014-10-20T12:13:29Z</time>
      </trkpt>
      <trkpt lat="45.10709" lon="2.67854">
        <ele>1620.44</ele>
        <time>2014-10-20T12:13:44Z</time>
      </trkpt>
      <trkpt lat="45.10703" lon="2.67869">
        <ele>1620.92</ele>
        <time>2014-10-20T12:13:54Z</time>
      </trkpt>
      <trkpt lat="45.10691" lon="2.67887">
        <ele>1618.04</ele>
        <time>2014-10-20T12:14:13Z</time>
      </trkpt>
      <trkpt lat="45.1069" lon="2.6789">
        <ele>1618.04</ele>
        <time>2014-10-20T12:14:15Z</time>
      </trkpt>
      <trkpt lat="45.10686" lon="2.67896">
        <ele>1617.56</ele>
        <time>2014-10-20T12:14:20Z</time>
      </trkpt>
      <trkpt lat="45.10685" lon="2.67899">
        <ele>1617.56</ele>
        <time>2014-10-20T12:14:22Z</time>
      </trkpt>
      <trkpt lat="45.10679" lon="2.67917">
        <ele>1617.56</ele>
        <time>2014-10-20T12:14:34Z</time>
      </trkpt>
      <trkpt lat="45.10675" lon="2.67922">
        <ele>1616.59</ele>
        <time>2014-10-20T12:14:39Z</time>
      </trkpt>
      <trkpt lat="45.1067" lon="2.67928">
        <ele>1616.59</ele>
        <time>2014-10-20T12:14:45Z</time>
      </trkpt>
      <trkpt lat="45.10661" lon="2.67949">
        <ele>1616.11</ele>
        <time>2014-10-20T12:15:03Z</time>
      </trkpt>
      <trkpt lat="45.10659" lon="2.67955">
        <ele>1618.04</ele>
        <time>2014-10-20T12:15:08Z</time>
      </trkpt>
      <trkpt lat="45.10661" lon="2.67962">
        <ele>1618.52</ele>
        <time>2014-10-20T12:15:18Z</time>
      </trkpt>
      <trkpt lat="45.10662" lon="2.67966">
        <ele>1619</ele>
        <time>2014-10-20T12:15:21Z</time>
      </trkpt>
      <trkpt lat="45.10666" lon="2.67978">
        <ele>1617.07</ele>
        <time>2014-10-20T12:15:43Z</time>
      </trkpt>
      <trkpt lat="45.10669" lon="2.67991">
        <ele>1619</ele>
        <time>2014-10-20T12:15:57Z</time>
      </trkpt>
      <trkpt lat="45.1067" lon="2.67997">
        <ele>1621.88</ele>
        <time>2014-10-20T12:16:13Z</time>
      </trkpt>
      <trkpt lat="45.1067" lon="2.67998">
        <ele>1621.88</ele>
        <time>2014-10-20T12:16:14Z</time>
      </trkpt>
      <trkpt lat="45.1067" lon="2.68">
        <ele>1620.44</ele>
        <time>2014-10-20T12:16:16Z</time>
      </trkpt>
      <trkpt lat="45.10669" lon="2.68014">
        <ele>1620.92</ele>
        <time>2014-10-20T12:16:33Z</time>
      </trkpt>
      <trkpt lat="45.1067" lon="2.68018">
        <ele>1619.96</ele>
        <time>2014-10-20T12:16:57Z</time>
      </trkpt>
      <trkpt lat="45.10672" lon="2.68025">
        <ele>1618.52</ele>
        <time>2014-10-20T12:17:16Z</time>
      </trkpt>
      <trkpt lat="45.10677" lon="2.68034">
        <ele>1617.56</ele>
        <time>2014-10-20T12:17:40Z</time>
      </trkpt>
      <trkpt lat="45.10677" lon="2.68035">
        <ele>1617.07</ele>
        <time>2014-10-20T12:17:56Z</time>
      </trkpt>
      <trkpt lat="45.10677" lon="2.68035">
        <ele>1616.11</ele>
        <time>2014-10-20T12:18:26Z</time>
      </trkpt>
      <trkpt lat="45.10678" lon="2.68035">
        <ele>1616.59</ele>
        <time>2014-10-20T12:19:10Z</time>
      </trkpt>
      <trkpt lat="45.10677" lon="2.68036">
        <ele>1617.56</ele>
        <time>2014-10-20T12:19:28Z</time>
      </trkpt>
      <trkpt lat="45.10675" lon="2.68039">
        <ele>1616.59</ele>
        <time>2014-10-20T12:19:31Z</time>
      </trkpt>
      <trkpt lat="45.10668" lon="2.68057">
        <ele>1612.75</ele>
        <time>2014-10-20T12:19:49Z</time>
      </trkpt>
      <trkpt lat="45.10668" lon="2.68063">
        <ele>1610.83</ele>
        <time>2014-10-20T12:19:55Z</time>
      </trkpt>
      <trkpt lat="45.10665" lon="2.68074">
        <ele>1609.38</ele>
        <time>2014-10-20T12:20:06Z</time>
      </trkpt>
      <trkpt lat="45.10664" lon="2.68082">
        <ele>1607.46</ele>
        <time>2014-10-20T12:20:14Z</time>
      </trkpt>
      <trkpt lat="45.10663" lon="2.68086">
        <ele>1606.5</ele>
        <time>2014-10-20T12:20:17Z</time>
      </trkpt>
      <trkpt lat="45.1066" lon="2.68098">
        <ele>1606.02</ele>
        <time>2014-10-20T12:20:24Z</time>
      </trkpt>
      <trkpt lat="45.10652" lon="2.68116">
        <ele>1606.5</ele>
        <time>2014-10-20T12:20:37Z</time>
      </trkpt>
      <trkpt lat="45.10651" lon="2.68118">
        <ele>1607.46</ele>
        <time>2014-10-20T12:20:39Z</time>
      </trkpt>
      <trkpt lat="45.10645" lon="2.68131">
        <ele>1608.42</ele>
        <time>2014-10-20T12:20:50Z</time>
      </trkpt>
      <trkpt lat="45.10644" lon="2.68134">
        <ele>1607.46</ele>
        <time>2014-10-20T12:20:52Z</time>
      </trkpt>
      <trkpt lat="45.10634" lon="2.68152">
        <ele>1608.42</ele>
        <time>2014-10-20T12:21:09Z</time>
      </trkpt>
      <trkpt lat="45.10628" lon="2.68159">
        <ele>1608.42</ele>
        <time>2014-10-20T12:21:33Z</time>
      </trkpt>
      <trkpt lat="45.10628" lon="2.68159">
        <ele>1606.98</ele>
        <time>2014-10-20T12:21:57Z</time>
      </trkpt>
      <trkpt lat="45.10628" lon="2.6816">
        <ele>1608.42</ele>
        <time>2014-10-20T12:22:41Z</time>
      </trkpt>
      <trkpt lat="45.10628" lon="2.6816">
        <ele>1607.94</ele>
        <time>2014-10-20T12:23:29Z</time>
      </trkpt>
      <trkpt lat="45.10628" lon="2.6816">
        <ele>1606.98</ele>
        <time>2014-10-20T12:23:31Z</time>
      </trkpt>
      <trkpt lat="45.10622" lon="2.68161">
        <ele>1607.94</ele>
        <time>2014-10-20T12:23:36Z</time>
      </trkpt>
      <trkpt lat="45.10611" lon="2.68173">
        <ele>1606.5</ele>
        <time>2014-10-20T12:23:46Z</time>
      </trkpt>
      <trkpt lat="45.106" lon="2.68189">
        <ele>1606.02</ele>
        <time>2014-10-20T12:24:01Z</time>
      </trkpt>
      <trkpt lat="45.10586" lon="2.682">
        <ele>1608.42</ele>
        <time>2014-10-20T12:24:14Z</time>
      </trkpt>
      <trkpt lat="45.10581" lon="2.68208">
        <ele>1607.94</ele>
        <time>2014-10-20T12:24:21Z</time>
      </trkpt>
      <trkpt lat="45.10573" lon="2.68218">
        <ele>1610.83</ele>
        <time>2014-10-20T12:24:37Z</time>
      </trkpt>
      <trkpt lat="45.10572" lon="2.68218">
        <ele>1611.31</ele>
        <time>2014-10-20T12:24:38Z</time>
      </trkpt>
      <trkpt lat="45.10568" lon="2.68224">
        <ele>1611.31</ele>
        <time>2014-10-20T12:24:53Z</time>
      </trkpt>
      <trkpt lat="45.1056" lon="2.68233">
        <ele>1614.67</ele>
        <time>2014-10-20T12:25:06Z</time>
      </trkpt>
      <trkpt lat="45.10558" lon="2.68234">
        <ele>1615.63</ele>
        <time>2014-10-20T12:25:10Z</time>
      </trkpt>
      <trkpt lat="45.10557" lon="2.68238">
        <ele>1614.19</ele>
        <time>2014-10-20T12:25:14Z</time>
      </trkpt>
      <trkpt lat="45.10553" lon="2.68245">
        <ele>1617.07</ele>
        <time>2014-10-20T12:25:25Z</time>
      </trkpt>
      <trkpt lat="45.10552" lon="2.68249">
        <ele>1618.04</ele>
        <time>2014-10-20T12:25:32Z</time>
      </trkpt>
      <trkpt lat="45.10547" lon="2.68257">
        <ele>1618.52</ele>
        <time>2014-10-20T12:25:44Z</time>
      </trkpt>
      <trkpt lat="45.10542" lon="2.68262">
        <ele>1619.48</ele>
        <time>2014-10-20T12:25:50Z</time>
      </trkpt>
      <trkpt lat="45.10532" lon="2.68268">
        <ele>1618.52</ele>
        <time>2014-10-20T12:26:00Z</time>
      </trkpt>
      <trkpt lat="45.10516" lon="2.68277">
        <ele>1618.04</ele>
        <time>2014-10-20T12:26:19Z</time>
      </trkpt>
      <trkpt lat="45.10511" lon="2.68283">
        <ele>1617.07</ele>
        <time>2014-10-20T12:26:25Z</time>
      </trkpt>
      <trkpt lat="45.10509" lon="2.68287">
        <ele>1616.59</ele>
        <time>2014-10-20T12:26:29Z</time>
      </trkpt>
      <trkpt lat="45.1051" lon="2.6829">
        <ele>1616.11</ele>
        <time>2014-10-20T12:26:31Z</time>
      </trkpt>
      <trkpt lat="45.10505" lon="2.68293">
        <ele>1616.11</ele>
        <time>2014-10-20T12:26:35Z</time>
      </trkpt>
      <trkpt lat="45.10504" lon="2.68296">
        <ele>1616.11</ele>
        <time>2014-10-20T12:26:37Z</time>
      </trkpt>
      <trkpt lat="45.10497" lon="2.68306">
        <ele>1615.63</ele>
        <time>2014-10-20T12:26:45Z</time>
      </trkpt>
      <trkpt lat="45.10496" lon="2.68316">
        <ele>1616.11</ele>
        <time>2014-10-20T12:26:51Z</time>
      </trkpt>
      <trkpt lat="45.10494" lon="2.68319">
        <ele>1616.59</ele>
        <time>2014-10-20T12:26:55Z</time>
      </trkpt>
      <trkpt lat="45.10485" lon="2.6833">
        <ele>1618.52</ele>
        <time>2014-10-20T12:27:10Z</time>
      </trkpt>
      <trkpt lat="45.10479" lon="2.68336">
        <ele>1621.4</ele>
        <time>2014-10-20T12:27:28Z</time>
      </trkpt>
      <trkpt lat="45.10478" lon="2.68337">
        <ele>1620.44</ele>
        <time>2014-10-20T12:28:08Z</time>
      </trkpt>
      <trkpt lat="45.10477" lon="2.68337">
        <ele>1620.44</ele>
        <time>2014-10-20T12:28:56Z</time>
      </trkpt>
      <trkpt lat="45.10477" lon="2.68338">
        <ele>1620.44</ele>
        <time>2014-10-20T12:29:02Z</time>
      </trkpt>
      <trkpt lat="45.10471" lon="2.68349">
        <ele>1622.84</ele>
        <time>2014-10-20T12:29:13Z</time>
      </trkpt>
      <trkpt lat="45.10467" lon="2.68359">
        <ele>1625.25</ele>
        <time>2014-10-20T12:29:29Z</time>
      </trkpt>
      <trkpt lat="45.10461" lon="2.68369">
        <ele>1628.13</ele>
        <time>2014-10-20T12:29:44Z</time>
      </trkpt>
      <trkpt lat="45.10455" lon="2.68379">
        <ele>1630.05</ele>
        <time>2014-10-20T12:29:59Z</time>
      </trkpt>
      <trkpt lat="45.10451" lon="2.68382">
        <ele>1631.49</ele>
        <time>2014-10-20T12:30:10Z</time>
      </trkpt>
      <trkpt lat="45.10447" lon="2.68387">
        <ele>1632.46</ele>
        <time>2014-10-20T12:30:17Z</time>
      </trkpt>
      <trkpt lat="45.10445" lon="2.68388">
        <ele>1632.46</ele>
        <time>2014-10-20T12:30:19Z</time>
      </trkpt>
      <trkpt lat="45.10443" lon="2.68393">
        <ele>1632.94</ele>
        <time>2014-10-20T12:30:23Z</time>
      </trkpt>
      <trkpt lat="45.10437" lon="2.68402">
        <ele>1633.9</ele>
        <time>2014-10-20T12:30:33Z</time>
      </trkpt>
      <trkpt lat="45.10434" lon="2.68409">
        <ele>1634.38</ele>
        <time>2014-10-20T12:30:51Z</time>
      </trkpt>
      <trkpt lat="45.10434" lon="2.68409">
        <ele>1634.86</ele>
        <time>2014-10-20T12:30:59Z</time>
      </trkpt>
      <trkpt lat="45.10427" lon="2.68421">
        <ele>1634.86</ele>
        <time>2014-10-20T12:31:09Z</time>
      </trkpt>
      <trkpt lat="45.10419" lon="2.68442">
        <ele>1634.86</ele>
        <time>2014-10-20T12:31:22Z</time>
      </trkpt>
      <trkpt lat="45.10417" lon="2.68448">
        <ele>1635.82</ele>
        <time>2014-10-20T12:31:26Z</time>
      </trkpt>
      <trkpt lat="45.10415" lon="2.6845">
        <ele>1635.34</ele>
        <time>2014-10-20T12:31:28Z</time>
      </trkpt>
      <trkpt lat="45.10413" lon="2.68457">
        <ele>1636.3</ele>
        <time>2014-10-20T12:31:33Z</time>
      </trkpt>
      <trkpt lat="45.1041" lon="2.68461">
        <ele>1636.78</ele>
        <time>2014-10-20T12:31:37Z</time>
      </trkpt>
      <trkpt lat="45.10406" lon="2.68474">
        <ele>1638.7</ele>
        <time>2014-10-20T12:31:48Z</time>
      </trkpt>
      <trkpt lat="45.10406" lon="2.68476">
        <ele>1638.7</ele>
        <time>2014-10-20T12:31:50Z</time>
      </trkpt>
      <trkpt lat="45.10405" lon="2.6848">
        <ele>1638.7</ele>
        <time>2014-10-20T12:31:53Z</time>
      </trkpt>
      <trkpt lat="45.10404" lon="2.68486">
        <ele>1639.67</ele>
        <time>2014-10-20T12:31:58Z</time>
      </trkpt>
      <trkpt lat="45.10404" lon="2.68502">
        <ele>1640.15</ele>
        <time>2014-10-20T12:32:08Z</time>
      </trkpt>
      <trkpt lat="45.10394" lon="2.6852">
        <ele>1640.63</ele>
        <time>2014-10-20T12:32:22Z</time>
      </trkpt>
      <trkpt lat="45.10392" lon="2.68525">
        <ele>1640.63</ele>
        <time>2014-10-20T12:32:26Z</time>
      </trkpt>
      <trkpt lat="45.10383" lon="2.68539">
        <ele>1640.15</ele>
        <time>2014-10-20T12:32:38Z</time>
      </trkpt>
      <trkpt lat="45.10375" lon="2.68551">
        <ele>1639.19</ele>
        <time>2014-10-20T12:32:56Z</time>
      </trkpt>
      <trkpt lat="45.10372" lon="2.68553">
        <ele>1635.82</ele>
        <time>2014-10-20T12:33:13Z</time>
      </trkpt>
      <trkpt lat="45.10372" lon="2.68553">
        <ele>1635.82</ele>
        <time>2014-10-20T12:33:14Z</time>
      </trkpt>
      <trkpt lat="45.10375" lon="2.68562">
        <ele>1633.9</ele>
        <time>2014-10-20T12:33:31Z</time>
      </trkpt>
      <trkpt lat="45.10377" lon="2.68563">
        <ele>1633.42</ele>
        <time>2014-10-20T12:33:46Z</time>
      </trkpt>
      <trkpt lat="45.10379" lon="2.68564">
        <ele>1631.49</ele>
        <time>2014-10-20T12:34:00Z</time>
      </trkpt>
      <trkpt lat="45.1038" lon="2.68564">
        <ele>1631.01</ele>
        <time>2014-10-20T12:34:06Z</time>
      </trkpt>
      <trkpt lat="45.10377" lon="2.6857">
        <ele>1629.57</ele>
        <time>2014-10-20T12:34:25Z</time>
      </trkpt>
      <trkpt lat="45.10377" lon="2.68571">
        <ele>1629.57</ele>
        <time>2014-10-20T12:34:44Z</time>
      </trkpt>
      <trkpt lat="45.10375" lon="2.6857">
        <ele>1628.13</ele>
        <time>2014-10-20T12:35:01Z</time>
      </trkpt>
      <trkpt lat="45.10374" lon="2.68571">
        <ele>1628.61</ele>
        <time>2014-10-20T12:35:25Z</time>
      </trkpt>
      <trkpt lat="45.10373" lon="2.68572">
        <ele>1627.65</ele>
        <time>2014-10-20T12:35:59Z</time>
      </trkpt>
      <trkpt lat="45.10373" lon="2.68572">
        <ele>1623.8</ele>
        <time>2014-10-20T12:36:16Z</time>
      </trkpt>
      <trkpt lat="45.10373" lon="2.68571">
        <ele>1624.77</ele>
        <time>2014-10-20T12:36:17Z</time>
      </trkpt>
      <trkpt lat="45.10373" lon="2.68571">
        <ele>1626.69</ele>
        <time>2014-10-20T12:36:27Z</time>
      </trkpt>
      <trkpt lat="45.10373" lon="2.68571">
        <ele>1625.73</ele>
        <time>2014-10-20T12:36:28Z</time>
      </trkpt>
      <trkpt lat="45.10373" lon="2.68573">
        <ele>1627.65</ele>
        <time>2014-10-20T12:36:32Z</time>
      </trkpt>
      <trkpt lat="45.10372" lon="2.68573">
        <ele>1627.17</ele>
        <time>2014-10-20T12:36:58Z</time>
      </trkpt>
      <trkpt lat="45.10372" lon="2.68573">
        <ele>1626.69</ele>
        <time>2014-10-20T12:37:19Z</time>
      </trkpt>
      <trkpt lat="45.10372" lon="2.68573">
        <ele>1625.25</ele>
        <time>2014-10-20T12:37:39Z</time>
      </trkpt>
      <trkpt lat="45.10371" lon="2.68573">
        <ele>1623.32</ele>
        <time>2014-10-20T12:38:00Z</time>
      </trkpt>
      <trkpt lat="45.10371" lon="2.68574">
        <ele>1623.32</ele>
        <time>2014-10-20T12:38:23Z</time>
      </trkpt>
      <trkpt lat="45.1037" lon="2.68574">
        <ele>1621.88</ele>
        <time>2014-10-20T12:38:45Z</time>
      </trkpt>
      <trkpt lat="45.10373" lon="2.68579">
        <ele>1619.48</ele>
        <time>2014-10-20T12:39:03Z</time>
      </trkpt>
      <trkpt lat="45.10373" lon="2.6858">
        <ele>1618.04</ele>
        <time>2014-10-20T12:39:08Z</time>
      </trkpt>
      <trkpt lat="45.10374" lon="2.68581">
        <ele>1619</ele>
        <time>2014-10-20T12:39:37Z</time>
      </trkpt>
      <trkpt lat="45.10374" lon="2.68582">
        <ele>1619</ele>
        <time>2014-10-20T12:40:24Z</time>
      </trkpt>
      <trkpt lat="45.10374" lon="2.68582">
        <ele>1620.44</ele>
        <time>2014-10-20T12:41:23Z</time>
      </trkpt>
      <trkpt lat="45.10373" lon="2.68581">
        <ele>1619.96</ele>
        <time>2014-10-20T12:42:10Z</time>
      </trkpt>
      <trkpt lat="45.10374" lon="2.68583">
        <ele>1619.96</ele>
        <time>2014-10-20T12:43:05Z</time>
      </trkpt>
      <trkpt lat="45.10374" lon="2.68583">
        <ele>1619.96</ele>
        <time>2014-10-20T12:43:59Z</time>
      </trkpt>
      <trkpt lat="45.10374" lon="2.68584">
        <ele>1620.92</ele>
        <time>2014-10-20T12:44:06Z</time>
      </trkpt>
      <trkpt lat="45.10375" lon="2.68585">
        <ele>1621.88</ele>
        <time>2014-10-20T12:44:11Z</time>
      </trkpt>
      <trkpt lat="45.10374" lon="2.68592">
        <ele>1621.88</ele>
        <time>2014-10-20T12:44:23Z</time>
      </trkpt>
      <trkpt lat="45.10373" lon="2.68598">
        <ele>1624.77</ele>
        <time>2014-10-20T12:44:39Z</time>
      </trkpt>
      <trkpt lat="45.10376" lon="2.68598">
        <ele>1627.17</ele>
        <time>2014-10-20T12:44:55Z</time>
      </trkpt>
      <trkpt lat="45.10374" lon="2.68603">
        <ele>1630.53</ele>
        <time>2014-10-20T12:45:06Z</time>
      </trkpt>
      <trkpt lat="45.10375" lon="2.6861">
        <ele>1632.94</ele>
        <time>2014-10-20T12:45:20Z</time>
      </trkpt>
      <trkpt lat="45.10374" lon="2.68612">
        <ele>1633.9</ele>
        <time>2014-10-20T12:45:22Z</time>
      </trkpt>
      <trkpt lat="45.10373" lon="2.6862">
        <ele>1637.26</ele>
        <time>2014-10-20T12:45:38Z</time>
      </trkpt>
      <trkpt lat="45.10373" lon="2.68623">
        <ele>1637.26</ele>
        <time>2014-10-20T12:45:51Z</time>
      </trkpt>
      <trkpt lat="45.10373" lon="2.68633">
        <ele>1640.63</ele>
        <time>2014-10-20T12:46:06Z</time>
      </trkpt>
      <trkpt lat="45.10377" lon="2.68647">
        <ele>1642.55</ele>
        <time>2014-10-20T12:46:23Z</time>
      </trkpt>
      <trkpt lat="45.10375" lon="2.68656">
        <ele>1645.43</ele>
        <time>2014-10-20T12:46:34Z</time>
      </trkpt>
      <trkpt lat="45.10377" lon="2.68666">
        <ele>1648.8</ele>
        <time>2014-10-20T12:46:48Z</time>
      </trkpt>
      <trkpt lat="45.10377" lon="2.68673">
        <ele>1648.32</ele>
        <time>2014-10-20T12:46:57Z</time>
      </trkpt>
      <trkpt lat="45.10372" lon="2.68688">
        <ele>1650.72</ele>
        <time>2014-10-20T12:47:13Z</time>
      </trkpt>
      <trkpt lat="45.1037" lon="2.68701">
        <ele>1653.12</ele>
        <time>2014-10-20T12:47:25Z</time>
      </trkpt>
      <trkpt lat="45.10367" lon="2.6871">
        <ele>1654.57</ele>
        <time>2014-10-20T12:47:33Z</time>
      </trkpt>
      <trkpt lat="45.10367" lon="2.68714">
        <ele>1654.57</ele>
        <time>2014-10-20T12:47:36Z</time>
      </trkpt>
      <trkpt lat="45.10365" lon="2.68723">
        <ele>1656.01</ele>
        <time>2014-10-20T12:47:44Z</time>
      </trkpt>
      <trkpt lat="45.10364" lon="2.68736">
        <ele>1656.49</ele>
        <time>2014-10-20T12:47:54Z</time>
      </trkpt>
      <trkpt lat="45.10364" lon="2.68744">
        <ele>1656.97</ele>
        <time>2014-10-20T12:48:00Z</time>
      </trkpt>
      <trkpt lat="45.10364" lon="2.68752">
        <ele>1657.45</ele>
        <time>2014-10-20T12:48:06Z</time>
      </trkpt>
      <trkpt lat="45.10363" lon="2.68759">
        <ele>1659.85</ele>
        <time>2014-10-20T12:48:13Z</time>
      </trkpt>
      <trkpt lat="45.10363" lon="2.68763">
        <ele>1661.78</ele>
        <time>2014-10-20T12:48:16Z</time>
      </trkpt>
      <trkpt lat="45.10363" lon="2.68767">
        <ele>1659.85</ele>
        <time>2014-10-20T12:48:19Z</time>
      </trkpt>
      <trkpt lat="45.10364" lon="2.68781">
        <ele>1661.3</ele>
        <time>2014-10-20T12:48:32Z</time>
      </trkpt>
      <trkpt lat="45.10364" lon="2.68796">
        <ele>1661.3</ele>
        <time>2014-10-20T12:48:43Z</time>
      </trkpt>
      <trkpt lat="45.10369" lon="2.68815">
        <ele>1662.74</ele>
        <time>2014-10-20T12:48:57Z</time>
      </trkpt>
      <trkpt lat="45.10372" lon="2.68831">
        <ele>1663.7</ele>
        <time>2014-10-20T12:49:10Z</time>
      </trkpt>
      <trkpt lat="45.10372" lon="2.68847">
        <ele>1664.66</ele>
        <time>2014-10-20T12:49:22Z</time>
      </trkpt>
      <trkpt lat="45.10372" lon="2.68854">
        <ele>1665.62</ele>
        <time>2014-10-20T12:49:46Z</time>
      </trkpt>
      <trkpt lat="45.10368" lon="2.68862">
        <ele>1664.66</ele>
        <time>2014-10-20T12:50:05Z</time>
      </trkpt>
      <trkpt lat="45.10365" lon="2.68869">
        <ele>1665.62</ele>
        <time>2014-10-20T12:50:09Z</time>
      </trkpt>
      <trkpt lat="45.10363" lon="2.68874">
        <ele>1665.62</ele>
        <time>2014-10-20T12:50:13Z</time>
      </trkpt>
      <trkpt lat="45.10356" lon="2.68909">
        <ele>1663.22</ele>
        <time>2014-10-20T12:50:37Z</time>
      </trkpt>
      <trkpt lat="45.10356" lon="2.6891">
        <ele>1663.22</ele>
        <time>2014-10-20T12:50:38Z</time>
      </trkpt>
      <trkpt lat="45.10346" lon="2.68918">
        <ele>1663.22</ele>
        <time>2014-10-20T12:50:49Z</time>
      </trkpt>
      <trkpt lat="45.10343" lon="2.68921">
        <ele>1662.26</ele>
        <time>2014-10-20T12:50:52Z</time>
      </trkpt>
      <trkpt lat="45.10338" lon="2.68933">
        <ele>1661.3</ele>
        <time>2014-10-20T12:51:02Z</time>
      </trkpt>
      <trkpt lat="45.1033" lon="2.68947">
        <ele>1660.33</ele>
        <time>2014-10-20T12:51:13Z</time>
      </trkpt>
      <trkpt lat="45.10328" lon="2.6895">
        <ele>1660.33</ele>
        <time>2014-10-20T12:51:16Z</time>
      </trkpt>
      <trkpt lat="45.10324" lon="2.68958">
        <ele>1659.37</ele>
        <time>2014-10-20T12:51:23Z</time>
      </trkpt>
      <trkpt lat="45.10322" lon="2.68963">
        <ele>1659.85</ele>
        <time>2014-10-20T12:51:28Z</time>
      </trkpt>
      <trkpt lat="45.1032" lon="2.68976">
        <ele>1658.41</ele>
        <time>2014-10-20T12:51:39Z</time>
      </trkpt>
      <trkpt lat="45.10323" lon="2.68989">
        <ele>1657.45</ele>
        <time>2014-10-20T12:51:50Z</time>
      </trkpt>
      <trkpt lat="45.10322" lon="2.68992">
        <ele>1656.49</ele>
        <time>2014-10-20T12:51:53Z</time>
      </trkpt>
      <trkpt lat="45.10321" lon="2.69">
        <ele>1655.53</ele>
        <time>2014-10-20T12:51:58Z</time>
      </trkpt>
      <trkpt lat="45.10323" lon="2.6904">
        <ele>1656.97</ele>
        <time>2014-10-20T12:52:22Z</time>
      </trkpt>
      <trkpt lat="45.10323" lon="2.69044">
        <ele>1658.41</ele>
        <time>2014-10-20T12:52:25Z</time>
      </trkpt>
      <trkpt lat="45.10313" lon="2.69065">
        <ele>1659.85</ele>
        <time>2014-10-20T12:52:41Z</time>
      </trkpt>
      <trkpt lat="45.10303" lon="2.69083">
        <ele>1662.26</ele>
        <time>2014-10-20T12:52:57Z</time>
      </trkpt>
      <trkpt lat="45.10298" lon="2.69103">
        <ele>1662.74</ele>
        <time>2014-10-20T12:53:12Z</time>
      </trkpt>
      <trkpt lat="45.10295" lon="2.69121">
        <ele>1664.66</ele>
        <time>2014-10-20T12:53:24Z</time>
      </trkpt>
      <trkpt lat="45.1029" lon="2.69133">
        <ele>1666.1</ele>
        <time>2014-10-20T12:53:34Z</time>
      </trkpt>
      <trkpt lat="45.10289" lon="2.69135">
        <ele>1666.1</ele>
        <time>2014-10-20T12:53:36Z</time>
      </trkpt>
      <trkpt lat="45.10283" lon="2.69152">
        <ele>1666.58</ele>
        <time>2014-10-20T12:53:49Z</time>
      </trkpt>
      <trkpt lat="45.10277" lon="2.69169">
        <ele>1667.06</ele>
        <time>2014-10-20T12:54:01Z</time>
      </trkpt>
      <trkpt lat="45.1027" lon="2.69193">
        <ele>1668.51</ele>
        <time>2014-10-20T12:54:17Z</time>
      </trkpt>
      <trkpt lat="45.10267" lon="2.69211">
        <ele>1667.54</ele>
        <time>2014-10-20T12:54:29Z</time>
      </trkpt>
      <trkpt lat="45.10261" lon="2.69225">
        <ele>1668.02</ele>
        <time>2014-10-20T12:54:40Z</time>
      </trkpt>
      <trkpt lat="45.10257" lon="2.69232">
        <ele>1668.51</ele>
        <time>2014-10-20T12:54:46Z</time>
      </trkpt>
      <trkpt lat="45.10253" lon="2.6924">
        <ele>1667.54</ele>
        <time>2014-10-20T12:54:53Z</time>
      </trkpt>
      <trkpt lat="45.1025" lon="2.69253">
        <ele>1666.1</ele>
        <time>2014-10-20T12:55:02Z</time>
      </trkpt>
      <trkpt lat="45.10248" lon="2.69269">
        <ele>1665.62</ele>
        <time>2014-10-20T12:55:14Z</time>
      </trkpt>
      <trkpt lat="45.10242" lon="2.6928">
        <ele>1667.54</ele>
        <time>2014-10-20T12:55:31Z</time>
      </trkpt>
      <trkpt lat="45.10242" lon="2.69283">
        <ele>1666.58</ele>
        <time>2014-10-20T12:55:34Z</time>
      </trkpt>
      <trkpt lat="45.10243" lon="2.69288">
        <ele>1666.1</ele>
        <time>2014-10-20T12:55:37Z</time>
      </trkpt>
      <trkpt lat="45.10242" lon="2.69306">
        <ele>1668.02</ele>
        <time>2014-10-20T12:55:52Z</time>
      </trkpt>
      <trkpt lat="45.10243" lon="2.69312">
        <ele>1668.02</ele>
        <time>2014-10-20T12:55:57Z</time>
      </trkpt>
      <trkpt lat="45.10242" lon="2.69323">
        <ele>1668.02</ele>
        <time>2014-10-20T12:56:04Z</time>
      </trkpt>
      <trkpt lat="45.10241" lon="2.69326">
        <ele>1667.54</ele>
        <time>2014-10-20T12:56:07Z</time>
      </trkpt>
      <trkpt lat="45.10241" lon="2.69332">
        <ele>1667.54</ele>
        <time>2014-10-20T12:56:11Z</time>
      </trkpt>
      <trkpt lat="45.10239" lon="2.6935">
        <ele>1667.06</ele>
        <time>2014-10-20T12:56:23Z</time>
      </trkpt>
      <trkpt lat="45.10239" lon="2.69366">
        <ele>1670.43</ele>
        <time>2014-10-20T12:56:33Z</time>
      </trkpt>
      <trkpt lat="45.10239" lon="2.69369">
        <ele>1668.51</ele>
        <time>2014-10-20T12:56:36Z</time>
      </trkpt>
      <trkpt lat="45.1024" lon="2.69371">
        <ele>1668.02</ele>
        <time>2014-10-20T12:56:38Z</time>
      </trkpt>
      <trkpt lat="45.10246" lon="2.69386">
        <ele>1666.1</ele>
        <time>2014-10-20T12:56:55Z</time>
      </trkpt>
      <trkpt lat="45.10246" lon="2.69386">
        <ele>1666.58</ele>
        <time>2014-10-20T12:57:04Z</time>
      </trkpt>
      <trkpt lat="45.10247" lon="2.6939">
        <ele>1666.58</ele>
        <time>2014-10-20T12:57:07Z</time>
      </trkpt>
      <trkpt lat="45.1025" lon="2.69399">
        <ele>1666.1</ele>
        <time>2014-10-20T12:57:13Z</time>
      </trkpt>
      <trkpt lat="45.10255" lon="2.69416">
        <ele>1665.14</ele>
        <time>2014-10-20T12:57:26Z</time>
      </trkpt>
      <trkpt lat="45.10258" lon="2.69423">
        <ele>1664.18</ele>
        <time>2014-10-20T12:57:32Z</time>
      </trkpt>
      <trkpt lat="45.10264" lon="2.69441">
        <ele>1661.3</ele>
        <time>2014-10-20T12:57:49Z</time>
      </trkpt>
      <trkpt lat="45.10266" lon="2.69445">
        <ele>1660.81</ele>
        <time>2014-10-20T12:58:06Z</time>
      </trkpt>
      <trkpt lat="45.10266" lon="2.69452">
        <ele>1658.89</ele>
        <time>2014-10-20T12:58:20Z</time>
      </trkpt>
      <trkpt lat="45.10267" lon="2.69453">
        <ele>1658.89</ele>
        <time>2014-10-20T12:58:22Z</time>
      </trkpt>
      <trkpt lat="45.10268" lon="2.69455">
        <ele>1657.45</ele>
        <time>2014-10-20T12:58:24Z</time>
      </trkpt>
      <trkpt lat="45.10272" lon="2.69461">
        <ele>1656.49</ele>
        <time>2014-10-20T12:58:37Z</time>
      </trkpt>
      <trkpt lat="45.10274" lon="2.69466">
        <ele>1655.53</ele>
        <time>2014-10-20T12:58:53Z</time>
      </trkpt>
      <trkpt lat="45.10276" lon="2.69468">
        <ele>1655.53</ele>
        <time>2014-10-20T12:58:55Z</time>
      </trkpt>
      <trkpt lat="45.10279" lon="2.69473">
        <ele>1653.6</ele>
        <time>2014-10-20T12:59:00Z</time>
      </trkpt>
      <trkpt lat="45.10286" lon="2.69478">
        <ele>1652.16</ele>
        <time>2014-10-20T12:59:08Z</time>
      </trkpt>
      <trkpt lat="45.1029" lon="2.69484">
        <ele>1651.2</ele>
        <time>2014-10-20T12:59:16Z</time>
      </trkpt>
      <trkpt lat="45.103" lon="2.69495">
        <ele>1649.76</ele>
        <time>2014-10-20T12:59:35Z</time>
      </trkpt>
      <trkpt lat="45.10302" lon="2.69497">
        <ele>1648.8</ele>
        <time>2014-10-20T12:59:39Z</time>
      </trkpt>
      <trkpt lat="45.10307" lon="2.69503">
        <ele>1645.43</ele>
        <time>2014-10-20T12:59:52Z</time>
      </trkpt>
      <trkpt lat="45.10311" lon="2.69507">
        <ele>1643.51</ele>
        <time>2014-10-20T13:00:05Z</time>
      </trkpt>
      <trkpt lat="45.10312" lon="2.69508">
        <ele>1642.55</ele>
        <time>2014-10-20T13:00:08Z</time>
      </trkpt>
      <trkpt lat="45.10318" lon="2.69512">
        <ele>1639.19</ele>
        <time>2014-10-20T13:00:22Z</time>
      </trkpt>
      <trkpt lat="45.10326" lon="2.69522">
        <ele>1636.78</ele>
        <time>2014-10-20T13:00:39Z</time>
      </trkpt>
      <trkpt lat="45.10333" lon="2.69529">
        <ele>1633.9</ele>
        <time>2014-10-20T13:00:50Z</time>
      </trkpt>
      <trkpt lat="45.10333" lon="2.6953">
        <ele>1633.42</ele>
        <time>2014-10-20T13:00:51Z</time>
      </trkpt>
      <trkpt lat="45.10335" lon="2.69532">
        <ele>1632.94</ele>
        <time>2014-10-20T13:00:54Z</time>
      </trkpt>
      <trkpt lat="45.10337" lon="2.69535">
        <ele>1632.94</ele>
        <time>2014-10-20T13:00:59Z</time>
      </trkpt>
      <trkpt lat="45.10341" lon="2.69541">
        <ele>1633.42</ele>
        <time>2014-10-20T13:01:05Z</time>
      </trkpt>
      <trkpt lat="45.10344" lon="2.69549">
        <ele>1631.01</ele>
        <time>2014-10-20T13:01:14Z</time>
      </trkpt>
      <trkpt lat="45.10344" lon="2.69549">
        <ele>1631.01</ele>
        <time>2014-10-20T13:01:39Z</time>
      </trkpt>
      <trkpt lat="45.10345" lon="2.69552">
        <ele>1631.01</ele>
        <time>2014-10-20T13:01:45Z</time>
      </trkpt>
      <trkpt lat="45.10346" lon="2.6956">
        <ele>1631.98</ele>
        <time>2014-10-20T13:01:51Z</time>
      </trkpt>
      <trkpt lat="45.10345" lon="2.69568">
        <ele>1633.42</ele>
        <time>2014-10-20T13:01:59Z</time>
      </trkpt>
      <trkpt lat="45.10347" lon="2.69569">
        <ele>1632.94</ele>
        <time>2014-10-20T13:02:02Z</time>
      </trkpt>
      <trkpt lat="45.10347" lon="2.69572">
        <ele>1634.38</ele>
        <time>2014-10-20T13:02:05Z</time>
      </trkpt>
      <trkpt lat="45.10345" lon="2.69595">
        <ele>1635.82</ele>
        <time>2014-10-20T13:02:23Z</time>
      </trkpt>
      <trkpt lat="45.10346" lon="2.69599">
        <ele>1635.82</ele>
        <time>2014-10-20T13:02:26Z</time>
      </trkpt>
      <trkpt lat="45.10353" lon="2.69631">
        <ele>1638.22</ele>
        <time>2014-10-20T13:02:48Z</time>
      </trkpt>
      <trkpt lat="45.10355" lon="2.69634">
        <ele>1639.67</ele>
        <time>2014-10-20T13:02:57Z</time>
      </trkpt>
      <trkpt lat="45.10356" lon="2.69638">
        <ele>1641.11</ele>
        <time>2014-10-20T13:03:02Z</time>
      </trkpt>
      <trkpt lat="45.1036" lon="2.69654">
        <ele>1643.51</ele>
        <time>2014-10-20T13:03:14Z</time>
      </trkpt>
      <trkpt lat="45.10361" lon="2.6966">
        <ele>1642.07</ele>
        <time>2014-10-20T13:03:19Z</time>
      </trkpt>
      <trkpt lat="45.10362" lon="2.69665">
        <ele>1643.99</ele>
        <time>2014-10-20T13:03:22Z</time>
      </trkpt>
      <trkpt lat="45.1037" lon="2.6969">
        <ele>1642.55</ele>
        <time>2014-10-20T13:03:39Z</time>
      </trkpt>
      <trkpt lat="45.10377" lon="2.69707">
        <ele>1643.51</ele>
        <time>2014-10-20T13:03:51Z</time>
      </trkpt>
      <trkpt lat="45.10376" lon="2.69713">
        <ele>1643.99</ele>
        <time>2014-10-20T13:03:55Z</time>
      </trkpt>
      <trkpt lat="45.10379" lon="2.69732">
        <ele>1642.55</ele>
        <time>2014-10-20T13:04:08Z</time>
      </trkpt>
      <trkpt lat="45.1038" lon="2.69738">
        <ele>1643.03</ele>
        <time>2014-10-20T13:04:12Z</time>
      </trkpt>
      <trkpt lat="45.10381" lon="2.69741">
        <ele>1642.55</ele>
        <time>2014-10-20T13:04:14Z</time>
      </trkpt>
      <trkpt lat="45.10385" lon="2.69755">
        <ele>1642.07</ele>
        <time>2014-10-20T13:04:26Z</time>
      </trkpt>
      <trkpt lat="45.10385" lon="2.6976">
        <ele>1640.15</ele>
        <time>2014-10-20T13:04:29Z</time>
      </trkpt>
      <trkpt lat="45.10388" lon="2.69769">
        <ele>1638.7</ele>
        <time>2014-10-20T13:04:35Z</time>
      </trkpt>
      <trkpt lat="45.104" lon="2.69808">
        <ele>1638.22</ele>
        <time>2014-10-20T13:04:59Z</time>
      </trkpt>
      <trkpt lat="45.10405" lon="2.69826">
        <ele>1639.67</ele>
        <time>2014-10-20T13:05:13Z</time>
      </trkpt>
      <trkpt lat="45.10414" lon="2.69851">
        <ele>1642.55</ele>
        <time>2014-10-20T13:05:32Z</time>
      </trkpt>
      <trkpt lat="45.10417" lon="2.69858">
        <ele>1643.03</ele>
        <time>2014-10-20T13:05:37Z</time>
      </trkpt>
      <trkpt lat="45.10419" lon="2.69868">
        <ele>1643.99</ele>
        <time>2014-10-20T13:05:46Z</time>
      </trkpt>
      <trkpt lat="45.10425" lon="2.69892">
        <ele>1644.95</ele>
        <time>2014-10-20T13:06:04Z</time>
      </trkpt>
      <trkpt lat="45.1043" lon="2.69902">
        <ele>1645.43</ele>
        <time>2014-10-20T13:06:13Z</time>
      </trkpt>
      <trkpt lat="45.10436" lon="2.69909">
        <ele>1644.47</ele>
        <time>2014-10-20T13:06:20Z</time>
      </trkpt>
      <trkpt lat="45.10444" lon="2.69922">
        <ele>1647.36</ele>
        <time>2014-10-20T13:06:37Z</time>
      </trkpt>
      <trkpt lat="45.10461" lon="2.69938">
        <ele>1644.47</ele>
        <time>2014-10-20T13:06:58Z</time>
      </trkpt>
      <trkpt lat="45.10471" lon="2.69952">
        <ele>1643.03</ele>
        <time>2014-10-20T13:07:13Z</time>
      </trkpt>
      <trkpt lat="45.10473" lon="2.69956">
        <ele>1642.55</ele>
        <time>2014-10-20T13:07:17Z</time>
      </trkpt>
      <trkpt lat="45.10489" lon="2.69973">
        <ele>1640.63</ele>
        <time>2014-10-20T13:07:37Z</time>
      </trkpt>
      <trkpt lat="45.10492" lon="2.69976">
        <ele>1639.67</ele>
        <time>2014-10-20T13:07:41Z</time>
      </trkpt>
      <trkpt lat="45.10505" lon="2.69991">
        <ele>1637.74</ele>
        <time>2014-10-20T13:07:59Z</time>
      </trkpt>
      <trkpt lat="45.10513" lon="2.70003">
        <ele>1636.3</ele>
        <time>2014-10-20T13:08:12Z</time>
      </trkpt>
      <trkpt lat="45.10514" lon="2.70006">
        <ele>1634.86</ele>
        <time>2014-10-20T13:08:16Z</time>
      </trkpt>
      <trkpt lat="45.10517" lon="2.70009">
        <ele>1634.38</ele>
        <time>2014-10-20T13:08:19Z</time>
      </trkpt>
      <trkpt lat="45.10526" lon="2.70019">
        <ele>1633.9</ele>
        <time>2014-10-20T13:08:29Z</time>
      </trkpt>
      <trkpt lat="45.10536" lon="2.70042">
        <ele>1633.9</ele>
        <time>2014-10-20T13:08:48Z</time>
      </trkpt>
      <trkpt lat="45.10538" lon="2.70053">
        <ele>1631.98</ele>
        <time>2014-10-20T13:09:01Z</time>
      </trkpt>
      <trkpt lat="45.1054" lon="2.70062">
        <ele>1630.53</ele>
        <time>2014-10-20T13:09:20Z</time>
      </trkpt>
      <trkpt lat="45.10543" lon="2.70075">
        <ele>1628.61</ele>
        <time>2014-10-20T13:09:37Z</time>
      </trkpt>
      <trkpt lat="45.10546" lon="2.70087">
        <ele>1626.69</ele>
        <time>2014-10-20T13:09:53Z</time>
      </trkpt>
      <trkpt lat="45.1055" lon="2.70102">
        <ele>1625.73</ele>
        <time>2014-10-20T13:10:04Z</time>
      </trkpt>
      <trkpt lat="45.10555" lon="2.7012">
        <ele>1623.8</ele>
        <time>2014-10-20T13:10:17Z</time>
      </trkpt>
      <trkpt lat="45.10555" lon="2.70123">
        <ele>1623.8</ele>
        <time>2014-10-20T13:10:19Z</time>
      </trkpt>
      <trkpt lat="45.10556" lon="2.7014">
        <ele>1622.36</ele>
        <time>2014-10-20T13:10:30Z</time>
      </trkpt>
      <trkpt lat="45.10553" lon="2.7015">
        <ele>1622.36</ele>
        <time>2014-10-20T13:10:37Z</time>
      </trkpt>
      <trkpt lat="45.10554" lon="2.70159">
        <ele>1622.84</ele>
        <time>2014-10-20T13:10:43Z</time>
      </trkpt>
      <trkpt lat="45.10554" lon="2.70163">
        <ele>1622.36</ele>
        <time>2014-10-20T13:10:47Z</time>
      </trkpt>
      <trkpt lat="45.10556" lon="2.70181">
        <ele>1619.48</ele>
        <time>2014-10-20T13:10:58Z</time>
      </trkpt>
      <trkpt lat="45.10552" lon="2.70211">
        <ele>1619</ele>
        <time>2014-10-20T13:11:19Z</time>
      </trkpt>
      <trkpt lat="45.10551" lon="2.70215">
        <ele>1618.52</ele>
        <time>2014-10-20T13:11:22Z</time>
      </trkpt>
      <trkpt lat="45.10548" lon="2.70238">
        <ele>1619</ele>
        <time>2014-10-20T13:11:37Z</time>
      </trkpt>
      <trkpt lat="45.10549" lon="2.70249">
        <ele>1619.48</ele>
        <time>2014-10-20T13:11:45Z</time>
      </trkpt>
      <trkpt lat="45.1055" lon="2.70259">
        <ele>1619</ele>
        <time>2014-10-20T13:11:56Z</time>
      </trkpt>
      <trkpt lat="45.10549" lon="2.70263">
        <ele>1618.52</ele>
        <time>2014-10-20T13:11:59Z</time>
      </trkpt>
      <trkpt lat="45.10548" lon="2.70268">
        <ele>1619.48</ele>
        <time>2014-10-20T13:12:04Z</time>
      </trkpt>
      <trkpt lat="45.10542" lon="2.703">
        <ele>1620.44</ele>
        <time>2014-10-20T13:12:26Z</time>
      </trkpt>
      <trkpt lat="45.1054" lon="2.70312">
        <ele>1621.4</ele>
        <time>2014-10-20T13:12:36Z</time>
      </trkpt>
      <trkpt lat="45.10542" lon="2.70339">
        <ele>1619.96</ele>
        <time>2014-10-20T13:12:53Z</time>
      </trkpt>
      <trkpt lat="45.10547" lon="2.70347">
        <ele>1619.96</ele>
        <time>2014-10-20T13:13:02Z</time>
      </trkpt>
      <trkpt lat="45.10548" lon="2.70351">
        <ele>1619</ele>
        <time>2014-10-20T13:13:06Z</time>
      </trkpt>
      <trkpt lat="45.10551" lon="2.70355">
        <ele>1618.52</ele>
        <time>2014-10-20T13:13:10Z</time>
      </trkpt>
      <trkpt lat="45.10563" lon="2.70373">
        <ele>1615.15</ele>
        <time>2014-10-20T13:13:27Z</time>
      </trkpt>
      <trkpt lat="45.10566" lon="2.70375">
        <ele>1614.67</ele>
        <time>2014-10-20T13:13:30Z</time>
      </trkpt>
      <trkpt lat="45.10571" lon="2.7039">
        <ele>1614.19</ele>
        <time>2014-10-20T13:13:42Z</time>
      </trkpt>
      <trkpt lat="45.10574" lon="2.70397">
        <ele>1614.19</ele>
        <time>2014-10-20T13:13:47Z</time>
      </trkpt>
      <trkpt lat="45.10583" lon="2.70425">
        <ele>1612.75</ele>
        <time>2014-10-20T13:14:05Z</time>
      </trkpt>
      <trkpt lat="45.10583" lon="2.70428">
        <ele>1612.27</ele>
        <time>2014-10-20T13:14:08Z</time>
      </trkpt>
      <trkpt lat="45.10583" lon="2.70433">
        <ele>1611.79</ele>
        <time>2014-10-20T13:14:11Z</time>
      </trkpt>
      <trkpt lat="45.10587" lon="2.70444">
        <ele>1611.79</ele>
        <time>2014-10-20T13:14:18Z</time>
      </trkpt>
      <trkpt lat="45.10586" lon="2.70452">
        <ele>1611.31</ele>
        <time>2014-10-20T13:14:23Z</time>
      </trkpt>
      <trkpt lat="45.10587" lon="2.7046">
        <ele>1611.31</ele>
        <time>2014-10-20T13:14:28Z</time>
      </trkpt>
      <trkpt lat="45.10587" lon="2.70468">
        <ele>1610.83</ele>
        <time>2014-10-20T13:14:33Z</time>
      </trkpt>
      <trkpt lat="45.10585" lon="2.7047">
        <ele>1610.35</ele>
        <time>2014-10-20T13:14:35Z</time>
      </trkpt>
      <trkpt lat="45.10586" lon="2.70477">
        <ele>1610.35</ele>
        <time>2014-10-20T13:14:41Z</time>
      </trkpt>
      <trkpt lat="45.10591" lon="2.70497">
        <ele>1607.94</ele>
        <time>2014-10-20T13:14:54Z</time>
      </trkpt>
      <trkpt lat="45.1059" lon="2.705">
        <ele>1607.46</ele>
        <time>2014-10-20T13:14:57Z</time>
      </trkpt>
      <trkpt lat="45.10589" lon="2.70517">
        <ele>1604.58</ele>
        <time>2014-10-20T13:15:11Z</time>
      </trkpt>
      <trkpt lat="45.10587" lon="2.70526">
        <ele>1603.62</ele>
        <time>2014-10-20T13:15:19Z</time>
      </trkpt>
      <trkpt lat="45.10588" lon="2.70539">
        <ele>1602.17</ele>
        <time>2014-10-20T13:15:28Z</time>
      </trkpt>
      <trkpt lat="45.10588" lon="2.70571">
        <ele>1601.21</ele>
        <time>2014-10-20T13:15:47Z</time>
      </trkpt>
      <trkpt lat="45.10591" lon="2.70589">
        <ele>1599.77</ele>
        <time>2014-10-20T13:16:04Z</time>
      </trkpt>
      <trkpt lat="45.10599" lon="2.70597">
        <ele>1597.85</ele>
        <time>2014-10-20T13:16:14Z</time>
      </trkpt>
      <trkpt lat="45.10607" lon="2.70606">
        <ele>1595.93</ele>
        <time>2014-10-20T13:16:22Z</time>
      </trkpt>
      <trkpt lat="45.10609" lon="2.70614">
        <ele>1595.45</ele>
        <time>2014-10-20T13:16:27Z</time>
      </trkpt>
      <trkpt lat="45.10613" lon="2.7062">
        <ele>1596.41</ele>
        <time>2014-10-20T13:16:35Z</time>
      </trkpt>
      <trkpt lat="45.10625" lon="2.7064">
        <ele>1595.45</ele>
        <time>2014-10-20T13:16:54Z</time>
      </trkpt>
      <trkpt lat="45.10643" lon="2.70658">
        <ele>1594</ele>
        <time>2014-10-20T13:17:13Z</time>
      </trkpt>
      <trkpt lat="45.10655" lon="2.70671">
        <ele>1592.56</ele>
        <time>2014-10-20T13:17:28Z</time>
      </trkpt>
      <trkpt lat="45.10656" lon="2.70674">
        <ele>1592.08</ele>
        <time>2014-10-20T13:17:30Z</time>
      </trkpt>
      <trkpt lat="45.10676" lon="2.70695">
        <ele>1590.64</ele>
        <time>2014-10-20T13:17:50Z</time>
      </trkpt>
      <trkpt lat="45.10678" lon="2.70701">
        <ele>1590.64</ele>
        <time>2014-10-20T13:17:54Z</time>
      </trkpt>
      <trkpt lat="45.10682" lon="2.70716">
        <ele>1590.16</ele>
        <time>2014-10-20T13:18:13Z</time>
      </trkpt>
      <trkpt lat="45.10683" lon="2.70717">
        <ele>1590.16</ele>
        <time>2014-10-20T13:18:17Z</time>
      </trkpt>
      <trkpt lat="45.10687" lon="2.70737">
        <ele>1589.68</ele>
        <time>2014-10-20T13:18:31Z</time>
      </trkpt>
      <trkpt lat="45.10691" lon="2.70764">
        <ele>1589.2</ele>
        <time>2014-10-20T13:18:48Z</time>
      </trkpt>
      <trkpt lat="45.10694" lon="2.70771">
        <ele>1589.68</ele>
        <time>2014-10-20T13:18:53Z</time>
      </trkpt>
      <trkpt lat="45.10696" lon="2.70794">
        <ele>1589.68</ele>
        <time>2014-10-20T13:19:08Z</time>
      </trkpt>
      <trkpt lat="45.10696" lon="2.70798">
        <ele>1590.16</ele>
        <time>2014-10-20T13:19:11Z</time>
      </trkpt>
      <trkpt lat="45.10692" lon="2.70827">
        <ele>1591.12</ele>
        <time>2014-10-20T13:19:31Z</time>
      </trkpt>
      <trkpt lat="45.10695" lon="2.70832">
        <ele>1591.12</ele>
        <time>2014-10-20T13:19:35Z</time>
      </trkpt>
      <trkpt lat="45.10701" lon="2.70849">
        <ele>1590.64</ele>
        <time>2014-10-20T13:19:47Z</time>
      </trkpt>
      <trkpt lat="45.107" lon="2.70857">
        <ele>1590.64</ele>
        <time>2014-10-20T13:19:53Z</time>
      </trkpt>
      <trkpt lat="45.10699" lon="2.7086">
        <ele>1590.64</ele>
        <time>2014-10-20T13:19:56Z</time>
      </trkpt>
      <trkpt lat="45.10689" lon="2.70892">
        <ele>1589.2</ele>
        <time>2014-10-20T13:20:18Z</time>
      </trkpt>
      <trkpt lat="45.10684" lon="2.70903">
        <ele>1589.68</ele>
        <time>2014-10-20T13:20:35Z</time>
      </trkpt>
      <trkpt lat="45.10679" lon="2.70914">
        <ele>1589.2</ele>
        <time>2014-10-20T13:20:43Z</time>
      </trkpt>
      <trkpt lat="45.10673" lon="2.70925">
        <ele>1589.68</ele>
        <time>2014-10-20T13:21:04Z</time>
      </trkpt>
      <trkpt lat="45.10674" lon="2.70938">
        <ele>1587.75</ele>
        <time>2014-10-20T13:21:24Z</time>
      </trkpt>
      <trkpt lat="45.10673" lon="2.70941">
        <ele>1585.83</ele>
        <time>2014-10-20T13:21:31Z</time>
      </trkpt>
      <trkpt lat="45.10676" lon="2.70945">
        <ele>1585.35</ele>
        <time>2014-10-20T13:21:35Z</time>
      </trkpt>
      <trkpt lat="45.1068" lon="2.70949">
        <ele>1587.27</ele>
        <time>2014-10-20T13:21:40Z</time>
      </trkpt>
      <trkpt lat="45.10687" lon="2.70961">
        <ele>1589.68</ele>
        <time>2014-10-20T13:21:53Z</time>
      </trkpt>
      <trkpt lat="45.10688" lon="2.70971">
        <ele>1589.2</ele>
        <time>2014-10-20T13:21:59Z</time>
      </trkpt>
      <trkpt lat="45.1069" lon="2.70975">
        <ele>1588.72</ele>
        <time>2014-10-20T13:22:02Z</time>
      </trkpt>
      <trkpt lat="45.10689" lon="2.70982">
        <ele>1588.72</ele>
        <time>2014-10-20T13:22:06Z</time>
      </trkpt>
      <trkpt lat="45.10692" lon="2.70988">
        <ele>1587.75</ele>
        <time>2014-10-20T13:22:11Z</time>
      </trkpt>
      <trkpt lat="45.10693" lon="2.70998">
        <ele>1586.79</ele>
        <time>2014-10-20T13:22:19Z</time>
      </trkpt>
      <trkpt lat="45.10692" lon="2.71006">
        <ele>1585.83</ele>
        <time>2014-10-20T13:22:25Z</time>
      </trkpt>
      <trkpt lat="45.10692" lon="2.71011">
        <ele>1585.83</ele>
        <time>2014-10-20T13:22:44Z</time>
      </trkpt>
      <trkpt lat="45.10692" lon="2.71013">
        <ele>1585.83</ele>
        <time>2014-10-20T13:23:26Z</time>
      </trkpt>
      <trkpt lat="45.10692" lon="2.71015">
        <ele>1585.83</ele>
        <time>2014-10-20T13:23:30Z</time>
      </trkpt>
      <trkpt lat="45.10691" lon="2.71021">
        <ele>1585.35</ele>
        <time>2014-10-20T13:23:34Z</time>
      </trkpt>
      <trkpt lat="45.10687" lon="2.71033">
        <ele>1584.87</ele>
        <time>2014-10-20T13:23:41Z</time>
      </trkpt>
      <trkpt lat="45.10681" lon="2.71052">
        <ele>1583.91</ele>
        <time>2014-10-20T13:23:56Z</time>
      </trkpt>
      <trkpt lat="45.10678" lon="2.71059">
        <ele>1583.91</ele>
        <time>2014-10-20T13:24:01Z</time>
      </trkpt>
      <trkpt lat="45.1067" lon="2.71068">
        <ele>1582.95</ele>
        <time>2014-10-20T13:24:09Z</time>
      </trkpt>
      <trkpt lat="45.10666" lon="2.71073">
        <ele>1581.99</ele>
        <time>2014-10-20T13:24:14Z</time>
      </trkpt>
      <trkpt lat="45.10663" lon="2.71075">
        <ele>1581.99</ele>
        <time>2014-10-20T13:24:17Z</time>
      </trkpt>
      <trkpt lat="45.10657" lon="2.71085">
        <ele>1581.99</ele>
        <time>2014-10-20T13:24:24Z</time>
      </trkpt>
      <trkpt lat="45.10653" lon="2.71092">
        <ele>1580.54</ele>
        <time>2014-10-20T13:24:29Z</time>
      </trkpt>
      <trkpt lat="45.10641" lon="2.71104">
        <ele>1581.03</ele>
        <time>2014-10-20T13:24:40Z</time>
      </trkpt>
      <trkpt lat="45.10639" lon="2.71107">
        <ele>1580.06</ele>
        <time>2014-10-20T13:24:42Z</time>
      </trkpt>
      <trkpt lat="45.10632" lon="2.7111">
        <ele>1580.06</ele>
        <time>2014-10-20T13:24:47Z</time>
      </trkpt>
      <trkpt lat="45.10607" lon="2.71124">
        <ele>1578.62</ele>
        <time>2014-10-20T13:25:08Z</time>
      </trkpt>
      <trkpt lat="45.10604" lon="2.71131">
        <ele>1579.1</ele>
        <time>2014-10-20T13:25:13Z</time>
      </trkpt>
      <trkpt lat="45.10595" lon="2.7114">
        <ele>1579.1</ele>
        <time>2014-10-20T13:25:23Z</time>
      </trkpt>
      <trkpt lat="45.10589" lon="2.71161">
        <ele>1576.7</ele>
        <time>2014-10-20T13:25:37Z</time>
      </trkpt>
      <trkpt lat="45.10589" lon="2.71172">
        <ele>1577.18</ele>
        <time>2014-10-20T13:25:43Z</time>
      </trkpt>
      <trkpt lat="45.10588" lon="2.71175">
        <ele>1576.7</ele>
        <time>2014-10-20T13:25:45Z</time>
      </trkpt>
      <trkpt lat="45.10583" lon="2.71179">
        <ele>1575.26</ele>
        <time>2014-10-20T13:25:50Z</time>
      </trkpt>
      <trkpt lat="45.10576" lon="2.71188">
        <ele>1572.37</ele>
        <time>2014-10-20T13:26:04Z</time>
      </trkpt>
      <trkpt lat="45.10575" lon="2.7119">
        <ele>1572.37</ele>
        <time>2014-10-20T13:26:06Z</time>
      </trkpt>
      <trkpt lat="45.10573" lon="2.71194">
        <ele>1571.89</ele>
        <time>2014-10-20T13:26:09Z</time>
      </trkpt>
      <trkpt lat="45.10572" lon="2.71196">
        <ele>1571.89</ele>
        <time>2014-10-20T13:26:26Z</time>
      </trkpt>
      <trkpt lat="45.10569" lon="2.71202">
        <ele>1571.89</ele>
        <time>2014-10-20T13:26:40Z</time>
      </trkpt>
      <trkpt lat="45.10562" lon="2.71209">
        <ele>1569.97</ele>
        <time>2014-10-20T13:26:47Z</time>
      </trkpt>
      <trkpt lat="45.10557" lon="2.7121">
        <ele>1569.49</ele>
        <time>2014-10-20T13:26:51Z</time>
      </trkpt>
      <trkpt lat="45.10548" lon="2.71221">
        <ele>1568.05</ele>
        <time>2014-10-20T13:27:01Z</time>
      </trkpt>
      <trkpt lat="45.10547" lon="2.71227">
        <ele>1567.09</ele>
        <time>2014-10-20T13:27:05Z</time>
      </trkpt>
      <trkpt lat="45.10545" lon="2.7123">
        <ele>1566.12</ele>
        <time>2014-10-20T13:27:08Z</time>
      </trkpt>
      <trkpt lat="45.10541" lon="2.71237">
        <ele>1566.12</ele>
        <time>2014-10-20T13:27:14Z</time>
      </trkpt>
      <trkpt lat="45.10538" lon="2.71249">
        <ele>1567.09</ele>
        <time>2014-10-20T13:27:22Z</time>
      </trkpt>
      <trkpt lat="45.10531" lon="2.71262">
        <ele>1564.2</ele>
        <time>2014-10-20T13:27:33Z</time>
      </trkpt>
      <trkpt lat="45.10529" lon="2.71276">
        <ele>1563.24</ele>
        <time>2014-10-20T13:27:41Z</time>
      </trkpt>
      <trkpt lat="45.10517" lon="2.71288">
        <ele>1561.8</ele>
        <time>2014-10-20T13:27:53Z</time>
      </trkpt>
      <trkpt lat="45.10513" lon="2.71291">
        <ele>1561.32</ele>
        <time>2014-10-20T13:27:57Z</time>
      </trkpt>
      <trkpt lat="45.10504" lon="2.71308">
        <ele>1557.47</ele>
        <time>2014-10-20T13:28:11Z</time>
      </trkpt>
      <trkpt lat="45.10503" lon="2.71309">
        <ele>1557.47</ele>
        <time>2014-10-20T13:28:13Z</time>
      </trkpt>
      <trkpt lat="45.10493" lon="2.71316">
        <ele>1556.99</ele>
        <time>2014-10-20T13:28:23Z</time>
      </trkpt>
      <trkpt lat="45.10488" lon="2.71319">
        <ele>1556.51</ele>
        <time>2014-10-20T13:28:27Z</time>
      </trkpt>
      <trkpt lat="45.10475" lon="2.71325">
        <ele>1556.03</ele>
        <time>2014-10-20T13:28:39Z</time>
      </trkpt>
      <trkpt lat="45.10452" lon="2.71329">
        <ele>1553.63</ele>
        <time>2014-10-20T13:28:58Z</time>
      </trkpt>
      <trkpt lat="45.10444" lon="2.71333">
        <ele>1553.15</ele>
        <time>2014-10-20T13:29:05Z</time>
      </trkpt>
      <trkpt lat="45.10438" lon="2.71365">
        <ele>1553.15</ele>
        <time>2014-10-20T13:29:26Z</time>
      </trkpt>
      <trkpt lat="45.10438" lon="2.71382">
        <ele>1553.15</ele>
        <time>2014-10-20T13:29:37Z</time>
      </trkpt>
      <trkpt lat="45.10437" lon="2.71388">
        <ele>1551.22</ele>
        <time>2014-10-20T13:29:41Z</time>
      </trkpt>
      <trkpt lat="45.10437" lon="2.7139">
        <ele>1552.19</ele>
        <time>2014-10-20T13:29:42Z</time>
      </trkpt>
      <trkpt lat="45.10437" lon="2.71399">
        <ele>1552.19</ele>
        <time>2014-10-20T13:29:47Z</time>
      </trkpt>
      <trkpt lat="45.10438" lon="2.71418">
        <ele>1553.15</ele>
        <time>2014-10-20T13:29:58Z</time>
      </trkpt>
      <trkpt lat="45.10439" lon="2.71426">
        <ele>1553.15</ele>
        <time>2014-10-20T13:30:07Z</time>
      </trkpt>
      <trkpt lat="45.10444" lon="2.7144">
        <ele>1547.38</ele>
        <time>2014-10-20T13:30:19Z</time>
      </trkpt>
      <trkpt lat="45.10442" lon="2.71466">
        <ele>1544.98</ele>
        <time>2014-10-20T13:30:37Z</time>
      </trkpt>
      <trkpt lat="45.10435" lon="2.715">
        <ele>1544.98</ele>
        <time>2014-10-20T13:30:58Z</time>
      </trkpt>
      <trkpt lat="45.10432" lon="2.71508">
        <ele>1546.42</ele>
        <time>2014-10-20T13:31:02Z</time>
      </trkpt>
      <trkpt lat="45.10422" lon="2.7154">
        <ele>1547.86</ele>
        <time>2014-10-20T13:31:22Z</time>
      </trkpt>
      <trkpt lat="45.1042" lon="2.71546">
        <ele>1548.34</ele>
        <time>2014-10-20T13:31:26Z</time>
      </trkpt>
      <trkpt lat="45.10414" lon="2.71553">
        <ele>1547.86</ele>
        <time>2014-10-20T13:31:33Z</time>
      </trkpt>
      <trkpt lat="45.10411" lon="2.71559">
        <ele>1547.86</ele>
        <time>2014-10-20T13:31:37Z</time>
      </trkpt>
      <trkpt lat="45.10411" lon="2.71563">
        <ele>1548.82</ele>
        <time>2014-10-20T13:31:40Z</time>
      </trkpt>
      <trkpt lat="45.10409" lon="2.7157">
        <ele>1546.9</ele>
        <time>2014-10-20T13:31:45Z</time>
      </trkpt>
      <trkpt lat="45.10408" lon="2.71572">
        <ele>1544.5</ele>
        <time>2014-10-20T13:31:48Z</time>
      </trkpt>
      <trkpt lat="45.10408" lon="2.71572">
        <ele>1545.94</ele>
        <time>2014-10-20T13:31:50Z</time>
      </trkpt>
      <trkpt lat="45.10401" lon="2.71583">
        <ele>1544.01</ele>
        <time>2014-10-20T13:32:09Z</time>
      </trkpt>
      <trkpt lat="45.10393" lon="2.71599">
        <ele>1546.42</ele>
        <time>2014-10-20T13:32:25Z</time>
      </trkpt>
      <trkpt lat="45.10392" lon="2.716">
        <ele>1545.46</ele>
        <time>2014-10-20T13:32:26Z</time>
      </trkpt>
      <trkpt lat="45.10374" lon="2.7161">
        <ele>1546.42</ele>
        <time>2014-10-20T13:32:44Z</time>
      </trkpt>
      <trkpt lat="45.10354" lon="2.71617">
        <ele>1547.38</ele>
        <time>2014-10-20T13:33:02Z</time>
      </trkpt>
      <trkpt lat="45.10343" lon="2.71624">
        <ele>1546.42</ele>
        <time>2014-10-20T13:33:11Z</time>
      </trkpt>
      <trkpt lat="45.10341" lon="2.71625">
        <ele>1545.94</ele>
        <time>2014-10-20T13:33:13Z</time>
      </trkpt>
      <trkpt lat="45.1033" lon="2.71629">
        <ele>1541.13</ele>
        <time>2014-10-20T13:33:26Z</time>
      </trkpt>
      <trkpt lat="45.10329" lon="2.71629">
        <ele>1541.13</ele>
        <time>2014-10-20T13:33:27Z</time>
      </trkpt>
      <trkpt lat="45.10328" lon="2.7163">
        <ele>1541.61</ele>
        <time>2014-10-20T13:33:29Z</time>
      </trkpt>
      <trkpt lat="45.10325" lon="2.71634">
        <ele>1539.21</ele>
        <time>2014-10-20T13:33:34Z</time>
      </trkpt>
      <trkpt lat="45.1032" lon="2.71634">
        <ele>1536.32</ele>
        <time>2014-10-20T13:33:41Z</time>
      </trkpt>
      <trkpt lat="45.10318" lon="2.71634">
        <ele>1537.29</ele>
        <time>2014-10-20T13:33:43Z</time>
      </trkpt>
      <trkpt lat="45.10314" lon="2.71638">
        <ele>1537.29</ele>
        <time>2014-10-20T13:33:49Z</time>
      </trkpt>
      <trkpt lat="45.10312" lon="2.71641">
        <ele>1535.84</ele>
        <time>2014-10-20T13:33:52Z</time>
      </trkpt>
      <trkpt lat="45.10311" lon="2.71642">
        <ele>1535.36</ele>
        <time>2014-10-20T13:33:53Z</time>
      </trkpt>
      <trkpt lat="45.10307" lon="2.71639">
        <ele>1533.44</ele>
        <time>2014-10-20T13:34:07Z</time>
      </trkpt>
      <trkpt lat="45.10306" lon="2.71636">
        <ele>1534.88</ele>
        <time>2014-10-20T13:34:10Z</time>
      </trkpt>
      <trkpt lat="45.10305" lon="2.71633">
        <ele>1533.92</ele>
        <time>2014-10-20T13:34:12Z</time>
      </trkpt>
      <trkpt lat="45.10303" lon="2.71629">
        <ele>1532.48</ele>
        <time>2014-10-20T13:34:15Z</time>
      </trkpt>
      <trkpt lat="45.10301" lon="2.7162">
        <ele>1529.59</ele>
        <time>2014-10-20T13:34:34Z</time>
      </trkpt>
      <trkpt lat="45.10299" lon="2.71616">
        <ele>1530.08</ele>
        <time>2014-10-20T13:34:38Z</time>
      </trkpt>
      <trkpt lat="45.10295" lon="2.7161">
        <ele>1529.11</ele>
        <time>2014-10-20T13:34:43Z</time>
      </trkpt>
      <trkpt lat="45.10293" lon="2.71603">
        <ele>1527.19</ele>
        <time>2014-10-20T13:34:49Z</time>
      </trkpt>
      <trkpt lat="45.10291" lon="2.716">
        <ele>1525.75</ele>
        <time>2014-10-20T13:34:58Z</time>
      </trkpt>
      <trkpt lat="45.10289" lon="2.71594">
        <ele>1524.31</ele>
        <time>2014-10-20T13:35:04Z</time>
      </trkpt>
      <trkpt lat="45.1029" lon="2.71587">
        <ele>1522.39</ele>
        <time>2014-10-20T13:35:25Z</time>
      </trkpt>
      <trkpt lat="45.10291" lon="2.71584">
        <ele>1521.9</ele>
        <time>2014-10-20T13:35:28Z</time>
      </trkpt>
      <trkpt lat="45.10291" lon="2.71581">
        <ele>1520.94</ele>
        <time>2014-10-20T13:35:31Z</time>
      </trkpt>
      <trkpt lat="45.10292" lon="2.71571">
        <ele>1518.54</ele>
        <time>2014-10-20T13:35:38Z</time>
      </trkpt>
      <trkpt lat="45.10293" lon="2.71568">
        <ele>1517.58</ele>
        <time>2014-10-20T13:35:41Z</time>
      </trkpt>
      <trkpt lat="45.10303" lon="2.71552">
        <ele>1514.21</ele>
        <time>2014-10-20T13:35:54Z</time>
      </trkpt>
      <trkpt lat="45.10304" lon="2.71548">
        <ele>1513.25</ele>
        <time>2014-10-20T13:35:58Z</time>
      </trkpt>
      <trkpt lat="45.10308" lon="2.7153">
        <ele>1510.37</ele>
        <time>2014-10-20T13:36:09Z</time>
      </trkpt>
      <trkpt lat="45.1031" lon="2.71526">
        <ele>1510.37</ele>
        <time>2014-10-20T13:36:12Z</time>
      </trkpt>
      <trkpt lat="45.10311" lon="2.71522">
        <ele>1509.89</ele>
        <time>2014-10-20T13:36:16Z</time>
      </trkpt>
      <trkpt lat="45.10311" lon="2.71519">
        <ele>1509.41</ele>
        <time>2014-10-20T13:36:18Z</time>
      </trkpt>
      <trkpt lat="45.10315" lon="2.7151">
        <ele>1507</ele>
        <time>2014-10-20T13:36:43Z</time>
      </trkpt>
      <trkpt lat="45.10318" lon="2.71505">
        <ele>1506.04</ele>
        <time>2014-10-20T13:36:48Z</time>
      </trkpt>
      <trkpt lat="45.10319" lon="2.71503">
        <ele>1505.08</ele>
        <time>2014-10-20T13:36:51Z</time>
      </trkpt>
      <trkpt lat="45.1032" lon="2.715">
        <ele>1503.64</ele>
        <time>2014-10-20T13:36:55Z</time>
      </trkpt>
      <trkpt lat="45.10324" lon="2.71485">
        <ele>1499.79</ele>
        <time>2014-10-20T13:37:09Z</time>
      </trkpt>
      <trkpt lat="45.10327" lon="2.71478">
        <ele>1498.83</ele>
        <time>2014-10-20T13:37:17Z</time>
      </trkpt>
      <trkpt lat="45.10337" lon="2.71464">
        <ele>1495.95</ele>
        <time>2014-10-20T13:37:32Z</time>
      </trkpt>
      <trkpt lat="45.1034" lon="2.71457">
        <ele>1494.03</ele>
        <time>2014-10-20T13:37:40Z</time>
      </trkpt>
      <trkpt lat="45.10342" lon="2.71453">
        <ele>1493.06</ele>
        <time>2014-10-20T13:37:45Z</time>
      </trkpt>
      <trkpt lat="45.10341" lon="2.7145">
        <ele>1492.58</ele>
        <time>2014-10-20T13:37:48Z</time>
      </trkpt>
      <trkpt lat="45.10339" lon="2.71442">
        <ele>1490.66</ele>
        <time>2014-10-20T13:37:57Z</time>
      </trkpt>
      <trkpt lat="45.10335" lon="2.71438">
        <ele>1488.74</ele>
        <time>2014-10-20T13:38:04Z</time>
      </trkpt>
      <trkpt lat="45.10334" lon="2.71436">
        <ele>1488.26</ele>
        <time>2014-10-20T13:38:06Z</time>
      </trkpt>
      <trkpt lat="45.10334" lon="2.71432">
        <ele>1487.78</ele>
        <time>2014-10-20T13:38:09Z</time>
      </trkpt>
      <trkpt lat="45.10331" lon="2.71424">
        <ele>1484.41</ele>
        <time>2014-10-20T13:38:18Z</time>
      </trkpt>
      <trkpt lat="45.10329" lon="2.71421">
        <ele>1483.45</ele>
        <time>2014-10-20T13:38:24Z</time>
      </trkpt>
      <trkpt lat="45.10327" lon="2.71417">
        <ele>1482.49</ele>
        <time>2014-10-20T13:38:28Z</time>
      </trkpt>
      <trkpt lat="45.10326" lon="2.71415">
        <ele>1482.01</ele>
        <time>2014-10-20T13:38:30Z</time>
      </trkpt>
      <trkpt lat="45.10324" lon="2.71411">
        <ele>1481.53</ele>
        <time>2014-10-20T13:38:33Z</time>
      </trkpt>
      <trkpt lat="45.10322" lon="2.71403">
        <ele>1480.57</ele>
        <time>2014-10-20T13:38:38Z</time>
      </trkpt>
      <trkpt lat="45.10321" lon="2.714">
        <ele>1480.09</ele>
        <time>2014-10-20T13:38:40Z</time>
      </trkpt>
      <trkpt lat="45.10319" lon="2.71378">
        <ele>1477.68</ele>
        <time>2014-10-20T13:38:54Z</time>
      </trkpt>
      <trkpt lat="45.10315" lon="2.71367">
        <ele>1477.2</ele>
        <time>2014-10-20T13:39:01Z</time>
      </trkpt>
      <trkpt lat="45.10313" lon="2.71361">
        <ele>1476.24</ele>
        <time>2014-10-20T13:39:05Z</time>
      </trkpt>
      <trkpt lat="45.10312" lon="2.71354">
        <ele>1475.28</ele>
        <time>2014-10-20T13:39:09Z</time>
      </trkpt>
      <trkpt lat="45.10312" lon="2.71345">
        <ele>1474.32</ele>
        <time>2014-10-20T13:39:14Z</time>
      </trkpt>
      <trkpt lat="45.10311" lon="2.71342">
        <ele>1474.32</ele>
        <time>2014-10-20T13:39:17Z</time>
      </trkpt>
      <trkpt lat="45.10311" lon="2.71337">
        <ele>1473.84</ele>
        <time>2014-10-20T13:39:20Z</time>
      </trkpt>
      <trkpt lat="45.10311" lon="2.71333">
        <ele>1473.36</ele>
        <time>2014-10-20T13:39:23Z</time>
      </trkpt>
      <trkpt lat="45.10312" lon="2.71329">
        <ele>1472.4</ele>
        <time>2014-10-20T13:39:26Z</time>
      </trkpt>
      <trkpt lat="45.10312" lon="2.71324">
        <ele>1471.92</ele>
        <time>2014-10-20T13:39:29Z</time>
      </trkpt>
      <trkpt lat="45.10313" lon="2.71315">
        <ele>1470.47</ele>
        <time>2014-10-20T13:39:37Z</time>
      </trkpt>
      <trkpt lat="45.10313" lon="2.71315">
        <ele>1470.47</ele>
        <time>2014-10-20T13:39:40Z</time>
      </trkpt>
      <trkpt lat="45.10314" lon="2.71314">
        <ele>1469.03</ele>
        <time>2014-10-20T13:39:43Z</time>
      </trkpt>
      <trkpt lat="45.10315" lon="2.71314">
        <ele>1469.03</ele>
        <time>2014-10-20T13:40:30Z</time>
      </trkpt>
      <trkpt lat="45.10315" lon="2.71313">
        <ele>1469.99</ele>
        <time>2014-10-20T13:40:47Z</time>
      </trkpt>
      <trkpt lat="45.10314" lon="2.71297">
        <ele>1467.11</ele>
        <time>2014-10-20T13:41:08Z</time>
      </trkpt>
      <trkpt lat="45.10311" lon="2.71285">
        <ele>1463.74</ele>
        <time>2014-10-20T13:41:24Z</time>
      </trkpt>
      <trkpt lat="45.10306" lon="2.71273">
        <ele>1460.38</ele>
        <time>2014-10-20T13:41:37Z</time>
      </trkpt>
      <trkpt lat="45.10301" lon="2.71264">
        <ele>1457.02</ele>
        <time>2014-10-20T13:41:52Z</time>
      </trkpt>
      <trkpt lat="45.10296" lon="2.71261">
        <ele>1453.17</ele>
        <time>2014-10-20T13:42:07Z</time>
      </trkpt>
      <trkpt lat="45.10288" lon="2.71258">
        <ele>1450.29</ele>
        <time>2014-10-20T13:42:24Z</time>
      </trkpt>
      <trkpt lat="45.10285" lon="2.71249">
        <ele>1447.4</ele>
        <time>2014-10-20T13:42:39Z</time>
      </trkpt>
      <trkpt lat="45.10279" lon="2.71251">
        <ele>1445</ele>
        <time>2014-10-20T13:42:50Z</time>
      </trkpt>
      <trkpt lat="45.10275" lon="2.71271">
        <ele>1443.56</ele>
        <time>2014-10-20T13:43:11Z</time>
      </trkpt>
      <trkpt lat="45.10274" lon="2.71272">
        <ele>1443.08</ele>
        <time>2014-10-20T13:43:16Z</time>
      </trkpt>
      <trkpt lat="45.10273" lon="2.71281">
        <ele>1443.08</ele>
        <time>2014-10-20T13:43:34Z</time>
      </trkpt>
      <trkpt lat="45.10272" lon="2.71282">
        <ele>1443.08</ele>
        <time>2014-10-20T13:43:41Z</time>
      </trkpt>
      <trkpt lat="45.10273" lon="2.71283">
        <ele>1441.63</ele>
        <time>2014-10-20T13:44:06Z</time>
      </trkpt>
      <trkpt lat="45.10272" lon="2.71283">
        <ele>1441.63</ele>
        <time>2014-10-20T13:45:04Z</time>
      </trkpt>
      <trkpt lat="45.10272" lon="2.71283">
        <ele>1438.27</ele>
        <time>2014-10-20T13:45:35Z</time>
      </trkpt>
      <trkpt lat="45.10272" lon="2.71283">
        <ele>1441.63</ele>
        <time>2014-10-20T13:45:38Z</time>
      </trkpt>
      <trkpt lat="45.10272" lon="2.71282">
        <ele>1435.87</ele>
        <time>2014-10-20T13:45:48Z</time>
      </trkpt>
      <trkpt lat="45.10272" lon="2.71282">
        <ele>1442.6</ele>
        <time>2014-10-20T13:45:49Z</time>
      </trkpt>
      <trkpt lat="45.10273" lon="2.71281">
        <ele>1438.75</ele>
        <time>2014-10-20T13:46:28Z</time>
      </trkpt>
      <trkpt lat="45.10273" lon="2.71281">
        <ele>1442.11</ele>
        <time>2014-10-20T13:46:29Z</time>
      </trkpt>
      <trkpt lat="45.10273" lon="2.71281">
        <ele>1441.15</ele>
        <time>2014-10-20T13:46:36Z</time>
      </trkpt>
      <trkpt lat="45.10273" lon="2.71282">
        <ele>1441.15</ele>
        <time>2014-10-20T13:47:05Z</time>
      </trkpt>
      <trkpt lat="45.10272" lon="2.71281">
        <ele>1441.15</ele>
        <time>2014-10-20T13:47:55Z</time>
      </trkpt>
      <trkpt lat="45.10273" lon="2.71281">
        <ele>1441.63</ele>
        <time>2014-10-20T13:48:47Z</time>
      </trkpt>
      <trkpt lat="45.10272" lon="2.71281">
        <ele>1441.15</ele>
        <time>2014-10-20T13:49:36Z</time>
      </trkpt>
      <trkpt lat="45.10272" lon="2.71281">
        <ele>1441.15</ele>
        <time>2014-10-20T13:50:25Z</time>
      </trkpt>
      <trkpt lat="45.10273" lon="2.71281">
        <ele>1441.15</ele>
        <time>2014-10-20T13:51:15Z</time>
      </trkpt>
      <trkpt lat="45.10274" lon="2.71281">
        <ele>1440.67</ele>
        <time>2014-10-20T13:52:06Z</time>
      </trkpt>
      <trkpt lat="45.10273" lon="2.71281">
        <ele>1440.67</ele>
        <time>2014-10-20T13:52:54Z</time>
      </trkpt>
      <trkpt lat="45.10273" lon="2.71282">
        <ele>1440.67</ele>
        <time>2014-10-20T13:53:27Z</time>
      </trkpt>
      <trkpt lat="45.10273" lon="2.71281">
        <ele>1440.67</ele>
        <time>2014-10-20T13:54:16Z</time>
      </trkpt>
      <trkpt lat="45.10273" lon="2.71282">
        <ele>1440.19</ele>
        <time>2014-10-20T13:54:46Z</time>
      </trkpt>
      <trkpt lat="45.10273" lon="2.71281">
        <ele>1441.15</ele>
        <time>2014-10-20T13:54:57Z</time>
      </trkpt>
      <trkpt lat="45.10273" lon="2.71281">
        <ele>1440.67</ele>
        <time>2014-10-20T13:55:00Z</time>
      </trkpt>
      <trkpt lat="45.10261" lon="2.71291">
        <ele>1437.79</ele>
        <time>2014-10-20T13:55:18Z</time>
      </trkpt>
      <trkpt lat="45.10258" lon="2.71287">
        <ele>1435.87</ele>
        <time>2014-10-20T13:55:24Z</time>
      </trkpt>
      <trkpt lat="45.10257" lon="2.7128">
        <ele>1435.39</ele>
        <time>2014-10-20T13:55:30Z</time>
      </trkpt>
      <trkpt lat="45.10256" lon="2.71267">
        <ele>1432.02</ele>
        <time>2014-10-20T13:55:49Z</time>
      </trkpt>
      <trkpt lat="45.10255" lon="2.7126">
        <ele>1431.06</ele>
        <time>2014-10-20T13:55:57Z</time>
      </trkpt>
      <trkpt lat="45.10251" lon="2.7125">
        <ele>1429.62</ele>
        <time>2014-10-20T13:56:17Z</time>
      </trkpt>
      <trkpt lat="45.10249" lon="2.71241">
        <ele>1426.25</ele>
        <time>2014-10-20T13:56:38Z</time>
      </trkpt>
      <trkpt lat="45.10247" lon="2.71237">
        <ele>1425.77</ele>
        <time>2014-10-20T13:56:41Z</time>
      </trkpt>
      <trkpt lat="45.10244" lon="2.71226">
        <ele>1423.85</ele>
        <time>2014-10-20T13:56:47Z</time>
      </trkpt>
      <trkpt lat="45.10243" lon="2.71215">
        <ele>1422.41</ele>
        <time>2014-10-20T13:56:54Z</time>
      </trkpt>
      <trkpt lat="45.10238" lon="2.71194">
        <ele>1419.04</ele>
        <time>2014-10-20T13:57:11Z</time>
      </trkpt>
      <trkpt lat="45.10236" lon="2.7118">
        <ele>1415.68</ele>
        <time>2014-10-20T13:57:26Z</time>
      </trkpt>
      <trkpt lat="45.10234" lon="2.71176">
        <ele>1415.2</ele>
        <time>2014-10-20T13:57:30Z</time>
      </trkpt>
      <trkpt lat="45.10231" lon="2.71161">
        <ele>1411.83</ele>
        <time>2014-10-20T13:57:42Z</time>
      </trkpt>
      <trkpt lat="45.10229" lon="2.71156">
        <ele>1410.87</ele>
        <time>2014-10-20T13:57:46Z</time>
      </trkpt>
      <trkpt lat="45.10227" lon="2.71139">
        <ele>1407.03</ele>
        <time>2014-10-20T13:58:00Z</time>
      </trkpt>
      <trkpt lat="45.10226" lon="2.71137">
        <ele>1407.03</ele>
        <time>2014-10-20T13:58:01Z</time>
      </trkpt>
      <trkpt lat="45.10222" lon="2.71119">
        <ele>1403.66</ele>
        <time>2014-10-20T13:58:14Z</time>
      </trkpt>
      <trkpt lat="45.10219" lon="2.711">
        <ele>1399.82</ele>
        <time>2014-10-20T13:58:28Z</time>
      </trkpt>
      <trkpt lat="45.1022" lon="2.71091">
        <ele>1399.34</ele>
        <time>2014-10-20T13:58:38Z</time>
      </trkpt>
      <trkpt lat="45.10219" lon="2.71085">
        <ele>1397.89</ele>
        <time>2014-10-20T13:58:42Z</time>
      </trkpt>
      <trkpt lat="45.1022" lon="2.71063">
        <ele>1394.05</ele>
        <time>2014-10-20T13:58:57Z</time>
      </trkpt>
      <trkpt lat="45.1022" lon="2.71062">
        <ele>1394.05</ele>
        <time>2014-10-20T13:58:58Z</time>
      </trkpt>
      <trkpt lat="45.10217" lon="2.71049">
        <ele>1390.68</ele>
        <time>2014-10-20T13:59:09Z</time>
      </trkpt>
      <trkpt lat="45.10214" lon="2.71045">
        <ele>1390.2</ele>
        <time>2014-10-20T13:59:14Z</time>
      </trkpt>
      <trkpt lat="45.10213" lon="2.7104">
        <ele>1388.76</ele>
        <time>2014-10-20T13:59:19Z</time>
      </trkpt>
      <trkpt lat="45.10214" lon="2.71023">
        <ele>1385.4</ele>
        <time>2014-10-20T13:59:32Z</time>
      </trkpt>
      <trkpt lat="45.10218" lon="2.71016">
        <ele>1383.47</ele>
        <time>2014-10-20T13:59:58Z</time>
      </trkpt>
      <trkpt lat="45.1022" lon="2.71015">
        <ele>1383.96</ele>
        <time>2014-10-20T14:00:00Z</time>
      </trkpt>
      <trkpt lat="45.10221" lon="2.71012">
        <ele>1382.99</ele>
        <time>2014-10-20T14:00:03Z</time>
      </trkpt>
      <trkpt lat="45.10236" lon="2.71006">
        <ele>1380.11</ele>
        <time>2014-10-20T14:00:20Z</time>
      </trkpt>
      <trkpt lat="45.10247" lon="2.71002">
        <ele>1376.75</ele>
        <time>2014-10-20T14:00:37Z</time>
      </trkpt>
      <trkpt lat="45.10251" lon="2.70997">
        <ele>1374.34</ele>
        <time>2014-10-20T14:00:55Z</time>
      </trkpt>
      <trkpt lat="45.10254" lon="2.70992">
        <ele>1373.38</ele>
        <time>2014-10-20T14:01:12Z</time>
      </trkpt>
      <trkpt lat="45.10252" lon="2.7098">
        <ele>1373.38</ele>
        <time>2014-10-20T14:01:33Z</time>
      </trkpt>
      <trkpt lat="45.10251" lon="2.70978">
        <ele>1372.9</ele>
        <time>2014-10-20T14:01:35Z</time>
      </trkpt>
      <trkpt lat="45.10244" lon="2.70956">
        <ele>1370.02</ele>
        <time>2014-10-20T14:01:53Z</time>
      </trkpt>
      <trkpt lat="45.1024" lon="2.70935">
        <ele>1367.13</ele>
        <time>2014-10-20T14:02:09Z</time>
      </trkpt>
      <trkpt lat="45.10239" lon="2.70924">
        <ele>1366.17</ele>
        <time>2014-10-20T14:02:23Z</time>
      </trkpt>
      <trkpt lat="45.10241" lon="2.70918">
        <ele>1365.21</ele>
        <time>2014-10-20T14:02:26Z</time>
      </trkpt>
      <trkpt lat="45.10241" lon="2.70913">
        <ele>1364.25</ele>
        <time>2014-10-20T14:02:29Z</time>
      </trkpt>
      <trkpt lat="45.10248" lon="2.70895">
        <ele>1362.33</ele>
        <time>2014-10-20T14:02:41Z</time>
      </trkpt>
      <trkpt lat="45.1025" lon="2.70884">
        <ele>1361.36</ele>
        <time>2014-10-20T14:02:47Z</time>
      </trkpt>
      <trkpt lat="45.10251" lon="2.70867">
        <ele>1361.36</ele>
        <time>2014-10-20T14:03:02Z</time>
      </trkpt>
      <trkpt lat="45.1025" lon="2.70862">
        <ele>1360.88</ele>
        <time>2014-10-20T14:03:21Z</time>
      </trkpt>
      <trkpt lat="45.1025" lon="2.70862">
        <ele>1357.52</ele>
        <time>2014-10-20T14:03:22Z</time>
      </trkpt>
      <trkpt lat="45.1025" lon="2.70863">
        <ele>1359.44</ele>
        <time>2014-10-20T14:03:23Z</time>
      </trkpt>
      <trkpt lat="45.10251" lon="2.70863">
        <ele>1351.75</ele>
        <time>2014-10-20T14:03:27Z</time>
      </trkpt>
      <trkpt lat="45.10251" lon="2.70863">
        <ele>1361.36</ele>
        <time>2014-10-20T14:03:28Z</time>
      </trkpt>
      <trkpt lat="45.10251" lon="2.70864">
        <ele>1365.69</ele>
        <time>2014-10-20T14:03:31Z</time>
      </trkpt>
      <trkpt lat="45.10251" lon="2.70864">
        <ele>1361.36</ele>
        <time>2014-10-20T14:03:32Z</time>
      </trkpt>
      <trkpt lat="45.10251" lon="2.70864">
        <ele>1358</ele>
        <time>2014-10-20T14:03:55Z</time>
      </trkpt>
      <trkpt lat="45.10251" lon="2.70864">
        <ele>1362.33</ele>
        <time>2014-10-20T14:03:56Z</time>
      </trkpt>
      <trkpt lat="45.10251" lon="2.70864">
        <ele>1360.88</ele>
        <time>2014-10-20T14:04:05Z</time>
      </trkpt>
      <trkpt lat="45.10251" lon="2.70863">
        <ele>1360.88</ele>
        <time>2014-10-20T14:04:13Z</time>
      </trkpt>
      <trkpt lat="45.10251" lon="2.70863">
        <ele>1364.25</ele>
        <time>2014-10-20T14:04:15Z</time>
      </trkpt>
      <trkpt lat="45.10251" lon="2.70864">
        <ele>1365.21</ele>
        <time>2014-10-20T14:04:17Z</time>
      </trkpt>
      <trkpt lat="45.10251" lon="2.70864">
        <ele>1368.57</ele>
        <time>2014-10-20T14:04:18Z</time>
      </trkpt>
      <trkpt lat="45.1025" lon="2.70864">
        <ele>1363.77</ele>
        <time>2014-10-20T14:04:20Z</time>
      </trkpt>
      <trkpt lat="45.1025" lon="2.70864">
        <ele>1353.67</ele>
        <time>2014-10-20T14:04:21Z</time>
      </trkpt>
      <trkpt lat="45.1025" lon="2.70864">
        <ele>1361.84</ele>
        <time>2014-10-20T14:04:22Z</time>
      </trkpt>
      <trkpt lat="45.1025" lon="2.70864">
        <ele>1358.48</ele>
        <time>2014-10-20T14:04:40Z</time>
      </trkpt>
      <trkpt lat="45.1025" lon="2.70864">
        <ele>1362.33</ele>
        <time>2014-10-20T14:04:42Z</time>
      </trkpt>
      <trkpt lat="45.1025" lon="2.70864">
        <ele>1359.92</ele>
        <time>2014-10-20T14:04:46Z</time>
      </trkpt>
      <trkpt lat="45.1025" lon="2.70864">
        <ele>1363.77</ele>
        <time>2014-10-20T14:04:48Z</time>
      </trkpt>
      <trkpt lat="45.1025" lon="2.70864">
        <ele>1363.77</ele>
        <time>2014-10-20T14:04:49Z</time>
      </trkpt>
      <trkpt lat="45.1025" lon="2.70864">
        <ele>1360.4</ele>
        <time>2014-10-20T14:04:52Z</time>
      </trkpt>
      <trkpt lat="45.1025" lon="2.70864">
        <ele>1361.36</ele>
        <time>2014-10-20T14:04:53Z</time>
      </trkpt>
      <trkpt lat="45.1025" lon="2.70864">
        <ele>1358</ele>
        <time>2014-10-20T14:04:55Z</time>
      </trkpt>
      <trkpt lat="45.1025" lon="2.70864">
        <ele>1362.33</ele>
        <time>2014-10-20T14:04:59Z</time>
      </trkpt>
      <trkpt lat="45.10245" lon="2.70858">
        <ele>1362.33</ele>
        <time>2014-10-20T14:05:17Z</time>
      </trkpt>
      <trkpt lat="45.10231" lon="2.70838">
        <ele>1360.88</ele>
        <time>2014-10-20T14:05:39Z</time>
      </trkpt>
      <trkpt lat="45.1022" lon="2.70808">
        <ele>1358.48</ele>
        <time>2014-10-20T14:06:03Z</time>
      </trkpt>
      <trkpt lat="45.10217" lon="2.70803">
        <ele>1358</ele>
        <time>2014-10-20T14:06:07Z</time>
      </trkpt>
      <trkpt lat="45.10211" lon="2.7077">
        <ele>1356.56</ele>
        <time>2014-10-20T14:06:28Z</time>
      </trkpt>
      <trkpt lat="45.10209" lon="2.70757">
        <ele>1354.15</ele>
        <time>2014-10-20T14:06:39Z</time>
      </trkpt>
      <trkpt lat="45.10215" lon="2.70738">
        <ele>1353.67</ele>
        <time>2014-10-20T14:06:54Z</time>
      </trkpt>
      <trkpt lat="45.10212" lon="2.70733">
        <ele>1352.23</ele>
        <time>2014-10-20T14:07:07Z</time>
      </trkpt>
      <trkpt lat="45.10214" lon="2.70731">
        <ele>1353.19</ele>
        <time>2014-10-20T14:07:10Z</time>
      </trkpt>
      <trkpt lat="45.10215" lon="2.70729">
        <ele>1353.67</ele>
        <time>2014-10-20T14:07:13Z</time>
      </trkpt>
      <trkpt lat="45.10217" lon="2.70721">
        <ele>1354.63</ele>
        <time>2014-10-20T14:07:19Z</time>
      </trkpt>
      <trkpt lat="45.10216" lon="2.70715">
        <ele>1354.63</ele>
        <time>2014-10-20T14:07:24Z</time>
      </trkpt>
      <trkpt lat="45.10207" lon="2.70697">
        <ele>1356.56</ele>
        <time>2014-10-20T14:07:41Z</time>
      </trkpt>
      <trkpt lat="45.10206" lon="2.70695">
        <ele>1356.08</ele>
        <time>2014-10-20T14:07:43Z</time>
      </trkpt>
      <trkpt lat="45.10194" lon="2.70694">
        <ele>1357.04</ele>
        <time>2014-10-20T14:08:00Z</time>
      </trkpt>
      <trkpt lat="45.10178" lon="2.70684">
        <ele>1357.52</ele>
        <time>2014-10-20T14:08:17Z</time>
      </trkpt>
      <trkpt lat="45.10165" lon="2.70679">
        <ele>1357.04</ele>
        <time>2014-10-20T14:08:32Z</time>
      </trkpt>
      <trkpt lat="45.10144" lon="2.70667">
        <ele>1357.52</ele>
        <time>2014-10-20T14:08:52Z</time>
      </trkpt>
      <trkpt lat="45.10129" lon="2.70639">
        <ele>1357.04</ele>
        <time>2014-10-20T14:09:12Z</time>
      </trkpt>
      <trkpt lat="45.10128" lon="2.70637">
        <ele>1357.04</ele>
        <time>2014-10-20T14:09:14Z</time>
      </trkpt>
      <trkpt lat="45.10126" lon="2.70621">
        <ele>1356.56</ele>
        <time>2014-10-20T14:09:25Z</time>
      </trkpt>
      <trkpt lat="45.10119" lon="2.70617">
        <ele>1357.04</ele>
        <time>2014-10-20T14:09:33Z</time>
      </trkpt>
      <trkpt lat="45.10117" lon="2.70615">
        <ele>1357.04</ele>
        <time>2014-10-20T14:09:35Z</time>
      </trkpt>
      <trkpt lat="45.10112" lon="2.70602">
        <ele>1356.08</ele>
        <time>2014-10-20T14:09:55Z</time>
      </trkpt>
      <trkpt lat="45.10111" lon="2.70597">
        <ele>1356.56</ele>
        <time>2014-10-20T14:10:36Z</time>
      </trkpt>
      <trkpt lat="45.10108" lon="2.70584">
        <ele>1354.15</ele>
        <time>2014-10-20T14:10:53Z</time>
      </trkpt>
      <trkpt lat="45.10102" lon="2.7057">
        <ele>1352.23</ele>
        <time>2014-10-20T14:11:14Z</time>
      </trkpt>
      <trkpt lat="45.10089" lon="2.70569">
        <ele>1354.15</ele>
        <time>2014-10-20T14:11:30Z</time>
      </trkpt>
      <trkpt lat="45.10082" lon="2.70567">
        <ele>1355.12</ele>
        <time>2014-10-20T14:11:34Z</time>
      </trkpt>
      <trkpt lat="45.10068" lon="2.70555">
        <ele>1356.56</ele>
        <time>2014-10-20T14:11:49Z</time>
      </trkpt>
      <trkpt lat="45.10057" lon="2.70542">
        <ele>1355.12</ele>
        <time>2014-10-20T14:12:07Z</time>
      </trkpt>
      <trkpt lat="45.10035" lon="2.70535">
        <ele>1353.67</ele>
        <time>2014-10-20T14:12:25Z</time>
      </trkpt>
      <trkpt lat="45.10018" lon="2.70522">
        <ele>1352.23</ele>
        <time>2014-10-20T14:12:44Z</time>
      </trkpt>
      <trkpt lat="45.10017" lon="2.70521">
        <ele>1351.75</ele>
        <time>2014-10-20T14:12:45Z</time>
      </trkpt>
      <trkpt lat="45.10012" lon="2.70517">
        <ele>1351.75</ele>
        <time>2014-10-20T14:12:49Z</time>
      </trkpt>
      <trkpt lat="45.09994" lon="2.70501">
        <ele>1350.79</ele>
        <time>2014-10-20T14:13:06Z</time>
      </trkpt>
      <trkpt lat="45.09991" lon="2.705">
        <ele>1350.79</ele>
        <time>2014-10-20T14:13:09Z</time>
      </trkpt>
      <trkpt lat="45.09989" lon="2.70495">
        <ele>1351.27</ele>
        <time>2014-10-20T14:13:13Z</time>
      </trkpt>
      <trkpt lat="45.09982" lon="2.70493">
        <ele>1351.75</ele>
        <time>2014-10-20T14:13:17Z</time>
      </trkpt>
      <trkpt lat="45.09973" lon="2.70484">
        <ele>1352.23</ele>
        <time>2014-10-20T14:13:25Z</time>
      </trkpt>
      <trkpt lat="45.09971" lon="2.70481">
        <ele>1352.23</ele>
        <time>2014-10-20T14:13:28Z</time>
      </trkpt>
      <trkpt lat="45.09964" lon="2.70474">
        <ele>1352.71</ele>
        <time>2014-10-20T14:13:34Z</time>
      </trkpt>
      <trkpt lat="45.09956" lon="2.7047">
        <ele>1352.71</ele>
        <time>2014-10-20T14:13:40Z</time>
      </trkpt>
      <trkpt lat="45.09917" lon="2.70459">
        <ele>1354.15</ele>
        <time>2014-10-20T14:14:00Z</time>
      </trkpt>
      <trkpt lat="45.09904" lon="2.70449">
        <ele>1354.63</ele>
        <time>2014-10-20T14:14:09Z</time>
      </trkpt>
      <trkpt lat="45.09884" lon="2.70412">
        <ele>1357.04</ele>
        <time>2014-10-20T14:14:32Z</time>
      </trkpt>
      <trkpt lat="45.09883" lon="2.7041">
        <ele>1357.52</ele>
        <time>2014-10-20T14:14:33Z</time>
      </trkpt>
      <trkpt lat="45.09877" lon="2.70387">
        <ele>1358.48</ele>
        <time>2014-10-20T14:14:51Z</time>
      </trkpt>
      <trkpt lat="45.09877" lon="2.70386">
        <ele>1358.48</ele>
        <time>2014-10-20T14:14:56Z</time>
      </trkpt>
      <trkpt lat="45.09875" lon="2.70383">
        <ele>1358.96</ele>
        <time>2014-10-20T14:14:59Z</time>
      </trkpt>
      <trkpt lat="45.0987" lon="2.70372">
        <ele>1358.96</ele>
        <time>2014-10-20T14:15:06Z</time>
      </trkpt>
      <trkpt lat="45.09866" lon="2.70366">
        <ele>1358.96</ele>
        <time>2014-10-20T14:15:10Z</time>
      </trkpt>
      <trkpt lat="45.09851" lon="2.70331">
        <ele>1359.92</ele>
        <time>2014-10-20T14:15:31Z</time>
      </trkpt>
      <trkpt lat="45.09845" lon="2.7031">
        <ele>1356.56</ele>
        <time>2014-10-20T14:15:43Z</time>
      </trkpt>
      <trkpt lat="45.09848" lon="2.70278">
        <ele>1353.19</ele>
        <time>2014-10-20T14:16:01Z</time>
      </trkpt>
      <trkpt lat="45.09849" lon="2.70277">
        <ele>1353.19</ele>
        <time>2014-10-20T14:16:02Z</time>
      </trkpt>
      <trkpt lat="45.09856" lon="2.70246">
        <ele>1350.31</ele>
        <time>2014-10-20T14:16:22Z</time>
      </trkpt>
      <trkpt lat="45.09848" lon="2.70212">
        <ele>1347.91</ele>
        <time>2014-10-20T14:16:42Z</time>
      </trkpt>
      <trkpt lat="45.09836" lon="2.70181">
        <ele>1347.43</ele>
        <time>2014-10-20T14:17:02Z</time>
      </trkpt>
      <trkpt lat="45.09828" lon="2.70152">
        <ele>1345.98</ele>
        <time>2014-10-20T14:17:19Z</time>
      </trkpt>
      <trkpt lat="45.09827" lon="2.7015">
        <ele>1345.98</ele>
        <time>2014-10-20T14:17:20Z</time>
      </trkpt>
      <trkpt lat="45.09818" lon="2.70116">
        <ele>1342.62</ele>
        <time>2014-10-20T14:17:41Z</time>
      </trkpt>
      <trkpt lat="45.09816" lon="2.70079">
        <ele>1340.22</ele>
        <time>2014-10-20T14:18:01Z</time>
      </trkpt>
      <trkpt lat="45.09814" lon="2.70053">
        <ele>1337.81</ele>
        <time>2014-10-20T14:18:18Z</time>
      </trkpt>
      <trkpt lat="45.09811" lon="2.70039">
        <ele>1335.41</ele>
        <time>2014-10-20T14:18:38Z</time>
      </trkpt>
      <trkpt lat="45.09811" lon="2.70033">
        <ele>1333.97</ele>
        <time>2014-10-20T14:18:51Z</time>
      </trkpt>
      <trkpt lat="45.0981" lon="2.70028">
        <ele>1333.49</ele>
        <time>2014-10-20T14:18:54Z</time>
      </trkpt>
      <trkpt lat="45.09809" lon="2.70024">
        <ele>1333.49</ele>
        <time>2014-10-20T14:19:05Z</time>
      </trkpt>
      <trkpt lat="45.09811" lon="2.70003">
        <ele>1330.6</ele>
        <time>2014-10-20T14:19:21Z</time>
      </trkpt>
      <trkpt lat="45.09816" lon="2.7">
        <ele>1329.16</ele>
        <time>2014-10-20T14:19:36Z</time>
      </trkpt>
      <trkpt lat="45.09814" lon="2.69989">
        <ele>1328.2</ele>
        <time>2014-10-20T14:19:52Z</time>
      </trkpt>
      <trkpt lat="45.09813" lon="2.69973">
        <ele>1328.68</ele>
        <time>2014-10-20T14:19:57Z</time>
      </trkpt>
      <trkpt lat="45.09804" lon="2.69949">
        <ele>1327.24</ele>
        <time>2014-10-20T14:20:11Z</time>
      </trkpt>
      <trkpt lat="45.09795" lon="2.69928">
        <ele>1326.28</ele>
        <time>2014-10-20T14:20:23Z</time>
      </trkpt>
      <trkpt lat="45.09795" lon="2.69929">
        <ele>1325.8</ele>
        <time>2014-10-20T14:20:24Z</time>
      </trkpt>
      <trkpt lat="45.09788" lon="2.69926">
        <ele>1325.31</ele>
        <time>2014-10-20T14:20:32Z</time>
      </trkpt>
      <trkpt lat="45.09787" lon="2.69925">
        <ele>1325.8</ele>
        <time>2014-10-20T14:20:33Z</time>
      </trkpt>
      <trkpt lat="45.09761" lon="2.69895">
        <ele>1323.87</ele>
        <time>2014-10-20T14:20:47Z</time>
      </trkpt>
      <trkpt lat="45.09759" lon="2.69896">
        <ele>1323.39</ele>
        <time>2014-10-20T14:20:50Z</time>
      </trkpt>
      <trkpt lat="45.09737" lon="2.6989">
        <ele>1322.43</ele>
        <time>2014-10-20T14:21:09Z</time>
      </trkpt>
      <trkpt lat="45.0972" lon="2.69892">
        <ele>1320.99</ele>
        <time>2014-10-20T14:21:18Z</time>
      </trkpt>
      <trkpt lat="45.09688" lon="2.69891">
        <ele>1320.03</ele>
        <time>2014-10-20T14:21:36Z</time>
      </trkpt>
      <trkpt lat="45.09668" lon="2.69888">
        <ele>1321.47</ele>
        <time>2014-10-20T14:21:53Z</time>
      </trkpt>
      <trkpt lat="45.09644" lon="2.69884">
        <ele>1319.55</ele>
        <time>2014-10-20T14:22:10Z</time>
      </trkpt>
      <trkpt lat="45.0964" lon="2.69877">
        <ele>1319.07</ele>
        <time>2014-10-20T14:22:16Z</time>
      </trkpt>
      <trkpt lat="45.0964" lon="2.69875">
        <ele>1319.07</ele>
        <time>2014-10-20T14:22:18Z</time>
      </trkpt>
      <trkpt lat="45.09634" lon="2.69868">
        <ele>1319.55</ele>
        <time>2014-10-20T14:22:23Z</time>
      </trkpt>
      <trkpt lat="45.09625" lon="2.69859">
        <ele>1320.51</ele>
        <time>2014-10-20T14:22:32Z</time>
      </trkpt>
      <trkpt lat="45.09619" lon="2.69856">
        <ele>1320.51</ele>
        <time>2014-10-20T14:22:36Z</time>
      </trkpt>
      <trkpt lat="45.09615" lon="2.69849">
        <ele>1320.99</ele>
        <time>2014-10-20T14:22:40Z</time>
      </trkpt>
      <trkpt lat="45.09599" lon="2.69846">
        <ele>1320.51</ele>
        <time>2014-10-20T14:22:48Z</time>
      </trkpt>
      <trkpt lat="45.09597" lon="2.69844">
        <ele>1320.03</ele>
        <time>2014-10-20T14:22:50Z</time>
      </trkpt>
      <trkpt lat="45.09586" lon="2.69834">
        <ele>1318.59</ele>
        <time>2014-10-20T14:23:01Z</time>
      </trkpt>
      <trkpt lat="45.09567" lon="2.69821">
        <ele>1315.7</ele>
        <time>2014-10-20T14:23:19Z</time>
      </trkpt>
      <trkpt lat="45.09565" lon="2.69813">
        <ele>1315.22</ele>
        <time>2014-10-20T14:23:25Z</time>
      </trkpt>
      <trkpt lat="45.09551" lon="2.69803">
        <ele>1312.34</ele>
        <time>2014-10-20T14:23:39Z</time>
      </trkpt>
      <trkpt lat="45.0955" lon="2.69798">
        <ele>1312.34</ele>
        <time>2014-10-20T14:23:41Z</time>
      </trkpt>
      <trkpt lat="45.09546" lon="2.69784">
        <ele>1311.38</ele>
        <time>2014-10-20T14:23:48Z</time>
      </trkpt>
      <trkpt lat="45.09534" lon="2.69761">
        <ele>1310.9</ele>
        <time>2014-10-20T14:24:05Z</time>
      </trkpt>
      <trkpt lat="45.09529" lon="2.69756">
        <ele>1309.93</ele>
        <time>2014-10-20T14:24:10Z</time>
      </trkpt>
      <trkpt lat="45.09512" lon="2.69742">
        <ele>1307.53</ele>
        <time>2014-10-20T14:24:27Z</time>
      </trkpt>
      <trkpt lat="45.0951" lon="2.69743">
        <ele>1307.53</ele>
        <time>2014-10-20T14:24:28Z</time>
      </trkpt>
      <trkpt lat="45.09502" lon="2.69738">
        <ele>1304.65</ele>
        <time>2014-10-20T14:24:36Z</time>
      </trkpt>
      <trkpt lat="45.09502" lon="2.69736">
        <ele>1304.65</ele>
        <time>2014-10-20T14:24:37Z</time>
      </trkpt>
      <trkpt lat="45.09498" lon="2.69727">
        <ele>1303.2</ele>
        <time>2014-10-20T14:24:45Z</time>
      </trkpt>
      <trkpt lat="45.09483" lon="2.69716">
        <ele>1299.84</ele>
        <time>2014-10-20T14:24:59Z</time>
      </trkpt>
      <trkpt lat="45.09475" lon="2.69712">
        <ele>1298.88</ele>
        <time>2014-10-20T14:25:06Z</time>
      </trkpt>
      <trkpt lat="45.09474" lon="2.69709">
        <ele>1298.4</ele>
        <time>2014-10-20T14:25:08Z</time>
      </trkpt>
      <trkpt lat="45.09471" lon="2.69708">
        <ele>1297.44</ele>
        <time>2014-10-20T14:25:11Z</time>
      </trkpt>
      <trkpt lat="45.0947" lon="2.69707">
        <ele>1296.96</ele>
        <time>2014-10-20T14:25:12Z</time>
      </trkpt>
      <trkpt lat="45.09463" lon="2.69696">
        <ele>1295.51</ele>
        <time>2014-10-20T14:25:23Z</time>
      </trkpt>
      <trkpt lat="45.09439" lon="2.69691">
        <ele>1292.15</ele>
        <time>2014-10-20T14:25:36Z</time>
      </trkpt>
      <trkpt lat="45.09423" lon="2.69683">
        <ele>1290.23</ele>
        <time>2014-10-20T14:25:46Z</time>
      </trkpt>
      <trkpt lat="45.09412" lon="2.69679">
        <ele>1289.27</ele>
        <time>2014-10-20T14:25:51Z</time>
      </trkpt>
      <trkpt lat="45.09393" lon="2.69648">
        <ele>1285.42</ele>
        <time>2014-10-20T14:26:09Z</time>
      </trkpt>
      <trkpt lat="45.09379" lon="2.6963">
        <ele>1282.54</ele>
        <time>2014-10-20T14:26:27Z</time>
      </trkpt>
      <trkpt lat="45.09375" lon="2.69627">
        <ele>1281.57</ele>
        <time>2014-10-20T14:26:31Z</time>
      </trkpt>
      <trkpt lat="45.09373" lon="2.69618">
        <ele>1280.61</ele>
        <time>2014-10-20T14:26:34Z</time>
      </trkpt>
      <trkpt lat="45.09372" lon="2.69606">
        <ele>1280.61</ele>
        <time>2014-10-20T14:26:40Z</time>
      </trkpt>
      <trkpt lat="45.0937" lon="2.69601">
        <ele>1280.13</ele>
        <time>2014-10-20T14:26:42Z</time>
      </trkpt>
      <trkpt lat="45.09357" lon="2.69574">
        <ele>1278.69</ele>
        <time>2014-10-20T14:27:00Z</time>
      </trkpt>
      <trkpt lat="45.09351" lon="2.69542">
        <ele>1276.29</ele>
        <time>2014-10-20T14:27:16Z</time>
      </trkpt>
      <trkpt lat="45.09342" lon="2.69515">
        <ele>1276.77</ele>
        <time>2014-10-20T14:27:33Z</time>
      </trkpt>
      <trkpt lat="45.0934" lon="2.69505">
        <ele>1276.29</ele>
        <time>2014-10-20T14:27:39Z</time>
      </trkpt>
      <trkpt lat="45.09334" lon="2.69489">
        <ele>1274.85</ele>
        <time>2014-10-20T14:27:52Z</time>
      </trkpt>
      <trkpt lat="45.09331" lon="2.69477">
        <ele>1273.4</ele>
        <time>2014-10-20T14:28:00Z</time>
      </trkpt>
      <trkpt lat="45.09325" lon="2.69441">
        <ele>1272.92</ele>
        <time>2014-10-20T14:28:11Z</time>
      </trkpt>
      <trkpt lat="45.09327" lon="2.69425">
        <ele>1272.92</ele>
        <time>2014-10-20T14:28:27Z</time>
      </trkpt>
      <trkpt lat="45.09328" lon="2.69418">
        <ele>1272.44</ele>
        <time>2014-10-20T14:28:32Z</time>
      </trkpt>
      <trkpt lat="45.09333" lon="2.69404">
        <ele>1271</ele>
        <time>2014-10-20T14:28:42Z</time>
      </trkpt>
      <trkpt lat="45.09346" lon="2.69375">
        <ele>1269.08</ele>
        <time>2014-10-20T14:28:56Z</time>
      </trkpt>
      <trkpt lat="45.09348" lon="2.69327">
        <ele>1266.67</ele>
        <time>2014-10-20T14:29:13Z</time>
      </trkpt>
      <trkpt lat="45.09349" lon="2.69324">
        <ele>1265.71</ele>
        <time>2014-10-20T14:29:16Z</time>
      </trkpt>
      <trkpt lat="45.09359" lon="2.69313">
        <ele>1265.71</ele>
        <time>2014-10-20T14:29:35Z</time>
      </trkpt>
      <trkpt lat="45.09361" lon="2.69311">
        <ele>1261.87</ele>
        <time>2014-10-20T14:29:48Z</time>
      </trkpt>
      <trkpt lat="45.09362" lon="2.6931">
        <ele>1274.85</ele>
        <time>2014-10-20T14:29:50Z</time>
      </trkpt>
      <trkpt lat="45.09362" lon="2.69309">
        <ele>1266.19</ele>
        <time>2014-10-20T14:29:51Z</time>
      </trkpt>
      <trkpt lat="45.09362" lon="2.69309">
        <ele>1276.29</ele>
        <time>2014-10-20T14:29:52Z</time>
      </trkpt>
      <trkpt lat="45.09362" lon="2.69308">
        <ele>1272.44</ele>
        <time>2014-10-20T14:29:53Z</time>
      </trkpt>
      <trkpt lat="45.09362" lon="2.69307">
        <ele>1269.08</ele>
        <time>2014-10-20T14:29:55Z</time>
      </trkpt>
      <trkpt lat="45.09362" lon="2.69306">
        <ele>1270.52</ele>
        <time>2014-10-20T14:29:56Z</time>
      </trkpt>
      <trkpt lat="45.09363" lon="2.69306">
        <ele>1265.71</ele>
        <time>2014-10-20T14:29:57Z</time>
      </trkpt>
      <trkpt lat="45.09363" lon="2.69306">
        <ele>1261.87</ele>
        <time>2014-10-20T14:29:59Z</time>
      </trkpt>
      <trkpt lat="45.09364" lon="2.69306">
        <ele>1266.19</ele>
        <time>2014-10-20T14:30:00Z</time>
      </trkpt>
      <trkpt lat="45.09374" lon="2.69306">
        <ele>1262.35</ele>
        <time>2014-10-20T14:30:41Z</time>
      </trkpt>
      <trkpt lat="45.09374" lon="2.69306">
        <ele>1266.19</ele>
        <time>2014-10-20T14:30:42Z</time>
      </trkpt>
      <trkpt lat="45.09374" lon="2.69306">
        <ele>1267.64</ele>
        <time>2014-10-20T14:31:04Z</time>
      </trkpt>
      <trkpt lat="45.09374" lon="2.69305">
        <ele>1263.79</ele>
        <time>2014-10-20T14:31:19Z</time>
      </trkpt>
      <trkpt lat="45.09375" lon="2.69305">
        <ele>1267.64</ele>
        <time>2014-10-20T14:31:27Z</time>
      </trkpt>
      <trkpt lat="45.09378" lon="2.69307">
        <ele>1266.67</ele>
        <time>2014-10-20T14:32:04Z</time>
      </trkpt>
      <trkpt lat="45.09379" lon="2.69307">
        <ele>1266.67</ele>
        <time>2014-10-20T14:32:33Z</time>
      </trkpt>
      <trkpt lat="45.0938" lon="2.69305">
        <ele>1266.67</ele>
        <time>2014-10-20T14:33:13Z</time>
      </trkpt>
      <trkpt lat="45.09368" lon="2.69303">
        <ele>1263.31</ele>
        <time>2014-10-20T14:33:28Z</time>
      </trkpt>
      <trkpt lat="45.09355" lon="2.69301">
        <ele>1260.43</ele>
        <time>2014-10-20T14:33:43Z</time>
      </trkpt>
      <trkpt lat="45.09342" lon="2.69304">
        <ele>1257.54</ele>
        <time>2014-10-20T14:33:57Z</time>
      </trkpt>
      <trkpt lat="45.09339" lon="2.69306">
        <ele>1256.58</ele>
        <time>2014-10-20T14:34:00Z</time>
      </trkpt>
      <trkpt lat="45.09336" lon="2.69307">
        <ele>1255.62</ele>
        <time>2014-10-20T14:34:02Z</time>
      </trkpt>
      <trkpt lat="45.09317" lon="2.69312">
        <ele>1253.22</ele>
        <time>2014-10-20T14:34:22Z</time>
      </trkpt>
      <trkpt lat="45.09305" lon="2.69312">
        <ele>1249.85</ele>
        <time>2014-10-20T14:34:36Z</time>
      </trkpt>
      <trkpt lat="45.09292" lon="2.69312">
        <ele>1246.49</ele>
        <time>2014-10-20T14:34:52Z</time>
      </trkpt>
      <trkpt lat="45.0928" lon="2.69317">
        <ele>1242.64</ele>
        <time>2014-10-20T14:35:06Z</time>
      </trkpt>
      <trkpt lat="45.09268" lon="2.69326">
        <ele>1239.76</ele>
        <time>2014-10-20T14:35:22Z</time>
      </trkpt>
      <trkpt lat="45.09263" lon="2.69333">
        <ele>1238.8</ele>
        <time>2014-10-20T14:35:29Z</time>
      </trkpt>
      <trkpt lat="45.09251" lon="2.6934">
        <ele>1234.95</ele>
        <time>2014-10-20T14:35:45Z</time>
      </trkpt>
      <trkpt lat="45.09243" lon="2.69339">
        <ele>1232.07</ele>
        <time>2014-10-20T14:35:59Z</time>
      </trkpt>
      <trkpt lat="45.09241" lon="2.69342">
        <ele>1232.07</ele>
        <time>2014-10-20T14:36:14Z</time>
      </trkpt>
      <trkpt lat="45.09241" lon="2.69349">
        <ele>1231.59</ele>
        <time>2014-10-20T14:36:38Z</time>
      </trkpt>
      <trkpt lat="45.09237" lon="2.69354">
        <ele>1228.7</ele>
        <time>2014-10-20T14:36:53Z</time>
      </trkpt>
      <trkpt lat="45.09233" lon="2.69368">
        <ele>1225.34</ele>
        <time>2014-10-20T14:37:07Z</time>
      </trkpt>
      <trkpt lat="45.09236" lon="2.69403">
        <ele>1222.45</ele>
        <time>2014-10-20T14:37:27Z</time>
      </trkpt>
      <trkpt lat="45.09241" lon="2.69434">
        <ele>1221.97</ele>
        <time>2014-10-20T14:37:45Z</time>
      </trkpt>
      <trkpt lat="45.09242" lon="2.69455">
        <ele>1219.57</ele>
        <time>2014-10-20T14:38:03Z</time>
      </trkpt>
      <trkpt lat="45.09239" lon="2.69484">
        <ele>1216.69</ele>
        <time>2014-10-20T14:38:25Z</time>
      </trkpt>
      <trkpt lat="45.09239" lon="2.69498">
        <ele>1213.8</ele>
        <time>2014-10-20T14:38:39Z</time>
      </trkpt>
      <trkpt lat="45.09239" lon="2.695">
        <ele>1214.28</ele>
        <time>2014-10-20T14:38:40Z</time>
      </trkpt>
      <trkpt lat="45.09237" lon="2.69516">
        <ele>1210.44</ele>
        <time>2014-10-20T14:38:55Z</time>
      </trkpt>
      <trkpt lat="45.09238" lon="2.69529">
        <ele>1207.07</ele>
        <time>2014-10-20T14:39:10Z</time>
      </trkpt>
      <trkpt lat="45.09236" lon="2.69543">
        <ele>1203.71</ele>
        <time>2014-10-20T14:39:22Z</time>
      </trkpt>
      <trkpt lat="45.09233" lon="2.69554">
        <ele>1200.82</ele>
        <time>2014-10-20T14:39:36Z</time>
      </trkpt>
      <trkpt lat="45.09233" lon="2.69563">
        <ele>1200.82</ele>
        <time>2014-10-20T14:39:57Z</time>
      </trkpt>
      <trkpt lat="45.09235" lon="2.6958">
        <ele>1198.9</ele>
        <time>2014-10-20T14:40:20Z</time>
      </trkpt>
      <trkpt lat="45.09233" lon="2.69575">
        <ele>1196.5</ele>
        <time>2014-10-20T14:40:39Z</time>
      </trkpt>
      <trkpt lat="45.09232" lon="2.6957">
        <ele>1195.54</ele>
        <time>2014-10-20T14:40:47Z</time>
      </trkpt>
      <trkpt lat="45.09229" lon="2.69551">
        <ele>1192.17</ele>
        <time>2014-10-20T14:41:07Z</time>
      </trkpt>
      <trkpt lat="45.09223" lon="2.69539">
        <ele>1190.73</ele>
        <time>2014-10-20T14:41:18Z</time>
      </trkpt>
      <trkpt lat="45.09209" lon="2.69521">
        <ele>1186.88</ele>
        <time>2014-10-20T14:41:34Z</time>
      </trkpt>
      <trkpt lat="45.09204" lon="2.69516">
        <ele>1183.52</ele>
        <time>2014-10-20T14:41:48Z</time>
      </trkpt>
      <trkpt lat="45.09199" lon="2.69521">
        <ele>1180.64</ele>
        <time>2014-10-20T14:42:02Z</time>
      </trkpt>
      <trkpt lat="45.09191" lon="2.69521">
        <ele>1177.27</ele>
        <time>2014-10-20T14:42:14Z</time>
      </trkpt>
      <trkpt lat="45.09184" lon="2.69519">
        <ele>1173.91</ele>
        <time>2014-10-20T14:42:25Z</time>
      </trkpt>
      <trkpt lat="45.09179" lon="2.69514">
        <ele>1171.5</ele>
        <time>2014-10-20T14:42:34Z</time>
      </trkpt>
      <trkpt lat="45.09171" lon="2.69508">
        <ele>1168.62</ele>
        <time>2014-10-20T14:42:52Z</time>
      </trkpt>
      <trkpt lat="45.09163" lon="2.69502">
        <ele>1166.7</ele>
        <time>2014-10-20T14:43:03Z</time>
      </trkpt>
      <trkpt lat="45.09157" lon="2.69496">
        <ele>1165.26</ele>
        <time>2014-10-20T14:43:09Z</time>
      </trkpt>
      <trkpt lat="45.09155" lon="2.69495">
        <ele>1164.77</ele>
        <time>2014-10-20T14:43:11Z</time>
      </trkpt>
      <trkpt lat="45.09145" lon="2.69486">
        <ele>1161.41</ele>
        <time>2014-10-20T14:43:25Z</time>
      </trkpt>
      <trkpt lat="45.09138" lon="2.69481">
        <ele>1158.05</ele>
        <time>2014-10-20T14:43:38Z</time>
      </trkpt>
      <trkpt lat="45.09132" lon="2.69477">
        <ele>1157.08</ele>
        <time>2014-10-20T14:43:45Z</time>
      </trkpt>
      <trkpt lat="45.09123" lon="2.69469">
        <ele>1153.72</ele>
        <time>2014-10-20T14:43:56Z</time>
      </trkpt>
      <trkpt lat="45.09115" lon="2.69471">
        <ele>1150.35</ele>
        <time>2014-10-20T14:44:09Z</time>
      </trkpt>
      <trkpt lat="45.09109" lon="2.69479">
        <ele>1147.47</ele>
        <time>2014-10-20T14:44:25Z</time>
      </trkpt>
      <trkpt lat="45.09107" lon="2.695">
        <ele>1144.11</ele>
        <time>2014-10-20T14:44:46Z</time>
      </trkpt>
      <trkpt lat="45.0911" lon="2.69507">
        <ele>1141.22</ele>
        <time>2014-10-20T14:45:06Z</time>
      </trkpt>
      <trkpt lat="45.09111" lon="2.69509">
        <ele>1139.3</ele>
        <time>2014-10-20T14:45:14Z</time>
      </trkpt>
      <trkpt lat="45.09112" lon="2.69512">
        <ele>1135.94</ele>
        <time>2014-10-20T14:45:25Z</time>
      </trkpt>
      <trkpt lat="45.09112" lon="2.69516">
        <ele>1132.57</ele>
        <time>2014-10-20T14:45:38Z</time>
      </trkpt>
      <trkpt lat="45.09105" lon="2.69516">
        <ele>1129.21</ele>
        <time>2014-10-20T14:45:56Z</time>
      </trkpt>
      <trkpt lat="45.09102" lon="2.69514">
        <ele>1129.21</ele>
        <time>2014-10-20T14:46:18Z</time>
      </trkpt>
      <trkpt lat="45.09103" lon="2.69513">
        <ele>1129.69</ele>
        <time>2014-10-20T14:46:51Z</time>
      </trkpt>
      <trkpt lat="45.091" lon="2.69519">
        <ele>1131.61</ele>
        <time>2014-10-20T14:47:27Z</time>
      </trkpt>
      <trkpt lat="45.091" lon="2.69519">
        <ele>1131.61</ele>
        <time>2014-10-20T14:47:28Z</time>
      </trkpt>
      <trkpt lat="45.091" lon="2.69519">
        <ele>1129.21</ele>
        <time>2014-10-20T14:47:30Z</time>
      </trkpt>
      <trkpt lat="45.09098" lon="2.69523">
        <ele>1129.69</ele>
        <time>2014-10-20T14:47:58Z</time>
      </trkpt>
      <trkpt lat="45.09097" lon="2.69525">
        <ele>1129.69</ele>
        <time>2014-10-20T14:48:29Z</time>
      </trkpt>
      <trkpt lat="45.09097" lon="2.69527">
        <ele>1127.28</ele>
        <time>2014-10-20T14:48:38Z</time>
      </trkpt>
      <trkpt lat="45.09097" lon="2.69527">
        <ele>1129.69</ele>
        <time>2014-10-20T14:48:39Z</time>
      </trkpt>
      <trkpt lat="45.09096" lon="2.69528">
        <ele>1128.24</ele>
        <time>2014-10-20T14:48:47Z</time>
      </trkpt>
      <trkpt lat="45.09096" lon="2.69528">
        <ele>1129.69</ele>
        <time>2014-10-20T14:48:49Z</time>
      </trkpt>
      <trkpt lat="45.09093" lon="2.69531">
        <ele>1129.21</ele>
        <time>2014-10-20T14:49:17Z</time>
      </trkpt>
      <trkpt lat="45.0909" lon="2.69521">
        <ele>1125.84</ele>
        <time>2014-10-20T14:49:39Z</time>
      </trkpt>
      <trkpt lat="45.09082" lon="2.69489">
        <ele>1122.96</ele>
        <time>2014-10-20T14:50:02Z</time>
      </trkpt>
      <trkpt lat="45.09056" lon="2.69472">
        <ele>1120.07</ele>
        <time>2014-10-20T14:50:24Z</time>
      </trkpt>
      <trkpt lat="45.09048" lon="2.69463">
        <ele>1119.59</ele>
        <time>2014-10-20T14:50:42Z</time>
      </trkpt>
      <trkpt lat="45.09046" lon="2.69459">
        <ele>1119.11</ele>
        <time>2014-10-20T14:50:47Z</time>
      </trkpt>
      <trkpt lat="45.09033" lon="2.69441">
        <ele>1117.67</ele>
        <time>2014-10-20T14:51:09Z</time>
      </trkpt>
      <trkpt lat="45.09019" lon="2.69393">
        <ele>1118.15</ele>
        <time>2014-10-20T14:51:32Z</time>
      </trkpt>
      <trkpt lat="45.09008" lon="2.69367">
        <ele>1115.27</ele>
        <time>2014-10-20T14:51:48Z</time>
      </trkpt>
      <trkpt lat="45.08992" lon="2.69366">
        <ele>1112.86</ele>
        <time>2014-10-20T14:52:05Z</time>
      </trkpt>
      <trkpt lat="45.08985" lon="2.6936">
        <ele>1112.86</ele>
        <time>2014-10-20T14:52:29Z</time>
      </trkpt>
      <trkpt lat="45.08985" lon="2.69359">
        <ele>1112.38</ele>
        <time>2014-10-20T14:52:31Z</time>
      </trkpt>
      <trkpt lat="45.0898" lon="2.6936">
        <ele>1107.1</ele>
        <time>2014-10-20T14:52:45Z</time>
      </trkpt>
      <trkpt lat="45.0898" lon="2.6936">
        <ele>1112.86</ele>
        <time>2014-10-20T14:52:46Z</time>
      </trkpt>
      <trkpt lat="45.08976" lon="2.69361">
        <ele>1111.9</ele>
        <time>2014-10-20T14:53:09Z</time>
      </trkpt>
      <trkpt lat="45.08968" lon="2.69361">
        <ele>1112.38</ele>
        <time>2014-10-20T14:53:19Z</time>
      </trkpt>
      <trkpt lat="45.08958" lon="2.69374">
        <ele>1116.23</ele>
        <time>2014-10-20T14:53:39Z</time>
      </trkpt>
      <trkpt lat="45.08951" lon="2.69361">
        <ele>1118.63</ele>
        <time>2014-10-20T14:53:59Z</time>
      </trkpt>
      <trkpt lat="45.08946" lon="2.69353">
        <ele>1122</ele>
        <time>2014-10-20T14:54:17Z</time>
      </trkpt>
      <trkpt lat="45.08942" lon="2.69344">
        <ele>1124.88</ele>
        <time>2014-10-20T14:54:36Z</time>
      </trkpt>
      <trkpt lat="45.0894" lon="2.69339">
        <ele>1125.36</ele>
        <time>2014-10-20T14:54:40Z</time>
      </trkpt>
      <trkpt lat="45.08918" lon="2.69319">
        <ele>1126.8</ele>
        <time>2014-10-20T14:55:02Z</time>
      </trkpt>
      <trkpt lat="45.08917" lon="2.69318">
        <ele>1126.32</ele>
        <time>2014-10-20T14:55:03Z</time>
      </trkpt>
      <trkpt lat="45.08895" lon="2.69318">
        <ele>1127.28</ele>
        <time>2014-10-20T14:55:23Z</time>
      </trkpt>
      <trkpt lat="45.08887" lon="2.6931">
        <ele>1127.76</ele>
        <time>2014-10-20T14:55:36Z</time>
      </trkpt>
      <trkpt lat="45.08885" lon="2.69309">
        <ele>1127.76</ele>
        <time>2014-10-20T14:55:38Z</time>
      </trkpt>
      <trkpt lat="45.08876" lon="2.69308">
        <ele>1127.76</ele>
        <time>2014-10-20T14:55:46Z</time>
      </trkpt>
      <trkpt lat="45.08858" lon="2.69296">
        <ele>1127.76</ele>
        <time>2014-10-20T14:56:05Z</time>
      </trkpt>
      <trkpt lat="45.08854" lon="2.69288">
        <ele>1127.28</ele>
        <time>2014-10-20T14:56:12Z</time>
      </trkpt>
      <trkpt lat="45.08833" lon="2.69269">
        <ele>1124.4</ele>
        <time>2014-10-20T14:56:32Z</time>
      </trkpt>
      <trkpt lat="45.08819" lon="2.69253">
        <ele>1123.44</ele>
        <time>2014-10-20T14:56:48Z</time>
      </trkpt>
      <trkpt lat="45.08817" lon="2.69252">
        <ele>1123.44</ele>
        <time>2014-10-20T14:56:59Z</time>
      </trkpt>
      <trkpt lat="45.08811" lon="2.69246">
        <ele>1122.48</ele>
        <time>2014-10-20T14:57:14Z</time>
      </trkpt>
      <trkpt lat="45.08807" lon="2.69246">
        <ele>1122.96</ele>
        <time>2014-10-20T14:57:25Z</time>
      </trkpt>
      <trkpt lat="45.08783" lon="2.69231">
        <ele>1120.55</ele>
        <time>2014-10-20T14:57:44Z</time>
      </trkpt>
      <trkpt lat="45.08774" lon="2.6923">
        <ele>1120.55</ele>
        <time>2014-10-20T14:57:51Z</time>
      </trkpt>
      <trkpt lat="45.08762" lon="2.69217">
        <ele>1119.59</ele>
        <time>2014-10-20T14:58:04Z</time>
      </trkpt>
      <trkpt lat="45.08748" lon="2.69195">
        <ele>1118.63</ele>
        <time>2014-10-20T14:58:22Z</time>
      </trkpt>
      <trkpt lat="45.08747" lon="2.69191">
        <ele>1118.15</ele>
        <time>2014-10-20T14:58:25Z</time>
      </trkpt>
      <trkpt lat="45.08742" lon="2.69181">
        <ele>1118.15</ele>
        <time>2014-10-20T14:58:33Z</time>
      </trkpt>
      <trkpt lat="45.08727" lon="2.69141">
        <ele>1115.75</ele>
        <time>2014-10-20T14:58:54Z</time>
      </trkpt>
      <trkpt lat="45.08725" lon="2.69135">
        <ele>1115.75</ele>
        <time>2014-10-20T14:58:58Z</time>
      </trkpt>
      <trkpt lat="45.08718" lon="2.69105">
        <ele>1114.31</ele>
        <time>2014-10-20T14:59:20Z</time>
      </trkpt>
      <trkpt lat="45.08718" lon="2.69101">
        <ele>1112.86</ele>
        <time>2014-10-20T14:59:44Z</time>
      </trkpt>
      <trkpt lat="45.08718" lon="2.691">
        <ele>1113.34</ele>
        <time>2014-10-20T14:59:57Z</time>
      </trkpt>
      <trkpt lat="45.08714" lon="2.69081">
        <ele>1110.46</ele>
        <time>2014-10-20T15:00:08Z</time>
      </trkpt>
      <trkpt lat="45.087" lon="2.69074">
        <ele>1108.06</ele>
        <time>2014-10-20T15:00:30Z</time>
      </trkpt>
      <trkpt lat="45.08698" lon="2.69071">
        <ele>1107.58</ele>
        <time>2014-10-20T15:00:32Z</time>
      </trkpt>
      <trkpt lat="45.08695" lon="2.69067">
        <ele>1108.06</ele>
        <time>2014-10-20T15:00:35Z</time>
      </trkpt>
      <trkpt lat="45.08697" lon="2.69051">
        <ele>1108.54</ele>
        <time>2014-10-20T15:00:44Z</time>
      </trkpt>
      <trkpt lat="45.08695" lon="2.69028">
        <ele>1109.02</ele>
        <time>2014-10-20T15:00:58Z</time>
      </trkpt>
      <trkpt lat="45.08693" lon="2.69016">
        <ele>1108.54</ele>
        <time>2014-10-20T15:01:08Z</time>
      </trkpt>
      <trkpt lat="45.08694" lon="2.69006">
        <ele>1108.06</ele>
        <time>2014-10-20T15:01:12Z</time>
      </trkpt>
      <trkpt lat="45.08694" lon="2.68996">
        <ele>1107.1</ele>
        <time>2014-10-20T15:01:17Z</time>
      </trkpt>
      <trkpt lat="45.08694" lon="2.68984">
        <ele>1106.13</ele>
        <time>2014-10-20T15:01:24Z</time>
      </trkpt>
      <trkpt lat="45.08686" lon="2.68946">
        <ele>1102.77</ele>
        <time>2014-10-20T15:01:46Z</time>
      </trkpt>
      <trkpt lat="45.08686" lon="2.68942">
        <ele>1102.29</ele>
        <time>2014-10-20T15:01:49Z</time>
      </trkpt>
      <trkpt lat="45.08676" lon="2.68909">
        <ele>1099.89</ele>
        <time>2014-10-20T15:02:06Z</time>
      </trkpt>
      <trkpt lat="45.08672" lon="2.68895">
        <ele>1098.92</ele>
        <time>2014-10-20T15:02:16Z</time>
      </trkpt>
      <trkpt lat="45.0867" lon="2.68876">
        <ele>1097</ele>
        <time>2014-10-20T15:02:32Z</time>
      </trkpt>
      <trkpt lat="45.08671" lon="2.68875">
        <ele>1097</ele>
        <time>2014-10-20T15:02:50Z</time>
      </trkpt>
      <trkpt lat="45.08671" lon="2.68873">
        <ele>1097</ele>
        <time>2014-10-20T15:02:51Z</time>
      </trkpt>
      <trkpt lat="45.0867" lon="2.68864">
        <ele>1096.52</ele>
        <time>2014-10-20T15:02:56Z</time>
      </trkpt>
      <trkpt lat="45.0867" lon="2.68853">
        <ele>1096.04</ele>
        <time>2014-10-20T15:03:02Z</time>
      </trkpt>
      <trkpt lat="45.08665" lon="2.68816">
        <ele>1094.6</ele>
        <time>2014-10-20T15:03:22Z</time>
      </trkpt>
      <trkpt lat="45.08661" lon="2.688">
        <ele>1093.64</ele>
        <time>2014-10-20T15:03:30Z</time>
      </trkpt>
      <trkpt lat="45.08654" lon="2.68778">
        <ele>1092.2</ele>
        <time>2014-10-20T15:03:42Z</time>
      </trkpt>
      <trkpt lat="45.08652" lon="2.68768">
        <ele>1091.23</ele>
        <time>2014-10-20T15:03:47Z</time>
      </trkpt>
      <trkpt lat="45.08647" lon="2.6874">
        <ele>1088.83</ele>
        <time>2014-10-20T15:04:02Z</time>
      </trkpt>
      <trkpt lat="45.08646" lon="2.68736">
        <ele>1088.35</ele>
        <time>2014-10-20T15:04:04Z</time>
      </trkpt>
      <trkpt lat="45.08645" lon="2.68732">
        <ele>1088.35</ele>
        <time>2014-10-20T15:04:06Z</time>
      </trkpt>
      <trkpt lat="45.08642" lon="2.68703">
        <ele>1086.91</ele>
        <time>2014-10-20T15:04:22Z</time>
      </trkpt>
      <trkpt lat="45.08639" lon="2.68689">
        <ele>1085.47</ele>
        <time>2014-10-20T15:04:29Z</time>
      </trkpt>
      <trkpt lat="45.08636" lon="2.68652">
        <ele>1084.5</ele>
        <time>2014-10-20T15:04:49Z</time>
      </trkpt>
      <trkpt lat="45.08637" lon="2.68648">
        <ele>1084.02</ele>
        <time>2014-10-20T15:04:52Z</time>
      </trkpt>
      <trkpt lat="45.08642" lon="2.68638">
        <ele>1082.58</ele>
        <time>2014-10-20T15:05:00Z</time>
      </trkpt>
      <trkpt lat="45.08644" lon="2.6862">
        <ele>1081.62</ele>
        <time>2014-10-20T15:05:10Z</time>
      </trkpt>
      <trkpt lat="45.08644" lon="2.68605">
        <ele>1081.14</ele>
        <time>2014-10-20T15:05:19Z</time>
      </trkpt>
      <trkpt lat="45.08645" lon="2.68601">
        <ele>1077.29</ele>
        <time>2014-10-20T15:05:21Z</time>
      </trkpt>
      <trkpt lat="45.0865" lon="2.68559">
        <ele>1079.7</ele>
        <time>2014-10-20T15:05:44Z</time>
      </trkpt>
      <trkpt lat="45.08649" lon="2.68528">
        <ele>1077.78</ele>
        <time>2014-10-20T15:06:04Z</time>
      </trkpt>
      <trkpt lat="45.08649" lon="2.68524">
        <ele>1072.49</ele>
        <time>2014-10-20T15:06:06Z</time>
      </trkpt>
      <trkpt lat="45.08648" lon="2.68522">
        <ele>1077.29</ele>
        <time>2014-10-20T15:06:07Z</time>
      </trkpt>
      <trkpt lat="45.08646" lon="2.68504">
        <ele>1075.37</ele>
        <time>2014-10-20T15:06:18Z</time>
      </trkpt>
      <trkpt lat="45.08648" lon="2.68493">
        <ele>1074.41</ele>
        <time>2014-10-20T15:06:23Z</time>
      </trkpt>
      <trkpt lat="45.08647" lon="2.68481">
        <ele>1072.97</ele>
        <time>2014-10-20T15:06:30Z</time>
      </trkpt>
      <trkpt lat="45.08647" lon="2.68468">
        <ele>1071.53</ele>
        <time>2014-10-20T15:06:38Z</time>
      </trkpt>
      <trkpt lat="45.08645" lon="2.68432">
        <ele>1069.12</ele>
        <time>2014-10-20T15:06:58Z</time>
      </trkpt>
      <trkpt lat="45.08645" lon="2.68405">
        <ele>1067.2</ele>
        <time>2014-10-20T15:07:13Z</time>
      </trkpt>
      <trkpt lat="45.08648" lon="2.68384">
        <ele>1065.28</ele>
        <time>2014-10-20T15:07:25Z</time>
      </trkpt>
      <trkpt lat="45.08653" lon="2.68363">
        <ele>1063.84</ele>
        <time>2014-10-20T15:07:35Z</time>
      </trkpt>
      <trkpt lat="45.08653" lon="2.68359">
        <ele>1063.36</ele>
        <time>2014-10-20T15:07:37Z</time>
      </trkpt>
      <trkpt lat="45.08653" lon="2.6835">
        <ele>1062.87</ele>
        <time>2014-10-20T15:07:42Z</time>
      </trkpt>
      <trkpt lat="45.08652" lon="2.68346">
        <ele>1062.87</ele>
        <time>2014-10-20T15:07:44Z</time>
      </trkpt>
      <trkpt lat="45.08648" lon="2.6831">
        <ele>1060.95</ele>
        <time>2014-10-20T15:08:04Z</time>
      </trkpt>
      <trkpt lat="45.08648" lon="2.68308">
        <ele>1061.43</ele>
        <time>2014-10-20T15:08:05Z</time>
      </trkpt>
      <trkpt lat="45.08648" lon="2.68291">
        <ele>1059.51</ele>
        <time>2014-10-20T15:08:14Z</time>
      </trkpt>
      <trkpt lat="45.08647" lon="2.68262">
        <ele>1056.15</ele>
        <time>2014-10-20T15:08:30Z</time>
      </trkpt>
      <trkpt lat="45.08644" lon="2.68245">
        <ele>1053.74</ele>
        <time>2014-10-20T15:08:41Z</time>
      </trkpt>
      <trkpt lat="45.08638" lon="2.68217">
        <ele>1050.86</ele>
        <time>2014-10-20T15:08:56Z</time>
      </trkpt>
      <trkpt lat="45.08629" lon="2.68187">
        <ele>1047.97</ele>
        <time>2014-10-20T15:09:14Z</time>
      </trkpt>
      <trkpt lat="45.08612" lon="2.68161">
        <ele>1046.53</ele>
        <time>2014-10-20T15:09:34Z</time>
      </trkpt>
      <trkpt lat="45.08608" lon="2.68156">
        <ele>1046.05</ele>
        <time>2014-10-20T15:09:39Z</time>
      </trkpt>
      <trkpt lat="45.08588" lon="2.68135">
        <ele>1043.65</ele>
        <time>2014-10-20T15:09:59Z</time>
      </trkpt>
      <trkpt lat="45.08581" lon="2.68131">
        <ele>1043.17</ele>
        <time>2014-10-20T15:10:06Z</time>
      </trkpt>
      <trkpt lat="45.08577" lon="2.68125">
        <ele>1043.17</ele>
        <time>2014-10-20T15:10:11Z</time>
      </trkpt>
      <trkpt lat="45.08569" lon="2.68118">
        <ele>1043.17</ele>
        <time>2014-10-20T15:10:17Z</time>
      </trkpt>
      <trkpt lat="45.08562" lon="2.68109">
        <ele>1042.69</ele>
        <time>2014-10-20T15:10:25Z</time>
      </trkpt>
      <trkpt lat="45.08559" lon="2.68101">
        <ele>1043.17</ele>
        <time>2014-10-20T15:10:29Z</time>
      </trkpt>
      <trkpt lat="45.08552" lon="2.68062">
        <ele>1042.21</ele>
        <time>2014-10-20T15:10:50Z</time>
      </trkpt>
      <trkpt lat="45.08552" lon="2.68058">
        <ele>1042.21</ele>
        <time>2014-10-20T15:10:53Z</time>
      </trkpt>
      <trkpt lat="45.08551" lon="2.68055">
        <ele>1041.73</ele>
        <time>2014-10-20T15:10:55Z</time>
      </trkpt>
      <trkpt lat="45.08551" lon="2.68051">
        <ele>1041.73</ele>
        <time>2014-10-20T15:10:57Z</time>
      </trkpt>
      <trkpt lat="45.08549" lon="2.68039">
        <ele>1041.73</ele>
        <time>2014-10-20T15:11:04Z</time>
      </trkpt>
      <trkpt lat="45.08548" lon="2.68032">
        <ele>1041.25</ele>
        <time>2014-10-20T15:11:08Z</time>
      </trkpt>
      <trkpt lat="45.08537" lon="2.67997">
        <ele>1040.76</ele>
        <time>2014-10-20T15:11:31Z</time>
      </trkpt>
      <trkpt lat="45.08536" lon="2.6799">
        <ele>1040.28</ele>
        <time>2014-10-20T15:11:35Z</time>
      </trkpt>
      <trkpt lat="45.08534" lon="2.67983">
        <ele>1040.76</ele>
        <time>2014-10-20T15:11:39Z</time>
      </trkpt>
      <trkpt lat="45.08525" lon="2.67944">
        <ele>1039.32</ele>
        <time>2014-10-20T15:12:01Z</time>
      </trkpt>
      <trkpt lat="45.08509" lon="2.6792">
        <ele>1035.96</ele>
        <time>2014-10-20T15:12:22Z</time>
      </trkpt>
      <trkpt lat="45.08499" lon="2.67907">
        <ele>1034.04</ele>
        <time>2014-10-20T15:12:34Z</time>
      </trkpt>
      <trkpt lat="45.08481" lon="2.6789">
        <ele>1032.11</ele>
        <time>2014-10-20T15:12:52Z</time>
      </trkpt>
      <trkpt lat="45.08459" lon="2.67871">
        <ele>1030.67</ele>
        <time>2014-10-20T15:13:12Z</time>
      </trkpt>
      <trkpt lat="45.08453" lon="2.67867">
        <ele>1030.19</ele>
        <time>2014-10-20T15:13:17Z</time>
      </trkpt>
      <trkpt lat="45.08451" lon="2.67864">
        <ele>1030.19</ele>
        <time>2014-10-20T15:13:24Z</time>
      </trkpt>
      <trkpt lat="45.08448" lon="2.67863">
        <ele>1030.19</ele>
        <time>2014-10-20T15:13:27Z</time>
      </trkpt>
      <trkpt lat="45.08439" lon="2.67842">
        <ele>1027.31</ele>
        <time>2014-10-20T15:13:42Z</time>
      </trkpt>
      <trkpt lat="45.08438" lon="2.67838">
        <ele>1027.79</ele>
        <time>2014-10-20T15:13:44Z</time>
      </trkpt>
      <trkpt lat="45.08437" lon="2.6783">
        <ele>1027.31</ele>
        <time>2014-10-20T15:13:48Z</time>
      </trkpt>
      <trkpt lat="45.08429" lon="2.67815">
        <ele>1025.86</ele>
        <time>2014-10-20T15:13:58Z</time>
      </trkpt>
      <trkpt lat="45.08427" lon="2.6781">
        <ele>1025.38</ele>
        <time>2014-10-20T15:14:01Z</time>
      </trkpt>
      <trkpt lat="45.08422" lon="2.67778">
        <ele>1022.02</ele>
        <time>2014-10-20T15:14:21Z</time>
      </trkpt>
      <trkpt lat="45.0842" lon="2.67764">
        <ele>1020.1</ele>
        <time>2014-10-20T15:14:30Z</time>
      </trkpt>
      <trkpt lat="45.08418" lon="2.67759">
        <ele>1020.1</ele>
        <time>2014-10-20T15:14:32Z</time>
      </trkpt>
      <trkpt lat="45.08412" lon="2.67745">
        <ele>1019.13</ele>
        <time>2014-10-20T15:14:40Z</time>
      </trkpt>
      <trkpt lat="45.0841" lon="2.67739">
        <ele>1018.17</ele>
        <time>2014-10-20T15:14:43Z</time>
      </trkpt>
      <trkpt lat="45.08407" lon="2.67724">
        <ele>1017.21</ele>
        <time>2014-10-20T15:14:53Z</time>
      </trkpt>
      <trkpt lat="45.08394" lon="2.67703">
        <ele>1014.33</ele>
        <time>2014-10-20T15:15:11Z</time>
      </trkpt>
      <trkpt lat="45.0839" lon="2.67698">
        <ele>1013.37</ele>
        <time>2014-10-20T15:15:15Z</time>
      </trkpt>
      <trkpt lat="45.08386" lon="2.67694">
        <ele>1012.89</ele>
        <time>2014-10-20T15:15:19Z</time>
      </trkpt>
      <trkpt lat="45.08383" lon="2.67689">
        <ele>1011.93</ele>
        <time>2014-10-20T15:15:23Z</time>
      </trkpt>
      <trkpt lat="45.08375" lon="2.67678">
        <ele>1010.96</ele>
        <time>2014-10-20T15:15:32Z</time>
      </trkpt>
      <trkpt lat="45.08371" lon="2.67671">
        <ele>1010.96</ele>
        <time>2014-10-20T15:15:38Z</time>
      </trkpt>
      <trkpt lat="45.08358" lon="2.67651">
        <ele>1012.89</ele>
        <time>2014-10-20T15:15:59Z</time>
      </trkpt>
      <trkpt lat="45.08343" lon="2.6763">
        <ele>1009.52</ele>
        <time>2014-10-20T15:16:15Z</time>
      </trkpt>
      <trkpt lat="45.08342" lon="2.67628">
        <ele>1010</ele>
        <time>2014-10-20T15:16:16Z</time>
      </trkpt>
      <trkpt lat="45.08332" lon="2.67621">
        <ele>1009.52</ele>
        <time>2014-10-20T15:16:24Z</time>
      </trkpt>
      <trkpt lat="45.08315" lon="2.67612">
        <ele>1008.08</ele>
        <time>2014-10-20T15:16:43Z</time>
      </trkpt>
      <trkpt lat="45.08309" lon="2.67607">
        <ele>1007.12</ele>
        <time>2014-10-20T15:16:49Z</time>
      </trkpt>
      <trkpt lat="45.08307" lon="2.67605">
        <ele>1007.12</ele>
        <time>2014-10-20T15:16:51Z</time>
      </trkpt>
      <trkpt lat="45.08299" lon="2.67599">
        <ele>1006.16</ele>
        <time>2014-10-20T15:16:59Z</time>
      </trkpt>
      <trkpt lat="45.08296" lon="2.67597">
        <ele>1005.68</ele>
        <time>2014-10-20T15:17:02Z</time>
      </trkpt>
      <trkpt lat="45.08275" lon="2.67585">
        <ele>1005.2</ele>
        <time>2014-10-20T15:17:23Z</time>
      </trkpt>
      <trkpt lat="45.08273" lon="2.67585">
        <ele>1005.2</ele>
        <time>2014-10-20T15:17:47Z</time>
      </trkpt>
      <trkpt lat="45.0827" lon="2.67587">
        <ele>1005.2</ele>
        <time>2014-10-20T15:18:09Z</time>
      </trkpt>
      <trkpt lat="45.08274" lon="2.67587">
        <ele>1005.2</ele>
        <time>2014-10-20T15:18:27Z</time>
      </trkpt>
      <trkpt lat="45.08268" lon="2.67584">
        <ele>1005.2</ele>
        <time>2014-10-20T15:18:56Z</time>
      </trkpt>
      <trkpt lat="45.0827" lon="2.67587">
        <ele>1005.2</ele>
        <time>2014-10-20T15:19:18Z</time>
      </trkpt>
      <trkpt lat="45.08261" lon="2.67574">
        <ele>1004.72</ele>
        <time>2014-10-20T15:19:42Z</time>
      </trkpt>
      <trkpt lat="45.08257" lon="2.67568">
        <ele>1004.72</ele>
        <time>2014-10-20T15:19:46Z</time>
      </trkpt>
      <trkpt lat="45.08255" lon="2.67565">
        <ele>1004.72</ele>
        <time>2014-10-20T15:19:48Z</time>
      </trkpt>
      <trkpt lat="45.08236" lon="2.67547">
        <ele>1006.64</ele>
        <time>2014-10-20T15:20:09Z</time>
      </trkpt>
      <trkpt lat="45.08231" lon="2.67541">
        <ele>1006.16</ele>
        <time>2014-10-20T15:20:15Z</time>
      </trkpt>
      <trkpt lat="45.08221" lon="2.67528">
        <ele>1005.2</ele>
        <time>2014-10-20T15:20:27Z</time>
      </trkpt>
      <trkpt lat="45.08215" lon="2.67522">
        <ele>1004.23</ele>
        <time>2014-10-20T15:20:36Z</time>
      </trkpt>
      <trkpt lat="45.08202" lon="2.67512">
        <ele>1004.23</ele>
        <time>2014-10-20T15:20:55Z</time>
      </trkpt>
      <trkpt lat="45.08192" lon="2.67503">
        <ele>1003.75</ele>
        <time>2014-10-20T15:21:10Z</time>
      </trkpt>
      <trkpt lat="45.08184" lon="2.67493">
        <ele>1003.75</ele>
        <time>2014-10-20T15:21:21Z</time>
      </trkpt>
      <trkpt lat="45.08176" lon="2.67487">
        <ele>1003.75</ele>
        <time>2014-10-20T15:21:30Z</time>
      </trkpt>
      <trkpt lat="45.08152" lon="2.67475">
        <ele>1004.72</ele>
        <time>2014-10-20T15:21:52Z</time>
      </trkpt>
      <trkpt lat="45.08141" lon="2.67462">
        <ele>1005.68</ele>
        <time>2014-10-20T15:22:09Z</time>
      </trkpt>
      <trkpt lat="45.08123" lon="2.67446">
        <ele>1006.64</ele>
        <time>2014-10-20T15:22:26Z</time>
      </trkpt>
      <trkpt lat="45.08105" lon="2.67432">
        <ele>1006.64</ele>
        <time>2014-10-20T15:22:46Z</time>
      </trkpt>
      <trkpt lat="45.08081" lon="2.67416">
        <ele>1006.64</ele>
        <time>2014-10-20T15:23:07Z</time>
      </trkpt>
      <trkpt lat="45.08079" lon="2.67414">
        <ele>1007.12</ele>
        <time>2014-10-20T15:23:09Z</time>
      </trkpt>
      <trkpt lat="45.08059" lon="2.67394">
        <ele>1006.64</ele>
        <time>2014-10-20T15:23:28Z</time>
      </trkpt>
      <trkpt lat="45.08058" lon="2.67393">
        <ele>1007.12</ele>
        <time>2014-10-20T15:23:29Z</time>
      </trkpt>
      <trkpt lat="45.0804" lon="2.6737">
        <ele>1004.72</ele>
        <time>2014-10-20T15:23:50Z</time>
      </trkpt>
      <trkpt lat="45.08032" lon="2.67362">
        <ele>1003.75</ele>
        <time>2014-10-20T15:23:59Z</time>
      </trkpt>
      <trkpt lat="45.08029" lon="2.6736">
        <ele>1004.23</ele>
        <time>2014-10-20T15:24:01Z</time>
      </trkpt>
      <trkpt lat="45.08016" lon="2.67347">
        <ele>1004.23</ele>
        <time>2014-10-20T15:24:11Z</time>
      </trkpt>
      <trkpt lat="45.0801" lon="2.67347">
        <ele>1004.23</ele>
        <time>2014-10-20T15:24:15Z</time>
      </trkpt>
      <trkpt lat="45.07992" lon="2.67331">
        <ele>1004.23</ele>
        <time>2014-10-20T15:24:32Z</time>
      </trkpt>
      <trkpt lat="45.0799" lon="2.67329">
        <ele>1003.27</ele>
        <time>2014-10-20T15:24:34Z</time>
      </trkpt>
      <trkpt lat="45.07977" lon="2.67305">
        <ele>1000.39</ele>
        <time>2014-10-20T15:24:51Z</time>
      </trkpt>
      <trkpt lat="45.07961" lon="2.67278">
        <ele>997.51</ele>
        <time>2014-10-20T15:25:11Z</time>
      </trkpt>
      <trkpt lat="45.07949" lon="2.67248">
        <ele>995.1</ele>
        <time>2014-10-20T15:25:31Z</time>
      </trkpt>
      <trkpt lat="45.07947" lon="2.6724">
        <ele>994.62</ele>
        <time>2014-10-20T15:25:39Z</time>
      </trkpt>
      <trkpt lat="45.07938" lon="2.6722">
        <ele>993.18</ele>
        <time>2014-10-20T15:25:59Z</time>
      </trkpt>
      <trkpt lat="45.07924" lon="2.67185">
        <ele>990.78</ele>
        <time>2014-10-20T15:26:21Z</time>
      </trkpt>
      <trkpt lat="45.07914" lon="2.67155">
        <ele>988.85</ele>
        <time>2014-10-20T15:26:41Z</time>
      </trkpt>
      <trkpt lat="45.07907" lon="2.67124">
        <ele>987.89</ele>
        <time>2014-10-20T15:26:57Z</time>
      </trkpt>
      <trkpt lat="45.07903" lon="2.67115">
        <ele>987.41</ele>
        <time>2014-10-20T15:27:02Z</time>
      </trkpt>
      <trkpt lat="45.0789" lon="2.67082">
        <ele>985.97</ele>
        <time>2014-10-20T15:27:23Z</time>
      </trkpt>
      <trkpt lat="45.07888" lon="2.67078">
        <ele>985.49</ele>
        <time>2014-10-20T15:27:27Z</time>
      </trkpt>
      <trkpt lat="45.07885" lon="2.67073">
        <ele>985.97</ele>
        <time>2014-10-20T15:27:32Z</time>
      </trkpt>
      <trkpt lat="45.07883" lon="2.67059">
        <ele>985.01</ele>
        <time>2014-10-20T15:27:41Z</time>
      </trkpt>
      <trkpt lat="45.07879" lon="2.6703">
        <ele>984.53</ele>
        <time>2014-10-20T15:28:00Z</time>
      </trkpt>
      <trkpt lat="45.07876" lon="2.67021">
        <ele>984.53</ele>
        <time>2014-10-20T15:28:06Z</time>
      </trkpt>
      <trkpt lat="45.07873" lon="2.67013">
        <ele>984.05</ele>
        <time>2014-10-20T15:28:10Z</time>
      </trkpt>
      <trkpt lat="45.07867" lon="2.66995">
        <ele>983.57</ele>
        <time>2014-10-20T15:28:23Z</time>
      </trkpt>
      <trkpt lat="45.07862" lon="2.66981">
        <ele>983.09</ele>
        <time>2014-10-20T15:28:42Z</time>
      </trkpt>
      <trkpt lat="45.07859" lon="2.66976">
        <ele>982.6</ele>
        <time>2014-10-20T15:28:45Z</time>
      </trkpt>
      <trkpt lat="45.07844" lon="2.66939">
        <ele>982.12</ele>
        <time>2014-10-20T15:29:07Z</time>
      </trkpt>
      <trkpt lat="45.0784" lon="2.66935">
        <ele>982.12</ele>
        <time>2014-10-20T15:29:12Z</time>
      </trkpt>
      <trkpt lat="45.07813" lon="2.6693">
        <ele>982.6</ele>
        <time>2014-10-20T15:29:33Z</time>
      </trkpt>
      <trkpt lat="45.07801" lon="2.66927">
        <ele>982.6</ele>
        <time>2014-10-20T15:29:43Z</time>
      </trkpt>
      <trkpt lat="45.07779" lon="2.66925">
        <ele>983.09</ele>
        <time>2014-10-20T15:30:01Z</time>
      </trkpt>
      <trkpt lat="45.07776" lon="2.6692">
        <ele>983.09</ele>
        <time>2014-10-20T15:30:05Z</time>
      </trkpt>
      <trkpt lat="45.07769" lon="2.6691">
        <ele>983.09</ele>
        <time>2014-10-20T15:30:12Z</time>
      </trkpt>
      <trkpt lat="45.0776" lon="2.66891">
        <ele>981.64</ele>
        <time>2014-10-20T15:30:33Z</time>
      </trkpt>
      <trkpt lat="45.07755" lon="2.66867">
        <ele>978.28</ele>
        <time>2014-10-20T15:30:50Z</time>
      </trkpt>
      <trkpt lat="45.07745" lon="2.66856">
        <ele>975.39</ele>
        <time>2014-10-20T15:31:04Z</time>
      </trkpt>
      <trkpt lat="45.07727" lon="2.66851">
        <ele>971.55</ele>
        <time>2014-10-20T15:31:21Z</time>
      </trkpt>
      <trkpt lat="45.07709" lon="2.66849">
        <ele>968.67</ele>
        <time>2014-10-20T15:31:36Z</time>
      </trkpt>
      <trkpt lat="45.07695" lon="2.66853">
        <ele>965.3</ele>
        <time>2014-10-20T15:31:51Z</time>
      </trkpt>
      <trkpt lat="45.07693" lon="2.66854">
        <ele>965.3</ele>
        <time>2014-10-20T15:31:52Z</time>
      </trkpt>
      <trkpt lat="45.07682" lon="2.66847">
        <ele>962.42</ele>
        <time>2014-10-20T15:32:08Z</time>
      </trkpt>
      <trkpt lat="45.0769" lon="2.66833">
        <ele>959.05</ele>
        <time>2014-10-20T15:32:22Z</time>
      </trkpt>
      <trkpt lat="45.07692" lon="2.6683">
        <ele>958.09</ele>
        <time>2014-10-20T15:32:31Z</time>
      </trkpt>
      <trkpt lat="45.07696" lon="2.66815">
        <ele>955.21</ele>
        <time>2014-10-20T15:32:44Z</time>
      </trkpt>
      <trkpt lat="45.07693" lon="2.66807">
        <ele>953.77</ele>
        <time>2014-10-20T15:32:50Z</time>
      </trkpt>
      <trkpt lat="45.07689" lon="2.66802">
        <ele>952.8</ele>
        <time>2014-10-20T15:32:54Z</time>
      </trkpt>
      <trkpt lat="45.07682" lon="2.66795">
        <ele>951.84</ele>
        <time>2014-10-20T15:33:01Z</time>
      </trkpt>
      <trkpt lat="45.0766" lon="2.6678">
        <ele>948</ele>
        <time>2014-10-20T15:33:22Z</time>
      </trkpt>
      <trkpt lat="45.07639" lon="2.66761">
        <ele>946.56</ele>
        <time>2014-10-20T15:33:39Z</time>
      </trkpt>
      <trkpt lat="45.07629" lon="2.66753">
        <ele>946.07</ele>
        <time>2014-10-20T15:33:48Z</time>
      </trkpt>
      <trkpt lat="45.07608" lon="2.66743">
        <ele>945.11</ele>
        <time>2014-10-20T15:34:06Z</time>
      </trkpt>
      <trkpt lat="45.07592" lon="2.66729">
        <ele>944.15</ele>
        <time>2014-10-20T15:34:24Z</time>
      </trkpt>
      <trkpt lat="45.07585" lon="2.66707">
        <ele>944.63</ele>
        <time>2014-10-20T15:34:37Z</time>
      </trkpt>
      <trkpt lat="45.07576" lon="2.66676">
        <ele>944.63</ele>
        <time>2014-10-20T15:34:55Z</time>
      </trkpt>
      <trkpt lat="45.0757" lon="2.66657">
        <ele>943.19</ele>
        <time>2014-10-20T15:35:08Z</time>
      </trkpt>
      <trkpt lat="45.07568" lon="2.66653">
        <ele>943.19</ele>
        <time>2014-10-20T15:35:10Z</time>
      </trkpt>
      <trkpt lat="45.07548" lon="2.66617">
        <ele>942.23</ele>
        <time>2014-10-20T15:35:33Z</time>
      </trkpt>
      <trkpt lat="45.07546" lon="2.66612">
        <ele>942.23</ele>
        <time>2014-10-20T15:35:36Z</time>
      </trkpt>
      <trkpt lat="45.07527" lon="2.66589">
        <ele>942.71</ele>
        <time>2014-10-20T15:35:58Z</time>
      </trkpt>
      <trkpt lat="45.07514" lon="2.66577">
        <ele>942.23</ele>
        <time>2014-10-20T15:36:08Z</time>
      </trkpt>
      <trkpt lat="45.07491" lon="2.66555">
        <ele>942.71</ele>
        <time>2014-10-20T15:36:28Z</time>
      </trkpt>
      <trkpt lat="45.07476" lon="2.66539">
        <ele>944.15</ele>
        <time>2014-10-20T15:36:45Z</time>
      </trkpt>
      <trkpt lat="45.07458" lon="2.66519">
        <ele>941.75</ele>
        <time>2014-10-20T15:37:05Z</time>
      </trkpt>
      <trkpt lat="45.07452" lon="2.66509">
        <ele>941.75</ele>
        <time>2014-10-20T15:37:13Z</time>
      </trkpt>
      <trkpt lat="45.07442" lon="2.66498">
        <ele>940.79</ele>
        <time>2014-10-20T15:37:22Z</time>
      </trkpt>
      <trkpt lat="45.07421" lon="2.66479">
        <ele>939.83</ele>
        <time>2014-10-20T15:37:40Z</time>
      </trkpt>
      <trkpt lat="45.07397" lon="2.66463">
        <ele>938.38</ele>
        <time>2014-10-20T15:37:59Z</time>
      </trkpt>
      <trkpt lat="45.0738" lon="2.66445">
        <ele>937.9</ele>
        <time>2014-10-20T15:38:16Z</time>
      </trkpt>
      <trkpt lat="45.07379" lon="2.66444">
        <ele>937.42</ele>
        <time>2014-10-20T15:38:17Z</time>
      </trkpt>
      <trkpt lat="45.07377" lon="2.66442">
        <ele>937.42</ele>
        <time>2014-10-20T15:38:19Z</time>
      </trkpt>
      <trkpt lat="45.07357" lon="2.66424">
        <ele>936.94</ele>
        <time>2014-10-20T15:38:37Z</time>
      </trkpt>
      <trkpt lat="45.07338" lon="2.66405">
        <ele>936.94</ele>
        <time>2014-10-20T15:38:53Z</time>
      </trkpt>
      <trkpt lat="45.07323" lon="2.6639">
        <ele>936.46</ele>
        <time>2014-10-20T15:39:09Z</time>
      </trkpt>
      <trkpt lat="45.07304" lon="2.66374">
        <ele>936.94</ele>
        <time>2014-10-20T15:39:25Z</time>
      </trkpt>
      <trkpt lat="45.07295" lon="2.66368">
        <ele>937.42</ele>
        <time>2014-10-20T15:39:32Z</time>
      </trkpt>
      <trkpt lat="45.07293" lon="2.66364">
        <ele>937.42</ele>
        <time>2014-10-20T15:39:35Z</time>
      </trkpt>
      <trkpt lat="45.07272" lon="2.66347">
        <ele>936.46</ele>
        <time>2014-10-20T15:39:56Z</time>
      </trkpt>
      <trkpt lat="45.07254" lon="2.66327">
        <ele>935.5</ele>
        <time>2014-10-20T15:40:16Z</time>
      </trkpt>
      <trkpt lat="45.07253" lon="2.66326">
        <ele>935.5</ele>
        <time>2014-10-20T15:40:17Z</time>
      </trkpt>
      <trkpt lat="45.07249" lon="2.66323">
        <ele>935.02</ele>
        <time>2014-10-20T15:40:20Z</time>
      </trkpt>
      <trkpt lat="45.07234" lon="2.66308">
        <ele>934.54</ele>
        <time>2014-10-20T15:40:35Z</time>
      </trkpt>
      <trkpt lat="45.07212" lon="2.66287">
        <ele>933.58</ele>
        <time>2014-10-20T15:40:56Z</time>
      </trkpt>
      <trkpt lat="45.07197" lon="2.6627">
        <ele>933.1</ele>
        <time>2014-10-20T15:41:15Z</time>
      </trkpt>
      <trkpt lat="45.07189" lon="2.66264">
        <ele>933.58</ele>
        <time>2014-10-20T15:41:23Z</time>
      </trkpt>
      <trkpt lat="45.07171" lon="2.66246">
        <ele>932.62</ele>
        <time>2014-10-20T15:41:42Z</time>
      </trkpt>
      <trkpt lat="45.07166" lon="2.66241">
        <ele>932.62</ele>
        <time>2014-10-20T15:41:47Z</time>
      </trkpt>
      <trkpt lat="45.07143" lon="2.66219">
        <ele>932.14</ele>
        <time>2014-10-20T15:42:07Z</time>
      </trkpt>
      <trkpt lat="45.07128" lon="2.66209">
        <ele>932.14</ele>
        <time>2014-10-20T15:42:20Z</time>
      </trkpt>
      <trkpt lat="45.07107" lon="2.66193">
        <ele>932.14</ele>
        <time>2014-10-20T15:42:40Z</time>
      </trkpt>
      <trkpt lat="45.07103" lon="2.6619">
        <ele>932.14</ele>
        <time>2014-10-20T15:42:45Z</time>
      </trkpt>
      <trkpt lat="45.07093" lon="2.66186">
        <ele>932.14</ele>
        <time>2014-10-20T15:42:59Z</time>
      </trkpt>
      <trkpt lat="45.07075" lon="2.66166">
        <ele>932.14</ele>
        <time>2014-10-20T15:43:17Z</time>
      </trkpt>
      <trkpt lat="45.07059" lon="2.66133">
        <ele>933.1</ele>
        <time>2014-10-20T15:43:38Z</time>
      </trkpt>
      <trkpt lat="45.07056" lon="2.6613">
        <ele>933.1</ele>
        <time>2014-10-20T15:43:43Z</time>
      </trkpt>
      <trkpt lat="45.07038" lon="2.66111">
        <ele>931.65</ele>
        <time>2014-10-20T15:43:58Z</time>
      </trkpt>
      <trkpt lat="45.07026" lon="2.661">
        <ele>930.69</ele>
        <time>2014-10-20T15:44:11Z</time>
      </trkpt>
      <trkpt lat="45.07011" lon="2.66056">
        <ele>929.73</ele>
        <time>2014-10-20T15:44:33Z</time>
      </trkpt>
      <trkpt lat="45.07" lon="2.66019">
        <ele>928.77</ele>
        <time>2014-10-20T15:44:55Z</time>
      </trkpt>
      <trkpt lat="45.06991" lon="2.65991">
        <ele>928.29</ele>
        <time>2014-10-20T15:45:15Z</time>
      </trkpt>
      <trkpt lat="45.06991" lon="2.6599">
        <ele>928.29</ele>
        <time>2014-10-20T15:45:16Z</time>
      </trkpt>
      <trkpt lat="45.06987" lon="2.65986">
        <ele>928.77</ele>
        <time>2014-10-20T15:45:38Z</time>
      </trkpt>
      <trkpt lat="45.06985" lon="2.65986">
        <ele>928.29</ele>
        <time>2014-10-20T15:45:52Z</time>
      </trkpt>
      <trkpt lat="45.06982" lon="2.65979">
        <ele>928.29</ele>
        <time>2014-10-20T15:45:58Z</time>
      </trkpt>
      <trkpt lat="45.0698" lon="2.65951">
        <ele>928.29</ele>
        <time>2014-10-20T15:46:21Z</time>
      </trkpt>
      <trkpt lat="45.06982" lon="2.65949">
        <ele>927.81</ele>
        <time>2014-10-20T15:46:23Z</time>
      </trkpt>
      <trkpt lat="45.06982" lon="2.65926">
        <ele>926.85</ele>
        <time>2014-10-20T15:46:42Z</time>
      </trkpt>
      <trkpt lat="45.0697" lon="2.65896">
        <ele>926.37</ele>
        <time>2014-10-20T15:47:00Z</time>
      </trkpt>
      <trkpt lat="45.06968" lon="2.6589">
        <ele>926.37</ele>
        <time>2014-10-20T15:47:04Z</time>
      </trkpt>
      <trkpt lat="45.06965" lon="2.65883">
        <ele>926.37</ele>
        <time>2014-10-20T15:47:08Z</time>
      </trkpt>
      <trkpt lat="45.0695" lon="2.65854">
        <ele>925.89</ele>
        <time>2014-10-20T15:47:31Z</time>
      </trkpt>
      <trkpt lat="45.06946" lon="2.6584">
        <ele>923.96</ele>
        <time>2014-10-20T15:47:46Z</time>
      </trkpt>
      <trkpt lat="45.06946" lon="2.65825">
        <ele>922.04</ele>
        <time>2014-10-20T15:48:12Z</time>
      </trkpt>
      <trkpt lat="45.06952" lon="2.65817">
        <ele>920.6</ele>
        <time>2014-10-20T15:48:45Z</time>
      </trkpt>
      <trkpt lat="45.06953" lon="2.65813">
        <ele>921.08</ele>
        <time>2014-10-20T15:48:48Z</time>
      </trkpt>
      <trkpt lat="45.06956" lon="2.658">
        <ele>919.64</ele>
        <time>2014-10-20T15:49:00Z</time>
      </trkpt>
      <trkpt lat="45.06942" lon="2.65783">
        <ele>919.16</ele>
        <time>2014-10-20T15:49:15Z</time>
      </trkpt>
      <trkpt lat="45.06947" lon="2.65771">
        <ele>919.16</ele>
        <time>2014-10-20T15:49:25Z</time>
      </trkpt>
      <trkpt lat="45.06967" lon="2.65755">
        <ele>918.68</ele>
        <time>2014-10-20T15:49:46Z</time>
      </trkpt>
      <trkpt lat="45.06966" lon="2.65755">
        <ele>918.68</ele>
        <time>2014-10-20T15:50:08Z</time>
      </trkpt>
      <trkpt lat="45.06965" lon="2.65756">
        <ele>918.68</ele>
        <time>2014-10-20T15:50:35Z</time>
      </trkpt>
      <trkpt lat="45.06965" lon="2.65757">
        <ele>913.87</ele>
        <time>2014-10-20T15:50:44Z</time>
      </trkpt>
      <trkpt lat="45.06965" lon="2.65757">
        <ele>919.16</ele>
        <time>2014-10-20T15:50:45Z</time>
      </trkpt>
    </trkseg>
  </trk>
</gpx>